[[{"header":{"parameterUnit":"m.s-1","parameterCategory":1,"la1":30.6,"la2":28.766,"lo1":-90.7593,"lo2":-88.6598,"dy":0.0162,"dx":0.0183,"nx":116,"ny":114,"refTime":"2024-03-22T12:00:00:Z","depth":0,"parameterNumber":2,"parameterNumberName":"U-component_of_WINDS"},"data":[0.0,0.0,0.0,0.0,0.0,0.0,0.0,0.0,0.0,0.0,0.0,0.0,0.0,0.0,0.0,0.0,0.0,0.0,0.0,0.0,0.0,0.0,0.0,0.0,0.0,0.0,0.0,0.0,0.0,0.0,0.0,0.0,0.0,0.0,0.0,0.0,0.0,0.0,0.0,0.0,0.0,0.0,0.0,0.0,0.0,0.0,0.0,0.0,0.0,0.0,0.0,0.0,0.0,0.0,0.0,0.0,0.0,0.0,0.0,0.0,0.0,0.0,0.0,0.0,0.0,0.0,0.0,0.0,0.0,0.0,0.0,0.0,0.0,0.0,0.0,0.0,0.0,0.0,0.0,0.0,0.0,0.0,0.0,0.0,0.0,0.0,0.0,0.0,0.0,0.0,0.0,0.0,0.0,0.0,0.0,0.0,0.0,0.0,0.0,0.0,0.0,0.0,0.0,0.0,0.0,0.0,0.0,0.0,0.0,0.0,0.0,0.0,0.0,0.0,0.0,0.0,0.0,0.0,0.0,0.0,0.0,0.0,0.0,0.0,0.0,0.0,0.0,0.0,0.0,0.0,0.0,0.0,0.0,0.0,0.0,0.0,0.0,0.0,0.0,0.0,0.0,0.0,0.0,0.0,0.0,0.0,0.0,0.0,0.0,0.0,0.0,0.0,0.0,0.0,0.0,0.0,0.0,0.0,0.0,0.0,0.0,0.0,0.0,0.0,0.0,0.0,0.0,0.0,0.0,0.0,0.0,0.0,0.0,0.0,0.0,0.0,0.0,0.0,0.0,0.0,0.0,0.0,0.0,0.0,0.0,0.0,0.0,0.0,0.0,0.0,0.0,0.0,0.0,0.0,0.0,0.0,0.0,0.0,0.0,0.0,0.0,0.0,0.0,0.0,0.0,0.0,0.0,0.0,0.0,0.0,0.0,0.0,0.0,0.0,0.0,0.0,0.0,0.0,0.0,0.0,0.0,0.0,0.0,0.0,0.0,0.0,0.0,0.0,0.0,0.0,0.0,0.0,0.0,0.0,0.0,0.0,0.0,0.0,0.0,0.0,0.0,0.0,0.0,0.0,0.0,0.0,0.0,0.0,0.0,0.0,0.0,0.0,0.0,0.0,0.0,0.0,0.0,0.0,0.0,0.0,0.0,0.0,0.0,0.0,0.0,0.0,0.0,0.0,0.0,0.0,0.0,0.0,0.0,0.0,0.0,0.0,0.0,0.0,0.0,0.0,0.0,0.0,0.0,0.0,0.0,0.0,0.0,0.0,0.0,0.0,0.0,0.0,0.0,0.0,0.0,0.0,0.0,0.0,0.0,0.0,0.0,0.0,0.0,0.0,0.0,0.0,0.0,0.0,0.0,0.0,0.0,0.0,0.0,0.0,0.0,0.0,0.0,0.0,0.0,0.0,0.0,0.0,0.0,0.0,0.0,0.0,0.0,0.0,0.0,0.0,0.0,0.0,0.0,0.0,0.0,0.0,0.0,0.0,0.0,0.0,0.0,0.0,0.0,0.0,0.0,0.0,0.0,0.0,0.0,0.0,0.0,0.0,0.0,0.0,0.0,0.0,0.0,0.0,0.0,0.0,0.0,0.0,0.0,0.0,0.0,0.0,0.0,0.0,0.0,0.0,0.0,0.0,0.0,0.0,0.0,0.0,0.0,0.0,0.0,0.0,0.0,0.0,0.0,0.0,0.0,0.0,0.0,0.0,0.0,0.0,0.0,0.0,0.0,0.0,0.0,0.0,0.0,0.0,0.0,0.0,0.0,0.0,0.0,0.0,0.0,0.0,0.0,0.0,0.0,0.0,0.0,0.0,0.0,0.0,0.0,0.0,0.0,0.0,0.0,0.0,0.0,0.0,0.0,0.0,0.0,0.0,0.0,0.0,0.0,0.0,0.0,0.0,0.0,0.0,0.0,0.0,0.0,0.0,0.0,0.0,0.0,0.0,0.0,0.0,0.0,0.0,0.0,0.0,0.0,0.0,0.0,0.0,0.0,0.0,0.0,0.0,0.0,0.0,0.0,0.0,0.0,0.0,0.0,0.0,0.0,0.0,0.0,0.0,0.0,0.0,0.0,0.0,0.0,0.0,0.0,0.0,0.0,0.0,0.0,0.0,0.0,0.0,0.0,0.0,0.0,0.0,0.0,0.0,0.0,0.0,0.0,0.0,0.0,0.0,0.0,0.0,0.0,0.0,0.0,0.0,0.0,0.0,0.0,0.0,0.0,0.0,0.0,0.0,0.0,0.0,0.0,0.0,0.0,0.0,0.0,0.0,0.0,0.0,0.0,0.0,0.0,0.0,0.0,0.0,0.0,0.0,0.0,0.0,0.0,0.0,0.0,0.0,0.0,0.0,0.0,0.0,0.0,0.0,0.0,0.0,0.0,0.0,0.0,0.0,0.0,0.0,0.0,0.0,0.0,0.0,0.0,0.0,0.0,0.0,0.0,0.0,0.0,0.0,0.0,0.0,0.0,0.0,0.0,0.0,0.0,0.0,0.0,0.0,0.0,0.0,0.0,0.0,0.0,0.0,0.0,0.0,0.0,0.0,0.0,0.0,0.0,0.0,0.0,0.0,0.0,0.0,0.0,0.0,0.0,0.0,0.0,0.0,0.0,0.0,0.0,0.0,0.0,0.0,0.0,0.0,0.0,0.0,0.0,0.0,0.0,0.0,0.0,0.0,0.0,0.0,0.0,0.0,0.0,0.0,0.0,0.0,0.0,0.0,0.0,0.0,0.0,0.0,0.0,0.0,0.0,0.0,0.0,0.0,0.0,0.0,0.0,0.0,0.0,0.0,0.0,0.0,0.0,0.0,0.0,0.0,0.0,0.0,0.0,0.0,0.0,0.0,0.0,0.0,0.0,0.0,0.0,0.0,0.0,0.0,0.0,0.0,0.0,0.0,0.0,0.0,0.0,0.0,0.0,0.0,0.0,0.0,0.0,0.0,0.0,0.0,0.0,0.0,0.0,0.0,0.0,0.0,0.0,0.0,0.0,0.0,0.0,0.0,0.0,0.0,0.0,0.0,0.0,0.0,0.0,0.0,0.0,0.0,0.0,0.0,0.0,0.0,0.0,0.0,0.0,0.0,0.0,0.0,0.0,0.0,0.0,0.0,0.0,0.0,0.0,0.0,0.0,0.0,0.0,0.0,0.0,0.0,0.0,0.0,0.0,0.0,0.0,0.0,0.0,0.0,0.0,0.0,0.0,0.0,0.0,0.0,0.0,0.0,0.0,0.0,0.0,0.0,0.0,0.0,0.0,0.0,0.0,0.0,0.0,0.0,0.0,0.0,0.0,0.0,0.0,0.0,0.0,0.0,0.0,0.0,0.0,0.0,0.0,0.0,0.0,0.0,0.0,0.0,0.0,0.0,0.0,0.0,0.0,0.0,0.0,0.0,0.0,0.0,0.0,0.0,0.0,0.0,0.0,0.0,0.0,0.0,0.0,0.0,0.0,0.0,0.0,0.0,0.0,0.0,0.0,0.0,0.0,0.0,0.0,0.0,0.0,0.0,0.0,0.0,0.0,0.0,0.0,0.0,0.0,0.0,0.0,0.0,0.0,0.0,0.0,0.0,0.0,0.0,0.0,0.0,0.0,0.0,0.0,0.0,0.0,0.0,0.0,0.0,0.0,0.0,0.0,0.0,0.0,0.0,0.0,0.0,0.0,0.0,0.0,0.0,0.0,0.0,0.0,0.0,0.0,0.0,0.0,0.0,0.0,0.0,0.0,0.0,0.0,0.0,0.0,0.0,0.0,0.0,0.0,0.0,0.0,0.0,0.0,0.0,0.0,0.0,0.0,0.0,0.0,0.0,0.0,0.0,0.0,0.0,0.0,0.0,0.0,0.0,0.0,0.0,0.0,0.0,0.0,0.0,0.0,0.0,0.0,0.0,0.0,0.0,0.0,0.0,0.0,0.0,0.0,0.0,0.0,0.0,0.0,0.0,0.0,0.0,0.0,0.0,0.0,0.0,0.0,0.0,0.0,0.0,0.0,0.0,0.0,0.0,0.0,0.0,0.0,0.0,0.0,0.0,0.0,0.0,0.0,0.0,0.0,0.0,0.0,0.0,0.0,0.0,0.0,0.0,0.0,0.0,0.0,0.0,0.0,0.0,0.0,0.0,0.0,0.0,0.0,0.0,0.0,0.0,0.0,0.0,0.0,0.0,0.0,0.0,0.0,0.0,0.0,0.0,0.0,0.0,0.0,0.0,0.0,0.0,0.0,0.0,0.0,0.0,0.0,0.0,0.0,0.0,0.0,0.0,0.0,0.0,0.0,0.0,0.0,0.0,0.0,0.0,0.0,0.0,0.0,0.0,0.0,0.0,0.0,0.0,0.0,0.0,0.0,0.0,0.0,0.0,0.0,0.0,0.0,0.0,0.0,0.0,0.0,0.0,0.0,0.0,0.0,0.0,0.0,0.0,0.0,0.0,0.0,0.0,0.0,0.0,0.0,0.0,0.0,0.0,0.0,0.0,0.0,0.0,0.0,0.0,0.0,0.0,0.0,0.0,0.0,0.0,0.0,0.0,0.0,0.0,0.0,0.0,0.0,0.0,0.0,0.0,0.0,0.0,0.0,0.0,0.0,0.0,0.0,0.0,0.0,0.0,0.0,0.0,0.0,0.0,0.0,0.0,0.0,0.0,0.0,0.0,0.0,0.0,0.0,0.0,0.0,0.0,0.0,0.0,0.0,0.0,0.0,0.0,0.0,0.0,0.0,0.0,0.0,0.0,0.0,0.0,0.0,0.0,0.0,0.0,0.0,0.0,0.0,0.0,0.0,0.0,0.0,0.0,0.0,0.0,0.0,0.0,0.0,0.0,0.0,0.0,0.0,0.0,0.0,0.0,0.0,0.0,0.0,0.0,0.0,0.0,0.0,0.0,0.0,0.0,0.0,0.0,0.0,0.0,0.0,0.0,0.0,0.0,0.0,0.0,0.0,0.0,0.0,0.0,0.0,0.0,0.0,0.0,0.0,0.0,0.0,0.0,0.0,0.0,0.0,0.0,0.0,0.0,0.0,0.0,0.0,0.0,0.0,0.0,0.0,0.0,0.0,0.0,0.0,0.0,0.0,0.0,0.0,0.0,0.0,0.0,0.0,0.0,0.0,0.0,0.0,0.0,0.0,0.0,0.0,0.0,0.0,0.0,0.0,0.0,0.0,0.0,0.0,0.0,0.0,0.0,0.0,0.0,0.0,0.0,0.0,0.0,0.0,0.0,0.0,0.0,0.0,0.0,0.0,0.0,0.0,0.0,0.0,0.0,0.0,0.0,0.0,0.0,0.0,0.0,0.0,0.0,0.0,0.0,0.0,0.0,0.0,0.0,0.0,0.0,0.0,0.0,0.0,0.0,0.0,0.0,0.0,0.0,0.0,0.0,0.0,0.0,0.0,0.0,0.0,0.0,0.0,0.0,0.0,0.0,0.0,0.0,0.0,0.0,0.0,0.0,0.0,0.0,0.0,0.0,0.0,0.0,0.0,0.0,0.0,0.0,0.0,0.0,0.0,0.0,0.0,0.0,0.0,0.0,0.0,0.0,0.0,0.0,0.0,0.0,0.0,0.0,0.0,0.0,0.0,0.0,0.0,0.0,0.0,0.0,0.0,0.0,0.0,0.0,0.0,0.0,0.0,0.0,0.0,0.0,0.0,0.0,0.0,0.0,0.0,0.0,0.0,0.0,0.0,0.0,0.0,0.0,0.0,0.0,0.0,0.0,0.0,0.0,0.0,0.0,0.0,0.0,0.0,0.0,0.0,0.0,0.0,0.0,0.0,0.0,0.0,0.0,0.0,0.0,0.0,0.0,0.0,0.0,0.0,0.0,0.0,0.0,0.0,0.0,0.0,0.0,0.0,0.0,0.0,0.0,0.0,0.0,0.0,0.0,0.0,0.0,0.0,0.0,0.0,0.0,0.0,0.0,0.0,0.0,0.0,0.0,0.0,0.0,0.0,0.0,0.0,0.0,0.0,0.0,0.0,0.0,0.0,0.0,0.0,0.0,0.0,0.0,0.0,0.0,0.0,0.0,0.0,0.0,0.0,0.0,0.0,0.0,0.0,0.0,0.0,0.0,0.0,0.0,0.0,0.0,0.0,0.0,3.2998,0.0,0.0,0.0,0.0,0.0,0.0,0.0,0.0,0.0,0.0,0.0,0.0,0.0,0.0,0.0,0.0,0.0,0.0,0.0,0.0,0.0,0.0,0.0,0.0,0.0,0.0,0.0,0.0,0.0,0.0,0.0,0.0,0.0,0.0,0.0,2.8163,2.8168,2.8557,2.9401,2.8941,2.9596,3.1255,3.0341,2.9257,2.8046,0.0,0.0,0.0,0.0,0.0,0.0,0.0,0.0,0.0,0.0,0.0,0.0,0.0,0.0,0.0,0.0,0.0,0.0,0.0,0.0,0.0,0.0,0.0,0.0,0.0,0.0,0.0,0.0,0.0,0.0,0.0,0.0,0.0,0.0,0.0,0.0,0.0,0.0,0.0,0.0,0.0,0.0,0.0,0.0,0.0,0.0,0.0,0.0,0.0,0.0,0.0,0.0,0.0,0.0,0.0,0.0,0.0,0.0,0.0,0.0,0.0,0.0,0.0,0.0,0.0,0.0,0.0,0.0,0.0,0.0,0.0,3.5254,0.0,0.0,0.0,0.0,0.0,0.0,0.0,0.0,0.0,0.0,0.0,0.0,0.0,0.0,0.0,0.0,0.0,0.0,0.0,0.0,0.0,0.0,0.0,2.6722,2.7654,2.8469,2.9369,2.9836,0.0,0.0,0.0,0.0,0.0,0.0,2.9485,2.9641,3.0185,3.1151,3.1735,3.2856,3.4435,3.5313,3.4574,3.2421,3.1164,0.0,0.0,0.0,0.0,0.0,0.0,0.0,0.0,0.0,0.0,0.0,0.0,0.0,0.0,0.0,0.0,0.0,0.0,0.0,0.0,0.0,0.0,0.0,0.0,0.0,0.0,0.0,0.0,0.0,0.0,0.0,0.0,0.0,0.0,0.0,0.0,0.0,0.0,0.0,0.0,0.0,0.0,0.0,0.0,0.0,0.0,0.0,0.0,0.0,0.0,0.0,0.0,0.0,0.0,0.0,0.0,0.0,0.0,0.0,0.0,0.0,0.0,0.0,4.2545,4.2588,4.2474,4.3918,4.427,4.3609,4.0912,3.9972,4.0242,0.0,0.0,0.0,0.0,0.0,0.0,0.0,0.0,0.0,0.0,0.0,0.0,0.0,0.0,0.0,0.0,0.0,0.0,0.0,0.0,2.5538,2.6515,2.8099,2.9426,3.0263,3.1156,3.1661,3.1661,0.0,0.0,0.0,0.0,3.0309,2.9415,3.0153,3.1358,3.2951,3.5943,3.7886,3.8887,3.9746,3.9941,3.944,3.6391,3.5503,3.6052,0.0,0.0,0.0,0.0,0.0,0.0,0.0,0.0,0.0,0.0,0.0,0.0,0.0,0.0,0.0,0.0,0.0,0.0,0.0,0.0,0.0,0.0,0.0,0.0,0.0,0.0,0.0,0.0,0.0,0.0,0.0,0.0,0.0,0.0,0.0,0.0,0.0,0.0,0.0,0.0,0.0,3.2396,3.4991,0.0,0.0,0.0,0.0,0.0,0.0,0.0,0.0,0.0,0.0,0.0,0.0,0.0,4.2744,4.5246,4.6729,4.7237,4.6765,4.8209,4.8525,4.7783,4.8017,4.8486,4.9111,4.9423,0.0,4.2155,4.3447,0.0,0.0,0.0,0.0,0.0,0.0,0.0,0.0,0.0,0.0,0.0,0.0,0.0,0.0,0.0,0.0,0.0,0.0,0.0,0.0,0.0,3.0955,3.2819,3.4187,3.508,3.4964,3.3487,3.341,0.0,0.0,3.0503,3.0736,3.0859,3.1708,3.372,3.6906,4.0325,4.2189,4.2617,4.3976,4.455,4.4443,4.3497,4.1669,3.9021,3.6114,0.0,0.0,0.0,0.0,0.0,0.0,0.0,0.0,0.0,0.0,0.0,0.0,0.0,0.0,0.0,0.0,0.0,0.0,0.0,0.0,0.0,0.0,0.0,0.0,0.0,0.0,0.0,0.0,0.0,0.0,0.0,0.0,0.0,0.0,0.0,0.0,0.0,0.0,0.0,3.2382,3.4852,3.646,3.6789,3.6797,0.0,0.0,0.0,0.0,0.0,0.0,0.0,0.0,0.0,4.5246,4.5753,4.7237,4.9852,5.0126,5.1063,5.2663,5.1913,5.2147,5.3132,5.2186,5.2186,5.3053,5.3444,5.1531,4.8131,4.7432,4.5168,4.2006,0.0,0.0,0.0,0.0,3.9741,4.0437,0.0,0.0,0.0,0.0,0.0,0.0,0.0,0.0,0.0,0.0,0.0,0.0,3.1064,3.3441,3.5624,3.7605,3.8149,3.7566,3.5624,3.4886,3.3456,3.1132,3.0814,3.1008,3.1644,3.3806,3.6945,4.0985,4.3976,4.553,4.5802,4.7116,4.7688,4.7667,4.8613,4.6853,4.3005,4.0023,3.7847,3.6051,0.0,0.0,0.0,0.0,0.0,0.0,0.0,0.0,0.0,0.0,0.0,0.0,0.0,0.0,0.0,0.0,0.0,0.0,0.0,0.0,0.0,0.0,0.0,0.0,0.0,0.0,0.0,0.0,0.0,0.0,0.0,0.0,0.0,0.0,0.0,0.0,0.0,3.5154,3.7308,3.8405,3.9472,3.9794,0.0,0.0,0.0,0.0,0.0,0.0,4.5273,4.6179,4.7549,4.9501,5.036,5.1921,5.4303,5.3678,5.4654,5.7231,5.5265,5.5343,5.7187,5.5884,5.5533,5.5933,5.5938,5.5079,5.3479,5.1102,4.8486,4.5792,4.384,4.2048,4.0765,4.2201,4.3173,4.4032,0.0,0.0,0.0,0.0,0.0,0.0,0.0,0.0,0.0,0.0,0.0,3.025,3.2809,3.4659,3.6772,3.9353,3.8848,3.8343,3.8188,3.5896,3.372,3.2011,3.1156,3.0729,3.0775,3.6401,4.1063,4.452,4.6307,4.7589,4.8405,4.8515,4.8543,4.8561,4.9448,4.9681,4.9193,4.4978,4.2636,4.1296,3.5391,0.0,0.0,0.0,0.0,0.0,0.0,0.0,0.0,0.0,0.0,0.0,0.0,0.0,0.0,0.0,0.0,0.0,0.0,0.0,0.0,0.0,0.0,0.0,0.0,0.0,0.0,0.0,0.0,0.0,0.0,0.0,0.0,0.0,0.0,0.0,0.0,0.0,0.0,4.1953,4.359,0.0,0.0,0.0,0.0,4.5694,4.598,4.7198,4.9653,5.0594,5.2273,5.481,5.5747,5.7035,5.8753,5.8714,5.8792,5.8987,5.8856,5.885,5.8967,5.8871,5.8435,5.7655,5.7674,5.7133,5.6196,5.4455,5.1726,4.8603,4.8447,4.7393,4.6027,4.6924,4.7315,4.7471,0.0,0.0,0.0,0.0,0.0,0.0,0.0,0.0,2.3436,2.4568,2.8403,3.2019,3.4589,3.7907,4.0743,4.2811,4.2694,4.1801,4.013,3.7092,3.5072,3.4451,3.254,3.3285,3.7178,4.1024,4.4093,4.6424,4.8116,4.9126,4.9454,4.9992,5.0264,5.0309,5.0592,5.0748,5.0542,4.7328,4.4782,4.2604,3.8268,3.4659,0.0,0.0,0.0,0.0,0.0,0.0,0.0,0.0,0.0,0.0,0.0,0.0,0.0,0.0,0.0,0.0,0.0,0.0,0.0,0.0,0.0,0.0,0.0,0.0,0.0,0.0,0.0,0.0,0.0,0.0,0.0,0.0,0.0,0.0,0.0,0.0,0.0,4.5404,4.721,0.0,4.7015,4.7462,4.8064,4.865,5.0304,5.1869,5.3318,5.4728,5.6216,5.7699,5.805,5.8753,5.9924,5.9378,5.9646,6.0768,5.9625,5.9651,6.0666,5.9014,5.8382,5.8552,5.7434,5.6782,5.647,5.5899,5.3951,5.1258,5.0672,4.9423,4.7939,4.8252,4.872,4.9267,0.0,0.0,0.0,0.0,0.0,0.0,0.0,0.0,2.383,2.5007,2.9349,3.3541,3.6742,4.013,4.3005,4.5025,4.4676,4.3627,4.1879,3.8287,3.6112,3.581,3.4404,3.6082,4.1218,4.4171,4.6463,4.8172,4.9632,5.0331,5.0348,5.0914,5.1186,5.1202,5.1202,5.119,5.1035,4.9027,4.6818,4.4444,4.1285,3.8171,3.5146,0.0,0.0,0.0,0.0,0.0,0.0,0.0,0.0,0.0,0.0,0.0,0.0,0.0,0.0,0.0,0.0,0.0,0.0,0.0,0.0,0.0,0.0,0.0,0.0,0.0,0.0,0.0,0.0,0.0,0.0,0.0,0.0,0.0,0.0,0.0,4.5787,4.8086,5.0119,5.0906,4.9776,5.0959,5.1947,5.2227,5.4156,5.565,5.647,5.8163,5.9378,5.9963,6.0276,6.0705,6.1252,6.0393,6.0544,6.1705,6.0516,6.0542,6.1556,5.9849,5.9069,5.8999,5.785,5.7004,5.6503,5.6548,5.5387,5.3483,5.2624,5.1375,5.0087,4.9774,5.0048,5.0516,0.0,0.0,0.0,0.0,0.0,0.0,2.0512,2.2671,2.4911,2.6579,3.0545,3.4861,3.9131,4.117,4.3238,4.5763,4.4481,4.351,4.351,3.9452,3.6686,3.5888,3.6789,3.8926,4.2267,4.5647,4.8211,4.992,5.0814,5.1241,5.1241,5.128,5.128,5.128,5.1241,5.119,5.1076,5.0297,4.8938,4.7156,4.4544,4.2,3.9448,0.0,0.0,0.0,0.0,0.0,0.0,0.0,0.0,0.0,0.0,0.0,0.0,0.0,0.0,0.0,0.0,0.0,0.0,0.0,0.0,0.0,0.0,0.0,0.0,0.0,0.0,0.0,0.0,0.0,0.0,0.0,0.0,0.0,4.3569,4.6013,4.8319,4.9995,5.2489,5.3385,5.171,5.383,5.5677,5.6496,5.7382,5.8259,5.9084,6.0773,6.1754,6.1754,6.2579,6.3008,6.3008,6.2149,6.172,6.1715,6.1615,6.1595,6.1595,6.1556,6.0633,5.9035,5.9022,5.8063,5.6524,5.6524,5.6074,5.524,5.4381,5.3522,5.2624,5.1804,5.1492,5.1375,0.0,0.0,0.0,0.0,0.0,0.0,2.0487,2.2627,2.4865,2.6644,3.1127,3.5542,3.9199,4.1704,4.3889,4.582,4.4471,4.3461,4.3441,3.886,3.6336,3.6733,4.0548,4.3704,4.5841,4.8055,4.9726,5.0853,5.173,5.2119,5.2096,5.278,5.3052,5.2989,5.2368,5.2057,5.2006,5.1139,5.0144,4.8942,4.6964,4.4601,4.215,0.0,0.0,0.0,0.0,0.0,0.0,0.0,0.0,0.0,0.0,0.0,0.0,0.0,0.0,0.0,0.0,0.0,0.0,0.0,0.0,0.0,0.0,0.0,0.0,0.0,0.0,0.0,0.0,0.0,0.0,0.0,4.2585,4.6074,4.6325,4.9651,5.2745,5.4515,5.6425,5.7399,5.6931,5.7524,5.8039,5.8289,5.917,5.9807,6.0041,6.1693,6.2635,6.2584,6.2818,6.2942,6.2993,6.2134,6.1705,6.1705,6.1648,6.1588,6.1573,6.0963,6.0399,5.9893,5.9256,5.8406,5.7439,5.7453,5.6953,5.6068,5.5221,5.4367,5.3626,5.3352,5.3274,5.3157,0.0,0.0,0.0,0.0,0.0,0.0,2.0452,2.2949,2.5538,2.766,3.2074,3.6366,3.9772,4.182,4.35,4.4788,4.3712,4.2636,4.1839,3.9054,3.7919,3.9151,4.3112,4.6113,4.7822,4.9881,5.1202,5.1707,5.2574,5.2974,5.295,5.3518,5.3751,5.3689,5.3171,5.2731,5.2343,5.1852,5.1114,5.022,4.916,4.7414,4.5307,4.4457,4.2911,4.1016,3.9934,3.9018,3.8036,3.6118,0.0,0.0,0.0,0.0,0.0,0.0,0.0,0.0,0.0,0.0,0.0,0.0,0.0,0.0,0.0,0.0,0.0,0.0,0.0,0.0,0.0,0.0,0.0,0.0,4.6338,4.9868,5.1026,5.3351,5.5589,5.7321,5.8412,5.8996,5.8996,5.9347,5.9551,5.9521,6.0403,6.1073,6.1424,6.2772,6.3631,6.3975,6.3975,6.4021,6.404,6.3182,6.2563,6.2257,6.2194,6.1939,6.158,6.108,6.0633,0.0,5.9754,5.8866,5.7783,5.7783,5.7251,0.0,0.0,0.0,0.0,0.0,5.4011,5.3933,0.0,0.0,0.0,0.0,0.0,0.0,2.0647,2.3586,2.6605,2.9097,3.3052,3.6928,4.0237,4.1393,4.2296,4.3186,4.2527,4.1373,3.9859,3.9937,4.0742,4.2311,4.5004,4.7201,4.8871,5.128,5.2562,5.2562,5.3417,5.3844,5.3844,5.396,5.3999,5.3999,5.3896,5.3404,5.2667,5.251,5.2017,5.1276,5.1215,5.0062,4.8369,4.7658,4.731,4.6924,4.4607,4.3308,4.2215,3.8967,0.0,0.0,0.0,0.0,0.0,0.0,0.0,0.0,0.0,0.0,0.0,0.0,0.0,0.0,0.0,0.0,0.0,0.0,0.0,0.0,0.0,0.0,0.0,0.0,5.0126,5.3841,5.6336,5.6894,5.7594,5.8996,5.923,5.9269,5.9269,6.0088,6.0594,6.0594,6.1314,6.211,6.2999,0.0,0.0,0.0,0.0,6.5496,6.5517,6.4619,6.3812,6.3008,6.2935,6.2453,6.1595,6.1586,6.1179,6.0438,6.0438,5.9473,5.7938,5.7875,5.7307,5.6439,5.5659,5.5347,5.5237,5.4429,5.4201,5.4284,0.0,0.0,0.0,0.0,0.0,0.0,2.2401,2.4818,2.7252,2.9136,3.2501,3.5784,3.851,3.9636,4.0762,4.2199,4.1613,4.0974,4.0593,4.1884,4.3136,4.4156,4.7384,4.9609,5.0658,5.2484,5.3455,5.3455,5.431,5.4737,5.4776,5.5476,5.5786,5.5786,5.5035,5.4634,5.4361,5.3635,5.3204,5.3004,5.2923,5.146,4.9335,4.9131,4.8613,4.8012,4.7503,4.7163,4.6689,4.4677,4.2911,4.1116,3.8628,3.5881,0.0,0.0,0.0,0.0,0.0,0.0,0.0,0.0,0.0,0.0,0.0,0.0,0.0,0.0,0.0,0.0,0.0,0.0,0.0,4.8631,5.3312,5.7002,5.8219,5.9655,6.0427,6.0088,6.0672,6.1101,6.1101,6.188,6.2387,6.2387,6.2561,6.2999,6.3838,6.409,6.4567,6.5397,6.5463,6.5519,6.5496,6.4638,6.3793,6.2993,0.0,0.0,6.1612,6.1578,6.149,6.1334,6.1334,6.036,5.8771,5.8763,5.7875,5.648,5.6301,5.6262,5.6152,5.5294,5.5425,5.5906,0.0,0.0,0.0,0.0,0.0,0.0,2.2872,2.483,2.6987,2.9136,3.1654,3.424,3.6774,3.7453,3.8074,3.8828,3.8528,3.9032,4.0703,4.2443,4.4366,4.6511,4.912,5.1163,5.2407,5.3261,5.3922,5.4349,5.4776,5.5437,5.6291,5.6291,5.6524,5.6913,5.598,5.5331,5.489,5.4405,5.3917,5.3442,5.3391,5.2566,5.1468,5.1393,5.0622,4.9542,5.0019,4.9581,4.8546,4.6865,4.5406,4.382,4.1283,3.8792,3.6382,0.0,0.0,0.0,0.0,0.0,0.0,0.0,0.0,0.0,0.0,0.0,0.0,0.0,0.0,4.268,4.4847,0.0,5.0079,5.3158,5.6214,5.8661,5.9957,6.0915,6.134,6.0965,6.1266,6.1539,6.1549,6.1938,6.2211,6.2211,6.262,6.3253,6.4062,6.4539,6.5163,6.6011,6.6059,6.6117,6.6104,6.5675,6.4825,6.3598,6.3569,6.289,6.1603,6.1616,6.1607,6.1607,6.1607,6.0594,5.8918,5.81,5.7243,5.6511,5.6519,5.648,5.6441,5.602,5.6113,5.6446,0.0,0.0,0.0,0.0,0.0,0.0,0.0,2.4874,2.6728,2.9097,3.0768,3.2656,3.5029,3.5279,3.5387,3.566,3.6144,3.7738,4.081,4.2974,4.5452,4.8387,5.0545,5.2329,5.3689,5.3883,5.4388,5.5242,5.5087,5.5825,5.734,5.6641,5.6667,5.7288,5.6519,5.5792,5.5118,5.5094,5.4602,5.3894,5.384,5.3725,5.3514,5.3532,5.2454,5.0991,5.1624,5.0663,4.8933,4.7601,4.6394,4.515,4.3094,4.1223,3.9345,3.7126,3.5611,0.0,0.0,0.0,0.0,0.0,0.0,0.0,0.0,3.9651,4.1428,4.3336,4.5046,4.7094,4.9915,5.1943,5.4181,5.7256,5.8634,5.9801,6.1188,6.1447,6.1472,6.1468,6.1495,6.1495,6.1479,6.1634,6.184,6.1996,6.2718,6.3546,6.4569,6.5104,6.5805,6.6673,6.6712,6.6693,6.6711,6.6711,6.5862,6.4201,6.4185,6.3271,6.1595,6.1616,6.1607,6.1568,6.1257,6.0282,5.888,5.7204,5.6503,5.6503,5.6503,5.6503,5.6511,5.648,5.6503,5.6485,0.0,0.0,0.0,0.0,0.0,0.0,0.0,0.0,2.7388,2.9175,3.0224,3.153,3.3313,3.3477,3.4098,3.5563,3.7777,3.9855,4.1738,4.495,4.7301,4.8463,5.1658,5.3521,5.3689,5.4453,5.5281,5.6136,5.5398,5.5514,5.6447,5.6304,5.6238,5.6354,5.6233,5.6126,5.5962,5.5962,5.5857,5.5709,5.5654,5.5094,5.4361,5.4297,5.3259,5.1664,5.1068,4.9682,4.8145,4.8102,4.6876,4.5381,4.5204,4.3508,4.1316,4.0308,3.7874,3.5415,3.5094,3.5172,3.6033,3.9083,3.8955,3.9841,0.0,4.7031,4.686,4.9307,5.1194,5.2541,5.2906,5.5094,5.7188,5.8389,6.0017,6.1186,6.1381,6.1419,6.1408,6.1408,6.1472,6.1484,6.1484,6.2184,6.2986,6.3748,6.392,6.4671,6.6322,6.5784,6.5784,6.6673,6.6693,6.6711,6.6711,6.6711,6.5853,6.4185,6.4159,6.3244,6.1607,6.1607,6.1607,6.149,5.9971,5.9191,5.888,5.7204,5.6503,5.6503,5.6503,5.6503,5.6503,5.6511,5.6496,5.6485,0.0,0.0,0.0,0.0,0.0,0.0,0.0,0.0,2.7323,2.8476,2.9408,3.0404,3.1623,3.1732,3.2374,3.4042,3.6549,3.917,4.1816,4.526,4.8038,4.9924,5.2369,5.396,5.444,5.431,5.466,5.5553,5.4673,5.4673,5.5488,5.598,5.6185,5.6209,5.6194,5.6149,5.6117,5.6068,5.5998,5.5924,5.5845,5.5245,5.4395,5.3832,5.2602,5.1047,5.0221,4.8798,0.0,4.6222,4.5378,4.4632,4.4152,4.2667,4.0969,4.0639,3.9567,3.8722,3.9739,4.0009,4.0588,4.3018,4.4183,4.5555,4.8754,4.9717,5.0373,5.1913,5.3185,5.4516,5.6096,5.7327,5.8574,5.9979,6.1268,6.209,6.2157,6.2157,6.1963,6.1472,6.1888,6.2018,6.1499,6.1822,6.2379,6.3223,6.378,6.466,6.5862,6.6096,6.6329,6.6712,6.6683,6.6683,6.6683,6.6683,6.5835,6.4159,6.4101,6.3195,6.1549,6.1559,6.1334,6.075,5.9542,5.8724,5.8139,5.697,5.6503,5.6503,5.6503,5.6503,5.6503,5.6503,5.6488,5.6485,0.0,0.0,0.0,0.0,0.0,0.0,0.0,0.0,0.0,0.0,2.8864,2.9712,3.0583,3.0637,3.1202,3.2657,3.5137,3.7876,4.0745,4.4459,4.7546,4.9937,5.1709,5.33,5.4608,5.356,5.3637,5.4958,5.387,5.374,5.4555,5.5394,5.5807,5.5816,5.6033,5.6133,5.6046,5.6016,5.5943,5.5885,5.5514,5.4836,5.3909,5.256,5.087,4.9221,4.9067,4.7645,4.5609,4.4397,4.3611,4.3077,4.2462,4.1476,4.0546,4.0793,4.0885,4.1185,4.2232,4.3003,4.3991,4.5924,4.8102,5.0028,5.0721,5.1992,5.3263,5.415,5.4998,5.6194,5.8124,5.8758,5.9409,6.0738,6.1873,6.2618,6.2687,6.2687,6.2454,6.1847,6.2094,6.2108,6.146,6.1681,6.2264,6.334,6.382,6.4558,6.5695,6.6346,6.6669,6.6712,6.6702,6.6702,6.6712,6.6478,6.5699,6.4452,6.3984,6.2961,6.15,6.1325,6.0906,6.0243,5.9386,5.849,5.7633,5.6814,5.6503,5.6503,5.6503,5.6503,5.6503,5.6503,5.6488,5.6485,0.0,0.0,0.0,0.0,0.0,0.0,0.0,0.0,0.0,0.0,0.0,0.0,3.0583,3.0637,3.0978,3.187,3.4274,3.6464,3.8214,4.2388,4.553,4.7248,4.9057,5.119,5.3676,5.2046,5.2395,5.4893,5.3183,5.2768,5.3674,5.4483,5.4839,5.4878,5.5642,5.6012,5.6012,5.5998,5.5943,5.5808,5.4898,5.401,5.2951,5.0308,4.7856,4.597,4.7548,4.6009,4.3201,4.3162,4.2014,4.0614,4.0654,4.0577,4.0662,4.1501,4.1786,4.1701,4.0882,4.2472,4.4983,4.7486,4.9393,5.1318,5.378,5.4972,5.5818,5.6725,5.7636,5.8335,5.8472,5.9314,5.9979,6.0018,6.1485,6.2603,6.2603,6.2603,6.2618,6.2663,6.1952,6.1421,0.0,6.2157,6.3376,6.5089,6.4478,6.4778,6.6552,6.6607,6.662,6.6712,6.6691,6.6691,6.6712,6.5855,6.5426,6.5348,6.3711,6.2465,6.1568,6.0711,6.0321,6.0243,5.9386,5.849,5.7633,5.6814,5.6503,5.6503,5.6503,5.6503,5.6503,5.6503,5.6488,5.6368,0.0,0.0,0.0,0.0,0.0,0.0,0.0,0.0,0.0,0.0,0.0,0.0,0.0,0.0,0.0,0.0,3.4235,3.6435,3.8169,4.2299,4.5231,4.6344,4.8654,5.0297,5.1088,5.1114,5.1528,5.2369,5.2327,5.2143,5.1925,5.332,5.3654,5.3104,5.4026,5.4707,5.52,5.5112,5.5056,5.4959,5.4545,5.3152,5.1305,5.0971,4.8294,4.4747,0.0,4.3398,4.0469,3.9861,3.93,3.8869,3.8869,3.8513,3.8411,4.0414,4.1855,4.3181,4.506,4.6677,4.8526,5.1607,5.3223,5.4395,5.5818,5.6357,5.6472,5.6203,5.5979,5.6059,5.6657,5.7098,5.7727,5.8922,6.1031,6.2732,6.3363,6.3961,6.3938,6.2818,6.3415,6.3493,6.2352,0.0,0.0,6.4323,6.4195,6.4805,6.653,6.6114,6.6061,6.668,6.5589,6.5239,6.5823,6.4977,6.4237,6.3652,6.2523,6.1822,6.1568,6.0692,5.9981,5.9406,5.852,5.7624,5.6835,5.658,5.6503,5.6503,5.6503,5.6503,5.6503,5.6503,5.648,5.6386,0.0,0.0,0.0,0.0,0.0,0.0,0.0,0.0,0.0,0.0,0.0,0.0,0.0,0.0,0.0,0.0,0.0,3.5088,3.6823,4.01,4.2787,4.4544,4.5936,4.724,4.8421,4.8099,4.8502,4.9705,4.991,5.0037,5.01,5.1523,5.1896,5.137,5.2554,5.3391,5.3846,5.3742,5.3687,5.3533,5.2466,5.0883,4.9022,4.8367,4.5744,0.0,4.2061,4.023,3.7892,3.7578,3.73,3.7151,3.7483,3.8243,3.9311,4.0646,4.2896,4.5517,4.7912,4.9701,5.153,5.4262,5.578,5.6703,5.6934,5.7242,5.7126,5.5934,5.5093,5.4786,5.5345,5.5049,5.5465,5.786,6.0106,6.2116,6.3657,6.4605,6.4776,6.3697,6.4294,6.4333,6.326,6.2407,0.0,6.4294,6.4454,6.4986,6.6075,6.5648,6.5633,6.6213,6.4849,6.4527,6.5384,6.4265,6.3097,6.1879,6.1344,6.0926,6.0604,5.9776,5.9036,5.8481,5.7926,5.7225,5.6398,5.6455,5.6503,5.6503,5.6503,5.6503,5.6464,5.6152,5.6051,5.5911,0.0,0.0,0.0,0.0,0.0,0.0,0.0,0.0,0.0,0.0,0.0,0.0,0.0,0.0,0.0,0.0,0.0,0.0,3.4351,3.6154,3.8569,4.1768,4.1267,4.2422,4.5686,4.3402,4.3796,4.703,4.6215,4.6681,4.8275,4.9132,4.9504,4.9591,5.1177,5.1912,5.1989,5.1906,5.1815,5.1604,4.8952,4.7319,4.6167,4.2909,4.0628,3.9007,3.8239,3.6887,3.5584,3.6469,3.6315,3.593,3.6856,3.9937,4.3096,4.2364,4.5098,4.8564,4.9452,5.1549,5.3879,5.5493,5.7126,5.8088,5.7242,5.7627,5.7665,5.5934,5.4901,5.4323,5.4378,5.3188,5.3329,5.6659,5.8751,6.0859,6.343,6.4593,6.517,6.5211,6.4566,6.4114,6.4078,6.3301,0.0,6.5032,0.0,6.5114,6.5219,6.5194,6.5219,6.5338,6.446,6.441,6.5267,6.3652,6.1987,6.0292,6.0312,5.9796,5.8888,5.8052,5.7663,5.7592,5.7624,5.7167,5.6388,5.6455,5.6503,5.6503,5.6503,5.6503,5.6386,5.5567,5.5264,5.5124,0.0,0.0,0.0,0.0,0.0,0.0,0.0,0.0,0.0,0.0,0.0,0.0,0.0,0.0,0.0,0.0,0.0,0.0,3.3477,3.6348,3.8365,3.9238,4.0306,4.1325,4.2198,4.2188,4.2904,4.4381,4.4807,4.5519,4.6538,4.6771,4.6836,4.6806,4.7298,4.8188,4.932,4.8607,4.8287,4.8099,4.6703,4.4844,4.2909,4.2679,4.0781,3.8284,3.8722,3.7002,3.4853,3.6969,3.8407,3.9552,4.1084,4.3181,4.5247,4.6254,4.868,5.1337,5.28,5.4608,5.6456,5.8127,5.8396,5.8242,5.8011,5.7126,5.5917,5.4244,5.2261,5.0619,5.0052,5.0642,5.1966,5.4133,5.8041,6.1521,6.3546,6.5097,6.5829,6.525,6.5576,6.5615,6.4969,6.4697,0.0,0.0,6.3755,6.3702,6.4286,6.3741,6.3737,6.4421,6.2947,6.2597,6.3437,6.2396,6.1315,6.0312,6.0282,5.9835,5.8948,5.8101,5.7653,5.757,5.697,5.6591,5.6407,5.6427,5.6455,5.6503,5.6446,5.6437,5.6398,5.6184,5.6076,5.5978,0.0,0.0,0.0,0.0,0.0,0.0,0.0,0.0,0.0,0.0,0.0,0.0,0.0,0.0,0.0,0.0,0.0,0.0,0.0,3.4778,3.6377,3.7133,3.7743,3.8451,3.9209,3.8976,3.9588,4.1147,4.1302,4.1939,4.3105,4.309,4.3272,4.3634,4.3995,4.5156,4.6636,4.531,4.4954,0.0,0.0,4.1796,4.0478,4.0227,3.8925,3.7386,3.7916,3.7617,3.7353,3.9892,4.1678,4.3041,4.4405,4.6232,4.8214,4.9894,5.1953,5.3956,5.5263,5.6819,5.8319,5.9281,5.9165,5.855,5.7396,5.6126,5.4377,5.1645,4.9658,4.815,4.7349,4.8323,5.0055,5.2531,5.6592,6.0324,6.2853,6.4692,6.5756,6.5724,6.5856,6.5755,6.528,6.4527,6.3906,0.0,6.3366,6.3339,6.3417,6.304,6.3036,6.3514,6.2196,6.1534,6.1673,6.1885,6.1028,5.9104,5.9503,5.9026,5.7815,5.732,5.7075,5.699,0.0,5.6364,5.6375,5.6397,5.6417,5.6437,5.6388,5.6388,5.6378,5.5989,5.5833,5.5716,0.0,0.0,0.0,0.0,0.0,0.0,0.0,0.0,0.0,0.0,0.0,0.0,0.0,0.0,0.0,0.0,0.0,0.0,0.0,0.0,3.3934,3.5631,3.4939,3.5197,3.6712,3.5391,3.5771,3.7957,3.7384,3.7822,3.9165,3.9165,3.958,4.0307,4.1016,4.2292,4.3813,4.2092,4.1846,4.2309,3.9922,3.8898,3.8613,0.0,3.6703,3.6773,3.6857,3.8516,4.1046,4.3624,4.5201,4.6278,4.7394,4.9432,5.1664,5.3261,5.486,5.6305,5.711,5.8473,5.9627,5.9511,5.9319,5.855,5.6088,5.4664,5.2723,4.8834,4.7229,4.6259,4.5457,4.6197,4.8043,5.1486,5.5006,5.8505,6.1986,6.3863,6.5178,6.6118,6.5513,6.5118,6.5256,6.3726,6.2716,6.2704,6.3301,6.334,6.2562,6.26,6.2624,6.2608,6.1885,6.1134,6.0394,6.181,6.0968,5.7947,5.871,5.8142,5.6498,5.6601,5.6523,5.6291,5.6562,0.0,5.6457,5.6531,5.6581,5.6542,5.6407,5.6407,5.6308,5.5609,5.5288,5.519,0.0,0.0,0.0,0.0,0.0,0.0,0.0,0.0,0.0,0.0,3.2032,3.0691,0.0,0.0,0.0,0.0,0.0,0.0,0.0,0.0,0.0,3.564,3.493,3.4645,3.4939,3.5344,3.5771,3.6237,3.682,3.7229,3.7414,3.7414,3.7461,3.7599,3.7704,3.8735,4.0217,3.9212,3.8838,3.8926,3.8407,3.7717,3.7079,3.7494,0.0,0.0,3.7686,3.933,4.1882,4.4509,4.6855,4.9125,5.1395,5.3356,5.5032,5.6049,5.7049,5.8011,5.8858,5.9781,6.0396,5.9665,5.8473,5.6973,5.5126,5.2395,4.9682,4.7563,4.5379,4.3597,4.2792,4.4496,4.7139,5.0587,5.4585,5.8488,6.191,6.3341,6.4364,6.5303,6.466,6.4388,6.5141,6.3697,6.2687,0.0,6.2147,6.1784,6.1629,6.1705,6.1705,6.1654,6.1534,6.1429,6.1289,6.155,6.1044,5.976,5.9888,5.9048,5.7417,5.8129,5.7651,5.6369,5.7768,0.0,5.7391,5.7391,5.7375,5.732,5.6597,5.6314,5.6314,5.6173,5.6158,5.6153,0.0,0.0,0.0,0.0,0.0,0.0,0.0,3.2478,3.3512,3.5671,3.4828,3.3524,3.2201,3.165,3.1015,0.0,0.0,0.0,0.0,0.0,0.0,3.4362,3.4456,3.4714,3.5163,3.4697,3.4659,3.5103,0.0,3.4399,3.4371,3.4788,3.5194,3.5626,3.6041,3.7189,3.8684,3.7321,3.7257,3.8053,3.7493,3.7264,3.7309,3.7677,0.0,0.0,3.8415,3.9906,4.2036,4.4184,4.7201,5.0587,5.3587,5.507,5.6092,5.7802,5.8303,5.8594,5.9819,6.0473,6.0589,5.9704,5.8242,5.6203,5.3203,5.024,4.7258,4.4229,4.2333,4.1142,4.0771,4.2769,4.5336,4.7859,5.1122,5.4697,5.8526,5.986,6.125,6.3546,6.343,6.3313,6.3735,6.268,6.1958,6.1943,6.1589,6.1396,6.1396,6.1056,6.081,6.0708,6.0822,6.0834,6.0773,6.1214,6.0786,5.949,5.9918,5.9478,5.826,5.8649,5.8402,5.7651,5.8467,0.0,5.8182,5.7755,5.7612,5.7507,5.6652,5.629,5.6278,5.6341,5.6341,5.6353,0.0,0.0,0.0,0.0,0.0,0.0,0.0,3.3838,3.5059,3.7657,3.7972,3.7024,3.4659,3.3446,3.2227,0.0,0.0,0.0,0.0,0.0,0.0,0.0,0.0,0.0,3.5503,0.0,0.0,3.4766,3.3373,0.0,0.0,0.0,0.0,0.0,3.4792,3.6018,3.7537,3.6125,3.6395,0.0,0.0,3.7402,3.8175,0.0,0.0,0.0,0.0,4.0329,4.1767,4.3876,4.6817,5.0202,5.3549,5.5168,5.6151,5.811,5.8517,5.8633,6.0111,6.0666,6.055,5.9511,5.7973,5.5626,5.1356,4.8317,4.5257,4.1393,3.9802,3.9174,3.9444,4.1274,4.344,4.5476,4.799,5.1083,5.5144,5.6613,5.8488,6.1849,6.1888,6.1905,6.2444,6.1601,6.1112,6.1306,6.1356,6.1396,6.1396,6.0861,6.0499,6.0384,6.0499,6.0511,6.0384,6.1072,6.0722,5.936,6.006,5.9904,5.9088,5.9088,5.8894,5.8545,5.8933,0.0,0.0,5.804,5.7768,5.7509,5.664,5.6317,5.6304,5.6353,5.6353,5.6329,0.0,0.0,0.0,0.0,0.0,0.0,0.0,3.5364,3.7753,4.0322,4.0665,3.9949,3.8136,3.6448,3.4179,0.0,0.0,0.0,0.0,0.0,0.0,0.0,0.0,0.0,0.0,0.0,0.0,3.5592,3.5437,0.0,0.0,0.0,0.0,0.0,0.0,3.4279,3.5816,3.5647,0.0,0.0,0.0,0.0,0.0,0.0,0.0,0.0,0.0,4.0482,4.1113,4.4376,4.574,4.6663,5.0087,5.3241,5.5763,5.6074,5.717,5.8473,5.9396,6.0204,6.0435,5.8819,5.7088,5.4703,5.0471,4.6932,4.3794,4.1147,3.9326,3.844,3.9251,4.0294,4.2073,4.5278,4.7944,5.0841,5.4318,5.6173,5.8237,6.0997,5.999,5.9951,6.2293,6.1048,6.046,6.1236,6.1381,0.0,6.1396,6.1331,6.1279,6.1279,6.1355,6.1355,6.1279,6.1357,6.1344,6.1147,6.1225,6.0837,5.9982,5.9982,5.9166,5.7806,5.9322,0.0,0.0,5.8428,5.8273,5.7496,5.6641,5.6291,5.6291,5.6304,5.6341,5.6386,0.0,0.0,0.0,0.0,0.0,0.0,3.297,3.4276,3.6201,3.9753,4.0229,3.9941,3.9271,3.8546,3.6556,3.2601,0.0,0.0,0.0,0.0,0.0,0.0,0.0,0.0,0.0,0.0,3.4865,3.5689,3.5165,0.0,0.0,0.0,0.0,0.0,0.0,3.5465,3.5611,3.5572,0.0,0.0,0.0,0.0,0.0,0.0,0.0,0.0,0.0,0.0,4.1382,4.2223,4.3547,4.4987,4.5851,4.8431,5.1625,5.4262,5.5493,5.6511,5.8858,5.9742,5.9742,5.8588,5.6973,5.4472,4.9702,4.6009,4.2871,4.0323,3.8092,3.7167,3.9058,3.8865,3.9728,4.3617,4.4235,4.5602,4.956,5.1609,5.3636,5.6278,5.7787,5.9258,6.0807,6.0803,6.0893,6.1252,6.1366,0.0,6.1396,6.0942,6.0682,6.0696,6.0744,6.0989,6.146,6.146,6.1447,6.1408,6.1394,6.1225,6.0875,6.0332,5.9749,5.9088,5.9244,0.0,0.0,5.8156,5.7884,5.7496,5.6641,5.6291,5.6291,5.6291,5.6329,5.6364,0.0,0.0,0.0,0.0,0.0,3.0292,3.231,3.3496,3.5382,3.8903,3.9536,3.9699,3.9699,3.9255,3.7692,3.4676,3.3907,0.0,0.0,0.0,0.0,0.0,0.0,0.0,0.0,0.0,3.4951,3.6046,3.5444,3.5599,0.0,0.0,3.6234,3.5643,0.0,0.0,0.0,0.0,0.0,0.0,0.0,0.0,0.0,0.0,0.0,0.0,0.0,0.0,0.0,0.0,0.0,4.3525,4.3188,4.4696,4.7471,5.1761,5.3723,5.5049,5.7665,5.8742,5.8896,5.7819,5.6242,5.3703,4.8856,4.5355,4.2371,3.9822,3.75,3.6563,3.8659,3.7823,3.8003,4.1517,4.171,4.2767,4.6544,4.8787,5.1006,5.3558,5.578,5.7731,5.9339,6.0553,6.1242,6.1306,6.1352,0.0,6.1421,6.0864,6.0565,6.0592,6.0639,6.0923,6.1484,6.1484,6.1472,6.1396,6.1175,6.1045,6.1006,5.9879,5.9374,5.9335,5.87,0.0,0.0,5.7729,5.7457,5.7146,5.6524,5.6291,5.633,5.6576,5.6523,5.6364,0.0,0.0,0.0,0.0,0.0,0.0,3.0713,3.3687,3.6501,3.8273,3.9194,3.9715,3.9691,3.8175,3.7125,3.7061,3.5491,0.0,0.0,0.0,0.0,0.0,0.0,0.0,0.0,0.0,3.5222,3.6903,3.6864,3.7301,3.8136,3.6488,3.5725,3.5669,0.0,0.0,0.0,0.0,0.0,0.0,0.0,0.0,0.0,0.0,0.0,0.0,0.0,0.0,0.0,0.0,0.0,0.0,0.0,4.3118,4.3987,4.8295,5.1896,5.4664,5.5511,5.7011,5.7896,5.6165,5.4472,5.2125,4.7894,4.4932,4.2371,3.9822,3.7949,3.7076,3.7964,3.7385,3.7385,3.916,4.1514,4.406,4.6645,4.9241,5.1807,5.4375,5.4017,5.4901,5.8255,6.024,6.1297,6.1297,6.1376,0.0,6.1419,6.1383,6.1408,6.1484,6.1484,6.1484,6.1484,6.1484,6.1472,6.1396,6.0579,6.0229,6.0151,5.8441,5.7624,5.7612,0.0,0.0,0.0,5.7263,5.7068,5.6291,5.6291,5.6291,5.6408,5.7262,5.7064,5.6513,0.0,0.0,0.0,0.0,0.0,0.0,0.0,3.0849,3.2781,3.6267,3.5898,3.5995,3.7716,3.6425,3.5368,3.5313,3.5318,0.0,0.0,0.0,0.0,0.0,0.0,0.0,0.0,3.5852,3.6704,3.7793,3.8977,3.9983,4.0784,4.023,3.9366,3.8194,3.7332,3.6458,0.0,0.0,0.0,0.0,0.0,0.0,0.0,0.0,0.0,0.0,0.0,0.0,0.0,0.0,0.0,0.0,0.0,0.0,0.0,4.3866,4.7045,5.0548,5.2627,5.3531,5.3664,5.2549,5.1433,4.9625,4.597,4.4085,4.2508,4.0523,3.8358,3.7242,3.8667,3.7255,3.7244,4.1277,4.2125,4.3412,4.6568,4.9191,5.1138,5.1949,5.4396,5.6691,5.841,0.0,6.0373,6.0406,0.0,0.0,6.1408,6.1396,6.1396,6.1408,6.1495,6.1518,6.1518,6.1518,6.1195,6.0639,6.0344,5.9877,5.9281,5.8129,5.7624,0.0,0.0,0.0,0.0,5.6848,5.6887,5.7145,5.6523,5.6679,5.7223,5.7492,5.7486,5.7313,0.0,0.0,0.0,0.0,0.0,0.0,0.0,2.9874,3.1309,3.3662,3.3574,3.39,3.55,3.5033,3.4552,3.4528,3.5271,0.0,0.0,0.0,0.0,0.0,0.0,0.0,3.4698,3.5891,3.6897,3.7715,3.9453,4.1067,4.2473,4.2164,4.1261,3.9895,3.8723,3.7423,0.0,0.0,0.0,0.0,0.0,0.0,4.0015,0.0,0.0,0.0,0.0,0.0,0.0,0.0,0.0,0.0,0.0,0.0,0.0,0.0,4.3404,4.6778,4.9393,5.026,5.0279,4.9471,4.8625,4.724,4.447,4.3201,4.22,4.0777,3.9022,3.7959,3.8661,3.7497,3.7473,4.0669,4.1555,4.2957,4.6056,4.8694,5.0657,5.1696,5.5341,5.7851,0.0,5.9508,6.0433,6.0483,0.0,0.0,6.1408,6.1396,6.1447,6.1408,6.1456,6.1489,6.1489,6.1489,6.11,6.0321,5.9911,5.9277,5.8421,5.7553,5.7142,0.0,0.0,0.0,0.0,5.6574,5.6652,5.7103,5.6558,5.6664,5.7169,5.7515,5.7458,5.7274,0.0,0.0,0.0,0.0,0.0,0.0,0.0,3.0338,3.1573,3.0886,3.2166,3.3128,3.3135,3.3828,3.4319,3.4318,0.0,0.0,0.0,0.0,0.0,0.0,0.0,0.0,3.3102,3.4923,3.6239,3.698,3.8911,4.1105,4.3479,4.2705,4.1816,4.081,3.9122,3.7861,0.0,0.0,0.0,0.0,4.02,4.0008,0.0,0.0,0.0,0.0,0.0,0.0,0.0,0.0,0.0,0.0,0.0,0.0,0.0,0.0,0.0,0.0,0.0,4.7048,4.7548,4.674,4.5932,4.4893,4.3278,4.2316,0.0,4.0585,3.97,3.8892,3.8123,3.7969,3.8007,3.8238,4.0346,4.2864,4.5334,4.8043,5.0752,5.3426,5.6613,0.0,5.7533,5.9663,6.1131,6.122,0.0,0.0,6.1405,6.1447,6.1447,6.1381,6.1484,6.1489,6.1489,6.145,6.1022,6.0204,5.9309,5.8452,5.7595,5.6777,5.6417,0.0,0.0,5.6414,0.0,5.6414,5.6425,5.6513,5.6425,5.6414,5.6508,5.738,5.7196,5.6602,0.0,0.0,0.0,0.0,0.0,0.0,0.0,0.0,0.0,0.0,3.1115,3.1326,3.1307,3.1488,3.1856,0.0,0.0,0.0,0.0,0.0,0.0,0.0,0.0,0.0,3.3102,3.6123,3.7749,3.7909,4.1582,4.4021,4.522,4.5684,4.4407,4.1661,4.0655,3.9303,0.0,0.0,0.0,0.0,4.0438,4.0015,0.0,0.0,0.0,0.0,3.8007,3.8546,0.0,0.0,0.0,0.0,0.0,0.0,0.0,0.0,3.8786,3.9461,4.0668,0.0,4.4085,4.3167,4.2799,4.2415,0.0,4.096,4.0575,3.9707,3.8347,3.7425,3.7847,3.7416,3.7853,4.0469,4.197,4.3717,4.624,4.9913,5.3301,5.5943,5.7525,5.8394,5.8239,5.9455,6.0226,0.0,0.0,6.1291,6.1337,6.1408,6.1396,6.1383,6.1456,6.1479,6.1495,6.0895,6.0137,5.9299,5.8403,5.7585,5.6766,5.6514,5.6388,0.0,5.6397,5.6786,5.7302,5.6669,5.6796,5.7313,5.6669,5.6786,5.7391,5.7634,5.7566,5.7429,0.0,0.0,0.0,0.0,0.0,0.0,0.0,0.0,0.0,0.0,0.0,3.0412,2.9583,3.0535,0.0,0.0,0.0,0.0,0.0,0.0,0.0,0.0,0.0,3.379,3.3692,3.6327,3.807,3.8798,4.1931,4.4241,4.58,4.6264,4.5104,4.2512,4.0926,3.9419,0.0,0.0,0.0,0.0,4.0338,0.0,0.0,0.0,0.0,0.0,3.6853,3.7661,0.0,4.0108,4.0745,4.0915,0.0,0.0,0.0,0.0,3.7409,3.7892,3.754,3.9631,4.1876,4.1728,4.1711,4.1519,4.0674,4.0159,3.9605,3.8777,3.7871,3.7371,3.7832,3.7901,3.8623,4.0854,4.2277,4.4393,4.8125,5.1953,5.4898,5.6326,5.7659,5.8298,0.0,5.874,5.9473,0.0,0.0,6.0887,6.1283,6.1356,6.1383,6.1408,6.1071,6.1106,6.1507,6.0711,5.9883,5.8996,5.81,5.7282,5.6503,5.6455,5.6446,5.6388,5.6427,5.67,5.705,5.6622,5.6709,5.7108,5.6631,5.6729,5.7118,5.7089,5.7089,5.7099,0.0,0.0,0.0,0.0,0.0,0.0,0.0,0.0,0.0,0.0,0.0,0.0,0.0,0.0,0.0,0.0,0.0,0.0,0.0,0.0,0.0,0.0,3.4139,3.3694,3.4409,3.6221,3.7926,3.9507,4.1647,4.3815,4.5993,4.6264,4.5297,4.3208,4.0771,3.9187,0.0,0.0,0.0,0.0,4.0239,0.0,0.0,0.0,0.0,0.0,0.0,0.0,0.0,3.9769,4.0828,4.1366,4.0569,0.0,0.0,0.0,0.0,0.0,3.6027,3.8001,4.0438,4.0982,4.1409,4.1506,4.0658,3.9758,3.8882,3.8038,3.7878,3.7894,3.7909,3.8862,3.9892,4.0585,4.2393,4.5393,5.0394,5.3666,5.5748,5.6133,5.7545,0.0,5.7641,5.8199,0.0,0.0,0.0,6.0111,6.0841,6.0953,6.0981,6.0992,6.0372,6.0371,6.1089,6.0302,5.9533,5.8802,5.7944,5.7165,5.6503,5.6503,5.6455,5.6437,0.0,0.0,5.6437,5.6455,5.6503,5.6503,5.6494,5.6427,5.6407,5.6417,5.6417,5.6407,0.0,0.0,0.0,0.0,0.0,0.0,0.0,0.0,0.0,0.0,0.0,0.0,0.0,0.0,0.0,0.0,0.0,0.0,0.0,0.0,0.0,3.4555,3.4362,3.4284,3.4497,3.6802,3.8496,3.9491,4.3428,4.5852,4.6922,4.8392,4.7038,4.3208,4.1364,4.005,3.9262,4.0082,0.0,4.0315,4.0431,0.0,0.0,0.0,0.0,0.0,0.0,0.0,0.0,3.9077,3.9961,4.0546,3.9738,0.0,0.0,0.0,0.0,0.0,3.6757,3.8367,3.9188,3.8629,4.0104,4.1447,4.0624,3.9725,3.8865,3.7989,3.7836,3.7814,3.7901,3.9775,4.1399,4.1569,4.4239,4.7855,5.2202,5.3895,5.5514,5.7674,0.0,5.8664,5.9341,5.8934,5.8642,0.0,0.0,5.8971,5.9103,5.9177,5.9205,5.9205,5.9128,5.9153,5.932,5.8448,5.7964,5.7878,5.7078,5.6619,5.6503,5.6446,5.6446,5.6464,0.0,5.6446,5.6503,5.6446,5.6446,5.6503,5.6397,5.6407,5.6494,5.6407,5.6427,5.6494,0.0,0.0,0.0,0.0,0.0,0.0,0.0,0.0,0.0,0.0,0.0,0.0,0.0,0.0,0.0,0.0,0.0,0.0,0.0,0.0,3.4884,3.5725,3.5775,3.5591,3.5165,3.7655,3.9813,4.157,4.4459,4.6535,4.7773,4.7231,4.5631,4.3181,4.148,4.0501,4.0113,4.0458,4.0583,4.0539,0.0,0.0,0.0,0.0,0.0,0.0,0.0,0.0,0.0,0.0,3.9375,4.029,3.9468,0.0,0.0,0.0,0.0,0.0,3.5576,3.7015,3.8163,3.7392,3.9768,4.1933,4.0649,3.9674,3.8797,3.7938,3.7764,3.7934,3.8465,3.9879,4.1771,4.411,4.7703,5.0891,5.2871,5.4276,5.5698,0.0,0.0,5.7409,5.8298,5.7678,5.7404,0.0,0.0,0.0,5.8661,5.8775,5.8817,5.8817,5.8402,5.8182,5.8182,5.7325,5.7164,5.7712,5.7284,5.6855,5.6446,5.6904,5.6855,5.6427,0.0,5.6427,5.6427,5.6417,5.6417,5.6427,5.6358,5.6407,5.6427,5.6417,5.6427,5.6446,0.0,0.0,0.0,0.0,0.0,0.0,0.0,0.0,0.0,0.0,0.0,0.0,0.0,0.0,0.0,0.0,0.0,0.0,0.0,3.5234,3.5873,3.6284,3.6732,3.6975,3.6914,3.8855,4.1102,4.3608,4.5065,4.6573,4.8043,4.5916,4.4316,4.3167,4.1725,4.0952,4.072,4.064,4.0612,4.0607,0.0,0.0,0.0,0.0,0.0,0.0,0.0,0.0,0.0,0.0,0.0,0.0,0.0,0.0,0.0,3.714,3.6128,3.5484,3.4764,3.5971,3.733,3.6927,3.9411,4.1705,4.0786,3.9927,3.9182,3.8649,3.8762,3.9103,3.9562,4.0725,4.3023,4.7511,5.0751,5.2938,5.3574,5.4786,5.5922,5.6829,5.6498,5.6483,5.7139,5.6655,5.6497,5.6961,0.0,0.0,5.8064,5.8139,5.8181,5.8181,5.7612,5.7301,5.7301,5.6628,5.6675,5.738,5.7331,5.7019,5.6417,5.7069,5.703,5.6397,5.6368,5.6407,5.6397,5.6386,5.6386,5.6386,5.6368,5.6407,5.6407,5.6427,5.6437,5.6446,0.0,0.0,0.0,0.0,0.0,0.0,0.0,0.0,0.0,0.0,0.0,0.0,0.0,0.0,0.0,0.0,0.0,0.0,0.0,3.5204,3.5349,3.4631,3.6123,3.807,4.0382,4.0626,4.1981,4.4486,4.5388,4.6264,4.7154,4.6225,4.491,4.3247,4.2318,4.1455,4.072,4.064,4.0612,4.0592,4.0515,0.0,0.0,0.0,0.0,0.0,0.0,0.0,0.0,0.0,0.0,0.0,0.0,0.0,3.6849,3.6572,3.4871,3.3555,3.5637,3.6417,3.674,3.7394,3.8458,3.9733,4.1187,4.0843,4.0386,4.1016,4.1838,4.2221,4.1457,4.3369,4.6704,5.1727,5.2187,5.2686,5.4986,0.0,5.5945,5.6896,5.7079,5.7139,5.7178,5.7196,5.6923,5.6134,5.6145,5.6233,5.6272,5.635,5.6393,5.6393,5.6395,5.6369,5.6369,5.633,5.6317,5.6391,5.6453,5.6464,5.6386,5.6403,5.6414,5.6388,5.6336,5.6347,5.6388,5.6336,5.6325,5.6386,5.6325,5.6347,5.6388,5.6455,5.6503,5.6503,0.0,0.0,0.0,0.0,0.0,0.0,0.0,0.0,0.0,0.0,0.0,3.0903,3.2622,0.0,0.0,0.0,0.0,0.0,0.0,3.471,3.4951,3.5129,3.6803,3.8206,3.9173,4.0796,4.2589,4.4614,4.6496,4.7294,4.7086,4.5708,4.4418,4.3178,4.1815,4.1312,4.1492,4.0844,4.0906,4.1369,4.0754,3.9508,0.0,0.0,0.0,0.0,0.0,0.0,0.0,0.0,3.6849,3.7539,3.7539,3.7447,3.7223,3.6676,3.5436,3.435,3.4759,3.5272,3.5844,3.6595,3.7908,3.9395,4.1035,4.1569,4.212,4.3412,4.4026,4.4357,4.4569,4.5872,4.8077,5.1689,5.2809,5.3743,5.527,5.5499,5.583,5.6744,5.6554,5.6559,5.7099,5.6752,5.6343,5.6018,5.6068,5.6117,5.6117,5.6164,5.6209,5.6209,5.6199,5.6226,5.6226,5.6278,5.6304,5.6317,5.6873,5.6897,5.6425,5.6897,5.6819,5.6336,5.6314,5.6302,5.6353,5.6329,5.6317,5.6329,5.6364,5.6407,5.6455,5.6446,5.6455,5.6503,0.0,0.0,0.0,0.0,0.0,0.0,0.0,0.0,2.9608,0.0,0.0,0.0,0.0,3.2881,0.0,0.0,0.0,0.0,3.3644,3.3858,3.436,3.5206,3.6624,3.7513,3.7783,4.0346,4.2499,4.4175,4.6457,4.6984,4.5873,4.4742,4.3838,4.3163,4.1724,4.1428,4.1942,4.0998,4.0959,4.1437,4.077,3.9662,0.0,0.0,0.0,0.0,0.0,0.0,0.0,0.0,3.5898,3.6243,3.6834,3.6977,3.685,3.626,3.567,3.4988,3.4116,3.4514,3.5353,3.6102,3.7566,3.9411,4.1575,4.2319,4.3216,4.5399,4.5483,4.549,4.6647,4.7166,4.8411,0.0,5.303,5.409,5.5298,5.5427,5.5643,5.6304,5.6236,5.6305,5.6609,5.6464,5.6268,5.6,5.6033,5.6062,5.6062,5.5862,5.5777,5.5777,5.5768,5.568,5.537,5.5708,5.5735,5.5502,5.6369,5.6628,5.6403,5.6951,5.6873,5.6302,5.629,5.6278,5.6304,5.6291,5.6304,5.6317,5.6364,5.6407,5.6455,5.6437,5.6446,5.6503,0.0,0.0,0.0,0.0,0.0,0.0,0.0,0.0,2.9796,3.0706,3.072,0.0,0.0,0.0,0.0,0.0,0.0,0.0,3.1912,3.2668,3.347,3.435,3.5179,3.6006,3.6856,3.9444,4.1583,4.3285,4.4949,4.491,4.3285,4.3285,4.3258,4.3153,4.2383,4.2021,4.1956,4.0988,4.0588,4.0626,4.0531,4.0015,3.92,0.0,0.0,0.0,0.0,0.0,0.0,0.0,3.5949,3.5496,3.7228,3.6566,3.5217,3.5174,3.5124,3.4902,3.4027,3.4407,3.5265,3.6046,3.7485,3.9608,4.2943,4.3149,4.3558,4.6833,4.6187,4.5589,4.7381,4.706,4.7907,5.2117,5.2805,5.3416,5.5135,5.5415,5.5389,5.5389,5.6322,5.6604,5.5692,5.6559,5.6811,5.5982,5.5959,5.6012,5.6012,5.5233,5.48,5.48,5.4846,5.4474,5.3596,5.4477,5.4491,5.3715,5.4569,5.5437,5.6291,5.6291,5.6317,5.6302,5.6304,5.6317,5.6302,5.6304,5.6317,5.6302,5.6302,5.6347,5.6388,5.6388,5.6446,5.6503,0.0,0.0,0.0,0.0,0.0,0.0,0.0,0.0,2.9803,3.0706,3.0258,0.0,0.0,0.0,0.0,0.0,0.0,0.0,3.1777,3.2039,3.256,3.3439,3.4824,3.5442,3.5079,3.7023,3.9779,4.3285,4.3761,4.3722,4.3285,4.3285,4.2949,4.2381,4.2704,4.2497,4.1914,4.1639,4.1508,4.147,4.0754,3.9992,3.9146,0.0,0.0,0.0,0.0,0.0,0.0,0.0,0.0,0.0,3.4939,3.5136,3.5009,3.442,3.4196,3.3971,3.3066,3.3501,3.4641,3.6556,3.8753,4.1313,4.4687,4.4751,4.5029,4.8503,4.8313,4.7947,4.9224,4.8815,4.909,5.1629,5.2447,5.3402,5.5148,5.5415,5.5415,5.5427,5.5738,5.5907,5.5615,5.6018,5.6194,5.5943,5.5961,5.5745,5.52,5.4946,5.452,5.3901,5.3948,5.3863,5.3591,5.392,5.3948,5.3715,5.3948,5.4556,5.5396,5.6032,5.6317,5.6302,5.6304,5.6304,5.6304,5.6291,5.6317,5.6302,5.6302,5.6347,5.6388,5.6347,5.6417,5.6503,0.0,0.0,0.0,0.0,0.0,0.0,3.0794,3.0359,3.0193,3.0745,3.0608,3.0892,0.0,0.0,0.0,3.2615,3.1078,0.0,3.1246,3.1264,3.1834,3.3021,3.4338,3.5109,3.5299,3.6626,3.8621,4.1248,4.1596,4.1751,4.1751,4.2447,4.2665,4.2497,4.3347,4.3217,4.2401,4.2039,4.1701,4.1339,4.0716,4.0008,3.9161,0.0,0.0,0.0,0.0,0.0,0.0,0.0,0.0,0.0,3.3455,3.35,3.3565,3.3396,3.3553,3.3691,3.3468,3.4055,3.5344,3.7743,3.9974,4.247,4.5783,4.6652,4.7106,4.8575,4.8461,4.8515,4.9873,4.9466,4.9719,5.2182,5.2679,5.3328,5.5059,5.5059,5.4842,5.488,5.5246,5.5393,5.5132,5.5224,5.5306,5.5326,5.5132,5.4761,5.4276,5.3945,5.3536,5.2995,5.3027,5.2887,5.2554,5.2947,5.2976,5.2679,5.3029,5.3443,5.4012,5.5242,5.5799,5.5811,5.6149,5.6291,5.6291,5.6291,5.6304,5.629,5.629,5.6314,5.6358,5.6314,5.6358,5.6446,0.0,0.0,3.0897,3.0882,0.0,0.0,3.0791,3.0785,3.081,3.0784,3.1421,3.1864,0.0,0.0,0.0,3.1676,3.0225,2.9648,3.0443,3.049,3.129,3.3026,3.3966,3.5188,3.6768,3.75,3.7899,3.7964,3.889,3.9405,3.9445,4.1183,4.2367,4.3153,4.4081,4.3974,4.3018,4.2131,4.1268,4.0477,4.0331,3.9815,3.9084,3.82,0.0,0.0,0.0,0.0,0.0,0.0,0.0,0.0,3.2546,3.2003,3.1537,3.226,3.3045,3.3828,3.4586,3.5419,3.6687,3.9188,4.1254,4.3453,4.644,4.8503,4.9363,4.7813,4.7586,4.8094,4.9694,4.953,5.0126,5.3183,5.3057,5.316,5.4878,5.4383,5.3913,5.3989,5.4689,5.4915,5.4258,5.4254,5.43,5.44,5.3744,5.3335,5.3275,5.2575,5.2144,5.2066,5.2066,5.1734,5.1005,5.178,5.1833,5.1101,5.1917,5.2279,5.2356,5.4181,5.5048,5.5165,5.5942,5.6291,5.6291,5.6291,5.6291,5.6291,5.6291,5.6317,5.6302,5.6302,5.6336,5.6388,0.0,0.0,3.0897,3.0841,0.0,0.0,3.081,3.0806,3.0798,3.0813,3.0909,3.0996,3.0987,3.0925,0.0,2.9907,2.9541,2.9678,3.0511,3.052,3.1543,3.3913,3.5457,3.6394,3.6727,3.6934,3.6741,3.6073,3.7656,3.8788,3.9521,4.1131,4.2044,4.2342,4.3849,4.3651,4.2125,4.1229,4.0367,3.9523,3.8815,3.8416,3.8116,3.73,3.678,0.0,0.0,0.0,0.0,0.0,0.0,0.0,3.1813,3.1879,3.2134,3.1644,3.2502,3.3677,3.3828,3.451,3.6079,3.9792,4.3429,4.6458,4.773,4.8888,4.9588,4.9239,4.9683,5.0081,5.0009,5.0935,5.176,5.1889,5.2296,5.297,5.4116,5.3505,5.2997,5.3072,5.3298,5.3383,5.3299,5.3327,5.3413,5.3552,5.3417,5.305,5.2425,5.2194,5.1841,5.1215,5.1177,5.1115,5.1005,5.1199,5.1228,5.1102,5.1309,5.1399,5.154,5.3922,5.5359,5.6019,5.62,5.6317,5.6291,5.6278,5.6317,5.6291,5.6291,5.6317,5.6302,5.6317,5.6325,5.6388,0.0,0.0,0.0,0.0,0.0,0.0,0.0,0.0,3.0784,3.0808,3.0742,3.0717,3.069,3.028,0.0,0.0,2.9209,2.9416,3.1091,3.109,3.2023,3.4147,3.5509,3.5982,3.5507,3.5971,3.5971,3.5495,3.6421,3.754,3.8852,4.0086,4.1359,4.2623,4.3458,4.3119,4.184,4.0983,3.9837,3.8623,3.8161,3.7723,3.7233,3.6416,3.5797,3.5247,3.4381,0.0,0.0,0.0,0.0,0.0,0.0,0.0,3.1282,3.121,3.2068,3.3186,3.396,3.5093,3.7112,4.1606,4.496,4.7448,4.8604,4.9213,4.9544,4.9634,5.0002,5.0325,5.0402,5.1206,5.1868,5.183,5.1896,5.2254,5.3172,5.2589,5.2107,5.2182,5.26,5.2724,5.2411,5.2401,5.2466,5.2587,5.2262,5.1894,5.1503,5.152,5.1167,5.0364,5.0712,5.0728,5.0385,5.0773,5.1034,5.1089,5.1114,5.1567,5.2445,5.3766,5.5087,5.6291,5.6317,5.6304,5.6291,5.6317,5.6304,5.6291,5.6291,5.6304,5.6317,5.6304,5.6341,5.6407,0.0,0.0,0.0,0.0,0.0,0.0,0.0,0.0,0.0,3.0798,3.0613,3.0516,3.0665,2.9913,2.9652,0.0,0.0,0.0,3.1429,3.1813,3.2682,3.4353,3.5122,3.5315,3.4853,3.5432,3.5637,3.5522,3.5483,3.6369,3.8103,3.8898,4.0622,4.298,4.2934,4.2418,4.1609,4.0583,3.9167,3.7546,3.7392,3.6815,3.5955,3.5301,3.4567,3.3782,3.3039,3.2713,3.2508,3.1737,0.0,0.0,0.0,0.0,3.0089,3.0776,3.1558,3.2487,3.3938,3.5899,3.8591,4.3213,4.5632,4.7287,4.8889,4.934,4.9415,4.9544,4.9717,5.0002,5.0438,5.0865,5.1263,5.1613,5.1263,5.1206,5.1961,5.1521,5.118,5.1294,5.1915,5.2141,5.1522,5.1513,5.1519,5.1582,5.1029,5.072,5.0756,5.0846,5.0494,4.9691,5.0465,5.0496,4.9688,5.054,5.102,5.1114,5.1102,5.1955,5.3494,5.365,5.466,5.6278,5.6291,5.6291,5.6291,5.6291,5.6304,5.6291,5.6291,5.6291,5.6291,5.6291,5.6341,5.6386,0.0,0.0,0.0,0.0,0.0,0.0,0.0,0.0,0.0,0.0,3.005,2.9874,3.063,2.9862,2.9381,2.9544,2.862,2.8797,3.0655,0.0,0.0,3.5238,3.543,3.6122,3.7469,3.692,3.6279,3.5507,3.5509,3.6356,3.8022,3.8907,4.0269,4.2086,4.2071,4.1555,4.06,3.9066,3.7434,3.5776,3.5007,3.4186,3.339,3.33,3.3119,3.2972,3.2819,3.2752,3.2577,3.179,3.1455,0.0,0.0,0.0,2.9931,3.0045,3.058,3.1374,3.2316,3.5286,3.9024,4.257,4.4655,4.624,4.7988,4.8865,4.9358,4.949,5.0084,5.0221,4.9108,5.0014,5.0572,4.9359,4.9635,5.0079,5.0301,5.0252,5.0228,5.0378,5.0479,5.0588,5.067,5.0653,5.0696,5.0836,5.0741,5.0702,5.0701,5.072,5.037,4.9644,5.0471,5.0503,4.9688,5.0511,5.0966,5.1114,5.1139,5.1668,5.2601,5.3353,5.4621,5.6213,5.6278,5.6265,5.6213,5.6278,5.6278,5.6291,5.6291,5.6291,5.6291,5.6291,5.6341,5.6269,0.0,0.0,0.0,0.0,0.0,0.0,0.0,0.0,0.0,0.0,0.0,2.9737,3.0583,2.9901,2.9566,3.0014,2.9253,2.9226,3.0413,3.1163,3.1669,3.1904,3.2378,3.3006,3.3737,3.3404,3.3712,3.4776,3.3827,3.5199,3.867,3.9108,4.0716,4.3195,4.2271,4.1331,4.0369,3.8229,3.6315,3.4634,3.3814,3.3774,3.4079,3.2724,3.2722,3.3278,3.1847,3.1293,3.1196,3.0829,3.0655,3.05,3.0121,0.0,0.0,0.0,3.0019,3.0847,3.3452,3.5874,3.8413,4.1702,4.3737,4.5273,4.6465,4.7304,4.7841,4.7941,4.8234,4.8633,4.901,4.9768,4.9901,4.8692,4.8861,4.9208,4.9197,4.8871,4.8986,4.9949,4.9758,4.9739,5.0268,5.0412,5.0287,4.9872,5.0335,5.0471,5.0046,5.0026,4.9693,4.891,4.9721,4.9792,4.8963,5.0248,5.0952,5.1089,5.1114,5.1605,5.2421,5.2783,5.3922,5.5527,5.5527,5.5799,5.6226,5.5696,5.5825,5.6291,5.6291,5.6291,5.6291,5.6317,5.6353,5.6347,0.0,0.0,0.0,0.0,0.0,0.0,0.0,0.0,0.0,0.0,0.0,2.9714,3.0576,0.0,0.0,0.0,2.9805,2.9419,2.9748,2.9963,2.9748,2.9102,2.9894,3.0367,3.0417,3.0609,3.1545,3.3237,3.2391,3.4364,3.8869,3.9346,4.136,4.453,4.3085,4.17,4.0354,3.8007,3.6017,3.4351,3.3532,3.3813,3.451,3.3081,3.3283,3.4029,3.168,3.0782,3.067,0.0,3.0022,2.9855,2.9661,2.9271,0.0,0.0,0.0,3.0375,3.3807,3.5385,3.6878,4.0087,4.2155,4.3652,4.4728,4.5679,4.6365,4.6396,4.6607,4.7192,4.8565,4.8784,4.8447,4.7532,4.771,4.8056,4.8245,4.7795,4.8023,4.953,4.9251,4.921,4.9868,5.0,4.98,4.9273,4.968,4.9817,4.9489,4.9255,4.8866,4.8298,4.9125,4.9064,4.8067,4.9552,5.0448,5.079,5.0546,5.1037,5.2098,5.2072,5.3029,5.4699,5.484,5.5306,5.5929,5.545,5.5527,5.5981,5.6214,5.6291,5.6291,5.629,5.6325,5.6358,0.0,0.0,0.0,0.0,0.0,0.0,0.0,0.0,0.0,0.0,0.0,2.9644,3.0505,2.9833,2.9641,3.052,2.9748,2.8877,2.8093,2.8747,2.9098,2.9001,2.9845,0.0,3.0393,3.1198,3.1287,3.0609,3.2083,3.4595,3.8009,3.9588,4.2176,4.5417,4.4568,4.2777,4.0392,3.8661,3.6916,3.5273,3.4455,3.3659,3.3105,3.4549,3.5147,3.5002,3.3219,3.2523,0.0,0.0,0.0,0.0,0.0,2.9183,2.9494,0.0,0.0,0.0,3.1629,3.2672,3.4111,3.7355,3.9425,4.1072,4.2847,4.4326,4.5419,4.5536,4.6165,4.6794,4.7005,4.6419,4.5679,4.4987,4.5526,4.6382,4.7235,4.7337,4.7693,4.8732,4.8808,4.8909,4.9114,4.9098,4.9127,4.9296,4.8625,4.8568,4.9356,4.8625,4.8182,4.8197,4.9059,4.8762,4.7187,4.8135,4.9044,4.986,4.902,4.955,5.1268,5.1205,5.2111,5.3805,5.466,5.4984,5.5034,5.589,5.5786,5.5165,5.5981,5.6291,5.6291,5.629,5.6325,5.628,0.0,0.0,0.0,0.0,0.0,0.0,0.0,0.0,0.0,0.0,0.0,0.0,0.0,3.0269,3.0201,3.0441,2.9126,2.8148,2.7873,2.7089,2.6875,2.7355,2.8771,2.9512,2.95,2.9843,3.0136,3.0316,2.9855,3.1917,3.6319,3.8009,4.0044,4.2288,4.2535,4.1822,4.0315,3.7546,3.571,3.4539,3.4301,3.4592,3.5162,3.5247,3.5943,3.6625,0.0,0.0,0.0,0.0,0.0,0.0,0.0,0.0,2.8783,2.8334,2.8368,2.9035,3.1162,3.1987,3.2776,3.5021,3.7161,3.8906,3.9556,4.1378,4.2939,4.2939,4.3692,4.4304,4.4311,4.5514,4.6232,4.5453,4.5622,4.5988,4.6345,4.5972,4.624,4.7655,4.7467,4.7428,4.7995,4.8105,4.7968,4.7542,4.7854,4.7952,4.7722,4.7471,4.7332,4.7349,4.7692,4.7896,4.7867,4.829,4.8643,4.8889,4.8645,4.9149,5.0312,5.0287,5.1515,5.3727,5.4038,5.4776,5.5773,5.5527,5.5579,5.5864,5.6175,5.6291,5.6291,5.629,5.6325,5.6358,0.0,0.0,0.0,0.0,0.0,0.0,0.0,0.0,0.0,2.987,0.0,0.0,0.0,0.0,3.0755,3.039,2.9317,2.8399,2.7788,2.6726,2.6332,2.6898,2.8262,2.9002,2.9002,2.9027,2.9166,2.9459,2.8334,3.0241,3.5,3.6098,3.7977,4.0394,3.9819,4.0044,4.0684,3.7617,3.5936,3.5369,3.5105,3.5637,3.6616,3.7185,3.7861,0.0,0.0,0.0,0.0,0.0,0.0,0.0,0.0,0.0,0.0,2.8457,2.8491,2.8804,3.0368,3.108,3.1793,3.3636,3.5129,3.6398,3.7498,3.9081,4.0304,4.06,4.1609,4.2507,4.2507,4.3938,4.5148,4.5236,4.5284,4.5453,4.5782,4.5213,4.5318,4.6743,4.6506,4.6467,4.7023,4.7196,4.706,4.6538,4.6873,0.0,4.682,4.6586,4.66,4.6887,4.6959,4.7279,4.7905,4.771,4.7738,4.7984,4.774,4.8399,4.9795,4.9523,5.0829,5.3261,5.3261,5.4232,5.5825,5.5488,5.5579,5.5903,5.6175,5.6291,5.6291,5.629,5.6325,5.6397,0.0,0.0,0.0,0.0,0.0,0.0,0.0,0.0,2.921,2.8349,0.0,0.0,0.0,0.0,0.0,3.0407,3.0331,2.959,2.7841,2.7687,2.7663,2.7701,2.8502,2.8973,2.9053,2.9002,2.8606,2.7835,2.7812,2.9947,3.3997,3.3976,3.6179,4.0001,3.6747,3.76,4.1366,3.8821,3.777,3.7785,3.6926,3.6619,3.7079,4.0325,0.0,0.0,3.9299,3.8423,0.0,3.559,0.0,0.0,0.0,0.0,0.0,0.0,2.9259,2.92,0.0,0.0,0.0,3.3315,3.3264,3.3508,3.6796,3.7542,3.7763,3.8756,4.0267,4.1475,4.1622,4.163,4.2188,4.3975,4.4325,4.4674,4.5547,4.5095,4.504,4.5949,4.6114,4.619,4.6263,4.6335,4.6405,4.644,4.5801,4.5803,4.6704,4.603,4.6005,4.6848,4.6921,4.7008,4.7055,4.6211,4.6253,4.7132,4.6319,4.7301,4.973,4.8992,5.0013,5.2407,5.2445,5.3417,5.5087,5.5903,5.5786,5.5126,5.5981,5.6291,5.6291,5.629,5.6325,5.6386,0.0,0.0,0.0,0.0,0.0,3.4022,3.3533,3.2684,3.199,0.0,0.0,0.0,3.232,3.248,3.2225,3.1328,3.0611,2.978,2.8709,2.7522,2.7089,2.7663,2.905,2.9851,2.9813,3.0428,3.0073,2.8606,2.8657,2.959,3.1404,3.2589,3.4427,3.6719,3.5745,3.5937,3.6942,3.5076,3.5292,3.6818,3.6089,3.7194,0.0,0.0,0.0,0.0,0.0,4.0946,3.9911,0.0,3.6587,3.4806,0.0,0.0,0.0,0.0,0.0,2.9259,2.9766,0.0,0.0,0.0,0.0,0.0,3.3597,3.4485,3.556,3.7579,3.8432,3.9221,4.0523,4.1258,4.2188,4.3825,4.3655,4.3631,4.4636,4.4646,4.4681,4.5014,4.5129,4.5205,4.528,4.5375,4.5468,0.0,4.5413,4.5534,4.5765,4.5666,4.5736,4.6001,4.6056,4.6089,4.6082,4.5896,4.594,4.6201,4.6642,4.7585,4.8953,4.9353,5.0581,5.2445,5.3067,5.396,5.5009,5.5242,5.5592,5.5942,5.6214,5.6291,5.6291,5.6304,5.6329,5.6314,0.0,0.0,3.6377,3.6347,3.5632,3.5016,3.4991,3.3916,3.2957,0.0,0.0,0.0,3.343,3.3722,3.3398,3.2154,3.1537,3.072,2.9535,2.8872,2.8692,2.9174,3.0098,3.0784,3.1142,3.134,3.0452,2.8402,2.8785,2.927,2.9768,3.0737,3.2269,3.4236,3.3111,3.3225,3.4136,3.2108,3.3105,3.6105,3.675,0.0,0.0,4.1342,4.2181,0.0,0.0,0.0,4.1518,4.0443,3.8463,0.0,0.0,0.0,0.0,0.0,0.0,0.0,3.0503,3.0588,3.0686,3.1078,0.0,0.0,3.2674,3.3193,3.4081,3.6544,3.7423,3.8164,3.9546,4.0234,4.1035,4.2337,4.2151,4.2574,4.4587,4.4636,4.4551,4.4685,4.4764,4.484,4.4914,4.5033,4.5103,4.5103,4.5277,4.5285,4.4978,4.5686,4.5817,4.5137,4.5808,4.6018,4.568,4.5781,4.5786,4.58,4.6745,4.7676,4.8593,4.9834,5.0894,5.1916,5.3107,5.3961,5.4479,5.4815,5.5475,5.6278,5.6291,5.6278,5.6278,5.6291,5.6317,5.6302,0.0,0.0,3.6961,3.7061,3.6444,3.5902,3.5897,3.4599,3.3341,0.0,3.3056,3.3801,3.4448,3.507,3.4772,3.3112,3.2851,3.2057,3.0471,3.0944,3.1271,3.1156,3.1184,3.1542,3.227,3.1714,3.0219,2.7829,2.8696,2.9091,2.9002,2.9,3.0247,3.231,3.0056,3.0275,3.2269,3.0356,3.1763,3.5475,3.7775,3.9061,0.0,0.0,4.3535,4.3085,4.377,4.3415,4.2617,4.2284,3.9865,0.0,0.0,0.0,0.0,0.0,3.1078,0.0,0.0,3.1524,3.166,3.2208,3.1352,0.0,3.2866,3.282,3.303,3.5394,3.6564,3.7414,3.8423,3.873,3.9184,4.017,4.0291,4.1436,4.4759,4.472,4.4448,4.4685,4.4764,4.484,4.4914,4.5033,4.5103,4.5103,4.5256,4.5093,4.4459,4.586,4.6032,4.4624,4.6005,4.648,4.5819,4.5795,4.5786,4.58,4.677,4.7674,4.8565,5.0234,5.1075,5.1347,5.3014,5.379,5.3895,5.4721,5.5496,5.6199,5.6265,5.6265,5.6199,5.6278,5.6304,5.629,3.486,3.5492,3.6276,3.693,3.6841,3.6914,3.7513,3.7295,3.6972,3.6793,3.6892,3.6957,3.707,3.661,3.5812,3.4721,3.4018,3.3217,3.2172,3.1559,3.0918,3.0288,3.0869,3.0966,3.043,3.1058,3.0479,2.8608,2.9522,2.9587,2.8935,2.957,3.0157,3.0643,3.0104,2.9827,2.9895,3.2091,3.3537,3.4448,3.5652,0.0,4.3043,4.2965,4.4086,4.5597,4.5019,4.4607,4.417,4.2649,4.0215,3.7517,0.0,0.0,0.0,3.2401,0.0,0.0,0.0,0.0,0.0,0.0,0.0,0.0,3.0956,3.1107,3.1869,3.2993,3.3493,3.4175,3.5821,3.6716,3.7634,3.9147,3.949,4.0504,4.3146,4.3456,4.3717,4.453,4.4738,4.484,4.4914,4.4986,4.5033,4.5033,4.5192,4.5263,4.5189,4.5534,4.5955,4.6394,4.6065,4.6103,4.6642,4.605,4.5712,4.5712,4.6742,4.7674,4.8565,5.0311,5.1449,5.2161,5.3892,5.4667,5.4706,5.5598,5.6063,5.6194,5.6194,5.6223,5.6199,5.6213,5.6239,5.6304,3.5274,3.5814,3.659,3.745,3.7549,3.7925,3.9094,3.8922,3.8762,3.9084,3.904,3.8665,3.7861,3.7313,3.6667,3.5775,3.4884,3.403,3.3177,3.2272,3.1576,3.1231,3.0781,3.076,3.1189,3.1711,3.1118,2.9467,3.0761,3.0509,2.8879,2.9717,3.0571,3.1333,3.009,3.0233,3.146,3.191,3.3125,3.4902,3.7517,0.0,4.2948,4.4152,4.5099,4.575,4.5726,4.5304,4.4449,4.2222,4.0476,0.0,0.0,3.5799,3.5459,0.0,3.4585,3.4746,0.0,0.0,0.0,3.2547,0.0,0.0,0.0,3.0846,3.1071,3.273,3.2852,3.3227,3.5003,3.5736,3.6396,3.724,3.775,3.8622,4.0317,4.1707,4.2779,4.3352,4.3467,4.3567,4.3639,4.371,4.3779,4.3802,4.4315,4.4325,4.3561,4.4767,4.5514,4.5586,4.6009,4.6394,4.6891,4.6111,4.568,4.5719,4.6699,4.7579,4.8469,5.0681,5.1911,5.2429,5.4529,5.5226,5.4932,5.573,5.6117,5.6117,5.6164,5.618,5.6141,5.6185,5.5941,5.5683,3.5891,3.626,3.6903,3.7769,3.8029,3.8502,3.9815,3.9554,3.949,4.0156,4.0291,3.9833,3.8518,3.8195,3.7776,3.7053,3.5989,3.5078,3.4415,3.3355,3.2713,3.2581,3.1013,3.0839,3.2424,3.2327,3.1526,3.0076,3.1613,3.1134,2.8812,2.9688,3.083,3.2048,3.0365,3.1119,3.357,3.2034,3.3196,3.6348,0.0,4.1568,4.1723,4.5072,4.5829,4.5239,4.6069,4.5634,4.432,4.2032,4.1023,4.0282,3.7748,3.7337,0.0,0.0,0.0,0.0,0.0,0.0,0.0,0.0,0.0,3.1836,0.0,0.0,0.0,3.2502,0.0,0.0,0.0,0.0,0.0,3.4822,0.0,0.0,0.0,3.9051,0.0,4.1606,4.1731,4.1879,4.2124,4.2231,4.2373,4.2591,4.317,4.3023,4.1915,4.4154,4.5303,4.4816,4.6124,4.6912,4.7139,4.6188,4.5719,4.5719,4.6499,4.7364,4.8369,5.0813,5.2082,5.2423,5.4907,5.5526,5.4862,5.5681,5.6012,5.6012,5.6133,5.6133,5.6117,5.6156,5.5758,5.5267,3.5582,3.5746,3.5991,3.6819,3.7525,3.8031,3.8185,3.8657,3.9279,4.0042,4.0766,4.1127,4.0751,4.0127,3.965,3.9429,3.7932,3.6965,3.681,3.5313,3.4103,3.3327,3.1713,3.1299,3.2203,3.1654,3.089,2.9905,3.0934,3.0563,2.8827,2.962,3.0129,3.0418,3.1575,3.2368,3.2959,3.4874,3.6799,0.0,4.0805,4.1129,0.0,4.4152,4.535,4.5262,4.5924,4.5481,4.4428,0.0,4.2287,4.1134,0.0,3.894,3.9118,3.7557,0.0,0.0,0.0,0.0,0.0,0.0,3.3762,0.0,0.0,0.0,3.0776,3.042,0.0,0.0,0.0,0.0,0.0,0.0,0.0,0.0,3.3732,3.466,3.6452,3.9524,4.0056,4.0488,4.1253,4.1351,4.1721,4.2552,4.2041,4.199,4.2698,4.448,4.5841,4.6586,4.6778,4.724,4.7971,4.6446,4.5709,4.5709,4.5866,4.6746,4.8369,5.0233,5.1486,5.2353,5.489,5.5548,5.4851,5.5664,5.6012,5.6012,5.6012,5.6046,5.6117,5.6133,5.6102,5.6082,3.4825,3.5245,3.5649,3.5984,3.6685,3.7187,3.7108,3.9319,4.0912,4.0819,4.2291,4.3133,4.2617,4.1775,0.0,4.1189,0.0,3.8968,0.0,0.0,3.4701,3.4851,3.1901,3.1111,3.2901,3.2241,3.1462,3.0591,3.1514,3.1092,2.9459,2.9785,3.075,3.2226,3.2931,3.4372,3.6291,3.686,3.7526,0.0,0.0,0.0,0.0,4.4804,4.6708,4.6549,4.619,4.5402,4.439,0.0,4.1949,0.0,0.0,0.0,0.0,0.0,0.0,0.0,0.0,0.0,0.0,0.0,0.0,0.0,3.0541,0.0,2.9745,0.0,0.0,0.0,0.0,0.0,0.0,0.0,3.1764,0.0,0.0,0.0,3.4142,3.7115,0.0,0.0,3.8925,3.944,3.9937,4.038,4.0137,4.0368,4.1284,4.3465,4.4921,4.5396,4.6339,4.7011,4.7394,4.6219,4.5907,4.6403,4.6452,4.7117,4.833,4.9614,5.0674,5.1563,5.3652,5.4658,5.4851,5.5664,5.6012,5.5935,5.5509,5.5332,5.5349,5.5397,5.5094,5.4851,3.4222,3.4918,3.5495,3.5455,3.6059,3.6632,3.6743,3.9388,4.1351,4.1206,4.3075,4.4221,4.3895,4.3253,0.0,0.0,4.2359,4.1255,0.0,0.0,3.6212,3.6836,3.3122,0.0,3.4743,3.343,3.2505,3.2108,3.2295,3.1782,3.057,3.057,3.1724,3.3733,3.4452,3.6255,3.8781,0.0,3.9223,3.9794,4.1741,4.1724,4.0979,4.543,4.7137,4.7148,4.6528,4.5536,4.4298,4.267,4.1898,0.0,4.1111,0.0,0.0,0.0,0.0,0.0,3.7697,0.0,0.0,0.0,0.0,0.0,0.0,0.0,0.0,0.0,0.0,0.0,0.0,0.0,0.0,3.0502,0.0,3.1414,0.0,3.1262,0.0,0.0,0.0,0.0,0.0,3.745,3.7907,3.8421,3.8118,3.846,3.9832,4.2355,4.3924,4.4267,4.5918,4.6839,4.6876,4.6047,4.5911,4.6523,4.6629,4.7086,4.7967,4.8903,4.9784,5.0674,5.2376,5.3498,5.4155,5.4967,5.5161,5.489,5.4039,5.373,5.3823,5.4584,5.4483,5.4163,3.3953,3.4864,3.5441,3.533,3.5965,3.6687,3.726,3.8188,3.9315,0.0,0.0,0.0,0.0,0.0,0.0,0.0,0.0,4.3933,4.31,0.0,3.9238,0.0,0.0,3.5574,0.0,3.5055,3.3843,3.4697,3.3129,3.2371,3.233,3.233,3.2823,3.3809,3.6196,3.7809,3.8874,4.1304,4.3301,4.4805,4.4973,4.6031,4.7213,0.0,4.5627,4.6429,4.6862,0.0,0.0,4.3315,4.2693,0.0,0.0,0.0,0.0,0.0,0.0,0.0,0.0,0.0,0.0,3.4315,0.0,0.0,0.0,0.0,3.0764,0.0,0.0,0.0,0.0,0.0,0.0,3.0545,3.0546,0.0,0.0,0.0,0.0,0.0,0.0,0.0,0.0,3.5571,3.5837,0.0,3.6194,3.6434,3.9006,4.1532,4.3312,4.4173,4.5899,4.682,4.682,4.5991,4.5586,4.5642,4.5726,4.6182,4.7086,4.8013,4.8933,4.9823,5.1525,5.226,5.2337,5.3227,5.3072,5.2221,5.137,5.1037,5.1431,5.3901,5.4807,5.4894,3.3925,3.4764,3.4963,3.3785,3.4187,3.5323,3.7062,3.8901,0.0,0.0,0.0,0.0,0.0,4.8251,4.8446,0.0,0.0,4.6824,4.4856,4.2875,0.0,0.0,0.0,3.7604,0.0,3.7009,3.5555,3.4747,3.4788,3.4205,3.3129,3.3167,3.3318,3.3677,3.6192,3.8083,0.0,0.0,0.0,0.0,0.0,4.5963,4.8324,0.0,4.6467,4.6316,4.6817,4.5894,0.0,4.4438,4.3495,4.2356,4.2408,4.1723,4.0817,4.0706,4.0632,0.0,0.0,0.0,3.9121,3.6278,0.0,0.0,0.0,0.0,0.0,0.0,0.0,0.0,0.0,0.0,3.1273,3.0522,3.0509,3.0336,0.0,0.0,0.0,0.0,0.0,0.0,0.0,0.0,0.0,0.0,3.547,0.0,3.8876,4.0405,4.1819,4.3235,4.4442,4.5361,4.5936,4.5722,4.5873,4.6446,4.6552,4.6722,4.7008,4.7356,4.799,4.8864,5.0039,5.1177,5.2221,5.2531,5.2801,5.2917,5.1486,5.1254,5.1827,5.2221,5.2715,5.3402,3.4336,3.4334,3.4077,3.3614,3.4372,0.0,0.0,0.0,0.0,0.0,4.6518,0.0,4.9621,0.0,5.0418,0.0,4.9861,4.8744,4.6545,4.5065,0.0,4.4617,4.1876,0.0,0.0,3.9339,3.7648,3.5957,3.5948,3.5426,3.435,3.4149,3.4187,3.4446,3.6755,3.8471,3.9797,4.217,4.3504,0.0,0.0,4.711,0.0,0.0,4.6885,4.6176,0.0,4.5836,4.44,4.4681,4.3837,4.2766,4.3032,4.2194,4.1135,4.1312,4.1124,4.0724,4.0267,4.0262,0.0,3.7578,3.6362,0.0,3.2204,0.0,0.0,0.0,0.0,0.0,0.0,0.0,0.0,3.1334,3.0895,3.0225,0.0,2.9285,0.0,0.0,0.0,3.3298,3.2845,0.0,0.0,0.0,3.4327,3.5119,3.7906,3.9184,4.0635,4.2297,4.3561,4.4595,4.5475,4.555,4.5855,4.6446,4.6513,4.6529,4.6545,4.6622,4.71,4.7897,4.8493,4.9552,5.0867,5.1177,5.1447,5.1602,5.079,5.0844,5.1324,5.1446,5.225,5.3402,3.4933,3.3709,3.3106,0.0,3.6232,0.0,0.0,0.0,4.4674,0.0,4.7671,4.95,5.0396,5.0514,5.0813,5.1591,5.0887,4.9735,4.8194,4.7201,0.0,0.0,4.4766,4.4281,4.4153,0.0,0.0,0.0,3.6784,3.6001,3.5926,3.5262,3.5262,3.5888,3.7716,3.8901,3.9825,4.3139,4.558,4.7343,4.9224,4.944,4.8666,4.7753,4.6841,4.6091,4.6652,4.5821,4.4386,4.4166,4.3841,4.3465,4.3105,4.2729,4.2266,4.155,4.167,4.1711,4.0542,4.057,4.0451,3.8324,0.0,0.0,0.0,0.0,3.6209,0.0,0.0,0.0,0.0,0.0,0.0,3.2773,3.1487,3.0002,2.848,0.0,2.9231,0.0,3.0,3.1619,3.3128,3.1459,0.0,0.0,3.2749,3.2981,3.623,3.7906,3.9679,4.1532,4.3178,4.4518,4.5475,4.5514,4.555,4.5586,4.5687,4.568,4.568,4.5771,4.6264,4.7076,4.7076,4.7579,4.8469,4.9243,4.9126,4.8546,4.932,4.9698,4.9959,5.1556,5.3259,5.4723,3.3227,3.43,3.5095,0.0,3.5124,3.6152,0.0,0.0,0.0,0.0,4.8837,5.0517,5.1898,5.2677,5.2936,5.2382,5.2122,0.0,0.0,0.0,0.0,4.793,4.6624,4.5648,4.5084,4.3341,0.0,4.0023,3.839,3.7291,3.6643,3.5942,3.534,3.4869,3.6716,3.8296,3.9665,4.1781,4.4471,4.7359,4.851,4.9153,4.9494,0.0,4.8436,4.7477,4.6881,4.6345,4.5876,4.5542,4.4856,4.4017,4.2987,4.253,4.2251,4.1908,4.1888,4.1917,4.1576,4.1611,4.1428,4.0379,3.985,3.8961,0.0,0.0,0.0,0.0,0.0,0.0,0.0,0.0,0.0,0.0,3.0672,0.0,0.0,0.0,0.0,3.0054,0.0,0.0,2.9883,3.1578,0.0,0.0,3.2243,3.3456,3.625,3.6247,3.7809,4.1399,4.2585,4.3886,4.54,4.5477,4.5532,4.5532,4.5637,4.5654,4.5637,4.5719,4.6159,4.6954,4.7024,4.7526,4.8314,4.7905,4.8385,4.9235,4.8879,4.9513,5.065,5.1213,5.2429,5.3916,3.4091,3.5758,0.0,3.6333,0.0,0.0,3.9638,4.1848,0.0,4.7425,4.948,0.0,5.1899,5.3088,5.3608,5.3124,5.2715,0.0,5.0602,0.0,0.0,4.8715,4.7898,4.7043,4.6298,4.5095,0.0,4.096,0.0,3.8028,3.682,3.5791,3.5154,3.5002,3.6452,3.7764,3.9076,4.1863,4.4599,4.7118,4.7674,4.8578,0.0,4.8716,4.8227,4.7863,4.7181,4.6706,4.6305,4.5551,4.4821,4.412,4.3296,4.2614,4.2079,4.1987,4.1858,4.1771,4.1902,4.1858,4.1753,4.1421,4.1534,4.1227,3.9032,3.9899,4.0482,0.0,0.0,0.0,0.0,0.0,0.0,0.0,0.0,0.0,0.0,0.0,0.0,0.0,2.9739,0.0,0.0,0.0,0.0,0.0,0.0,0.0,0.0,3.5907,3.7697,4.0807,4.2164,4.3656,4.536,4.5419,4.5458,4.5457,4.5586,4.5659,4.5603,4.5687,4.5951,4.6381,4.6414,4.6722,4.7163,4.7101,4.7619,4.8508,4.881,4.973,5.0906,5.0975,5.1842,5.3019,3.6043,3.7558,0.0,0.0,0.0,0.0,0.0,4.3804,0.0,4.7843,0.0,5.149,5.1452,5.2671,5.3558,5.3637,0.0,5.2114,5.1341,5.0563,4.9713,4.8753,4.8716,4.8347,4.7424,4.657,4.4568,0.0,0.0,3.8197,3.6596,3.5175,3.4862,3.5539,3.6433,3.7405,3.8726,4.2782,4.5357,4.6667,4.702,4.7852,4.8802,4.7379,4.7154,4.763,4.7348,4.687,4.6242,4.5114,4.4524,4.4104,4.3673,4.2683,4.178,4.1902,4.1648,4.1471,4.1692,4.1692,4.1648,4.178,4.2962,4.3448,4.073,4.1426,4.2092,4.0058,3.8647,3.8162,0.0,0.0,0.0,0.0,0.0,0.0,0.0,0.0,0.0,0.0,0.0,0.0,0.0,0.0,0.0,0.0,0.0,0.0,0.0,0.0,3.8098,4.012,4.1896,4.3616,4.536,4.5398,4.538,4.54,4.5532,4.5586,4.5586,4.5671,4.5703,4.5703,4.5703,4.5703,4.5742,4.6529,4.6954,4.7317,4.8971,5.0124,5.0874,5.088,5.136,5.2182,0.0,0.0,0.0,0.0,0.0,4.3237,4.5164,4.6405,4.7675,4.927,5.1562,5.3074,5.2917,5.3256,5.344,5.3359,5.3212,0.0,0.0,0.0,0.0,4.941,4.9452,4.8827,4.7353,4.5948,4.3948,0.0,0.0,3.7273,3.5614,3.4782,3.4409,3.4451,3.5477,3.753,4.0381,4.3847,0.0,4.5918,4.7335,4.7672,4.7267,4.6869,4.7052,4.7416,4.6576,4.658,4.6912,4.6345,4.5477,4.4498,4.3515,4.2379,4.1471,4.1515,4.1471,4.1426,4.1604,4.1604,4.1648,4.178,4.2538,4.3058,4.1937,4.2988,4.3799,4.2282,4.1823,4.1252,3.9865,0.0,0.0,0.0,0.0,0.0,0.0,0.0,0.0,0.0,0.0,3.1053,0.0,0.0,0.0,0.0,0.0,0.0,0.0,0.0,3.6288,0.0,4.1896,4.3596,0.0,0.0,4.5418,4.538,4.5477,4.5532,4.5532,4.5586,4.562,4.562,4.562,4.562,4.562,4.5847,4.6767,4.815,4.9131,5.0057,5.0808,5.0829,5.0941,5.136,0.0,0.0,0.0,0.0,0.0,0.0,0.0,4.8864,0.0,4.9307,5.0968,5.1959,5.1514,5.25,5.3235,5.3235,5.3109,5.2883,5.2601,5.2071,5.1261,5.0017,4.9695,4.8964,4.7716,4.6618,4.4851,4.2386,0.0,0.0,3.59,3.4785,3.4154,3.4104,3.5553,3.8011,4.1241,0.0,0.0,4.5413,4.6169,4.6504,4.6466,4.6025,4.5901,4.6064,4.6397,4.632,4.6088,4.6323,4.5839,4.4938,4.3935,4.2787,4.1766,4.1394,4.13,4.13,4.1471,4.156,4.1604,4.1692,4.2379,4.29,4.2207,4.301,4.3636,4.2741,4.2325,4.1468,3.9389,3.7534,0.0,0.0,0.0,0.0,0.0,0.0,0.0,0.0,0.0,0.0,0.0,0.0,0.0,0.0,0.0,0.0,0.0,0.0,3.5988,0.0,0.0,0.0,4.4543,0.0,4.5357,4.5357,4.54,4.5438,4.5438,4.5495,4.5514,4.5514,4.555,4.555,4.5589,4.6103,4.708,4.8309,4.9157,5.0023,5.0812,5.0756,5.0812,5.1078,0.0,4.1996,0.0,0.0,4.5819,0.0,4.8789,5.0738,5.148,4.9713,5.0595,5.114,5.0478,5.1967,5.3023,5.3103,5.2893,5.285,5.2937,5.2266,5.142,5.0429,4.9857,4.9094,4.7988,4.7382,4.581,0.0,0.0,0.0,0.0,3.5003,3.4326,3.4349,3.6276,0.0,0.0,0.0,4.368,4.4827,4.4946,4.5281,4.5614,4.4952,4.4743,4.4967,4.6209,4.615,4.56,4.6212,4.5936,4.5269,4.453,4.3453,4.2306,4.1603,4.1511,4.158,4.1405,4.1576,4.177,4.1595,4.2185,4.2635,4.2086,4.2534,4.2952,4.2588,4.1998,4.1035,3.9276,3.835,0.0,0.0,0.0,0.0,0.0,0.0,0.0,0.0,0.0,0.0,2.9101,0.0,0.0,0.0,0.0,0.0,3.2365,0.0,0.0,0.0,0.0,4.2141,4.3662,0.0,4.5277,4.5277,4.5378,4.5398,4.5398,4.5381,4.54,4.54,4.5457,4.5572,4.5821,4.6588,4.7471,4.8526,4.9201,5.0008,5.0776,5.0701,5.072,5.0987,0.0,0.0,0.0,0.0,0.0,0.0,5.0485,5.1474,5.1989,5.1724,5.2459,5.2889,5.2694,5.2871,5.2937,5.285,5.2806,5.2806,5.2806,5.2733,5.1996,5.0416,5.032,4.9555,4.7938,4.7186,4.5697,0.0,0.0,3.935,0.0,3.5578,3.5198,0.0,0.0,0.0,0.0,4.2696,4.3767,4.3989,4.469,4.4617,4.3992,4.3747,4.4418,4.551,4.5464,4.6038,4.6829,4.6763,4.6081,4.5164,4.4927,4.4028,4.2955,4.2293,4.2583,4.284,4.1545,4.1858,4.2334,4.16,4.1674,4.1929,4.198,4.2108,4.2234,4.2481,4.2075,4.147,4.0737,4.0101,3.9197,0.0,0.0,0.0,0.0,0.0,3.4933,3.4288,0.0,0.0,3.0655,2.9457,0.0,0.0,2.8806,0.0,0.0,0.0,0.0,3.7605,4.01,4.1894,4.2888,4.4412,4.5235,4.5277,4.5378,4.5398,4.5398,4.5381,4.54,4.54,4.5419,4.586,4.6589,4.6762,4.7742,4.9201,4.9278,4.9894,5.0721,5.0721,5.0702,5.0855,0.0,0.0,0.0,0.0,0.0,0.0,0.0,5.2412,5.259,5.2462,5.284,5.2877,5.2236,5.2514,5.2761,5.268,5.2627,5.2618,5.2618,5.2146,5.1383,5.025,4.9792,4.9029,4.7777,4.762,4.6389,0.0,0.0,0.0,0.0,0.0,0.0,0.0,0.0,4.0246,4.1567,4.2907,4.3497,4.3569,4.445,4.4232,4.3428,4.3358,4.387,4.4621,4.4931,4.5538,4.6219,4.6365,4.6055,4.5495,4.4942,4.4331,4.3648,4.299,4.2743,4.2618,4.2588,4.2277,4.195,4.2181,4.1955,4.1736,4.1945,4.2384,4.2647,4.2512,4.2433,4.2012,4.0994,4.0221,3.9438,0.0,0.0,0.0,0.0,0.0,0.0,3.5764,0.0,3.2243,0.0,2.9833,0.0,0.0,0.0,0.0,0.0,0.0,0.0,3.5285,0.0,4.0992,4.1892,4.4043,4.517,4.5235,4.5256,4.5277,4.5357,4.5339,4.536,4.5438,4.5936,4.6339,4.682,4.7836,4.8682,4.9394,4.9892,5.0355,5.0702,5.0702,5.0683,5.0741,4.8505,0.0,4.834,0.0,5.0374,5.0368,5.27,5.306,5.2937,5.2806,5.285,5.2631,5.196,5.2308,5.259,5.2581,5.2526,5.248,5.248,5.1973,5.1285,5.0443,4.9778,0.0,4.8019,4.7933,4.7001,4.5071,4.3506,0.0,0.0,0.0,0.0,0.0,4.0789,4.1889,4.2986,4.3432,4.3725,4.3944,4.4309,4.4198,4.3796,4.3759,4.4114,4.4597,4.497,4.5427,4.5846,4.5993,4.5854,4.5545,4.5025,4.4647,4.4354,4.3683,4.3335,4.3192,4.3409,4.274,4.2068,4.2601,4.2156,4.1604,4.1902,4.2412,4.2711,4.2553,4.2645,4.2407,4.1358,4.0664,4.0072,3.9289,0.0,0.0,0.0,0.0,0.0,0.0,3.4074,3.2035,3.0835,2.987,0.0,0.0,0.0,0.0,0.0,0.0,0.0,0.0,0.0,0.0,4.1276,4.3824,4.5103,4.517,4.5192,4.5213,4.5256,4.5277,4.5451,4.576,4.6355,4.6932,4.7547,4.8715,4.937,4.9759,5.0333,5.0622,5.0702,5.0682,5.0702,5.0741,5.0107,5.008,5.0454,5.2003,5.2183,5.232,5.3078,5.3103,5.2937,5.2806,5.2717,5.259,5.259,5.259,5.2581,5.248,5.248,5.248,5.248,5.248,5.2072,0.0,0.0,4.9647,4.872,4.8012,4.7342,4.6666,0.0,0.0,4.1939,0.0,4.1174,4.2012,4.3652,4.4381,4.4344,4.4305,4.4704,4.5319,4.444,4.4581,4.5269,4.5111,4.5492,4.6047,4.574,4.5964,4.6315,4.5768,4.5441,4.523,4.5177,4.5283,4.5198,4.4336,4.4698,4.5044,4.3761,4.3346,4.3152,4.2742,4.1985,4.1515,4.1902,4.2023,4.2115,4.253,4.2609,4.2474,4.205,4.1976,4.1567,4.0271,0.0,0.0,0.0,0.0,0.0,3.559,3.2627,3.0644,3.0706,2.9288,0.0,0.0,0.0,0.0,0.0,0.0,0.0,3.6198,3.952,0.0,4.1276,4.3741,4.5033,4.5103,4.517,4.5192,4.5192,4.5256,4.5736,4.65,4.6564,4.7537,4.9083,4.9089,4.9652,5.05,5.0435,5.0521,5.0702,5.0642,5.0663,5.0818,5.1713,5.1714,5.1894,5.2927,5.2508,5.227,5.2956,5.306,5.2893,5.268,5.2635,5.2545,5.2572,5.2526,5.2526,0.0,5.248,5.248,0.0,5.248,5.2325,5.1932,5.1312,5.048,4.955,4.8844,4.7922,4.6702,0.0,0.0,0.0,4.3032,4.3323,4.3614,4.4669,4.5103,4.4989,4.491,4.4935,4.507,4.4777,4.4772,4.4941,4.4814,4.5106,4.5605,4.5293,4.5536,4.592,4.5494,4.5283,4.5123,4.4742,4.4852,4.5089,4.5008,4.4819,4.4716,4.5006,4.4242,4.3576,4.413,4.3699,4.3184,4.3491,4.333,4.315,4.336,4.3044,4.2587,4.2086,4.2011,4.1752,4.0983,4.0388,0.0,0.0,0.0,0.0,3.6333,3.4401,3.3087,3.3156,3.2783,0.0,0.0,0.0,0.0,0.0,0.0,0.0,0.0,3.9499,0.0,4.2085,4.3976,4.501,4.5103,4.5125,4.5475,4.6097,4.6118,4.6577,4.7417,4.8051,4.8608,4.9166,4.9717,5.0167,5.0542,5.0435,5.05,5.0642,5.0622,5.0909,5.1425,5.2863,5.2821,5.289,5.3367,5.2655,5.2165,5.2553,5.2328,5.2133,5.2207,5.2199,5.2254,5.2444,5.248,0.0,5.248,5.277,5.2951,5.2951,5.3157,5.3243,5.3062,5.1907,5.104,5.0674,4.9442,0.0,4.7368,4.6287,4.5236,4.4334,4.488,4.5243,4.5454,4.5997,4.6173,4.6019,4.5606,4.5551,4.5717,4.5351,4.5336,4.5454,4.5365,4.5513,4.5705,4.5369,4.5436,4.5649,4.5177,4.5015,4.4961,4.4519,4.4575,4.4852,4.5015,4.4814,4.4698,4.5442,4.4697,4.3915,4.483,4.4388,4.384,4.4233,4.3863,4.3549,4.3755,4.3224,4.2587,4.2086,4.2266,4.2264,4.176,4.1014,4.056,4.0681,0.0,0.0,0.0,0.0,0.0,0.0,3.468,3.4637,0.0,0.0,0.0,0.0,0.0,0.0,3.7601,4.0577,0.0,4.2951,4.4279,4.4986,4.5033,4.5422,4.6062,4.6953,4.6975,4.7455,4.8334,4.8869,4.9274,4.9602,5.0115,5.039,5.05,5.0412,5.0626,5.1041,5.1365,5.1765,5.2302,5.3521,5.3481,5.344,0.0,5.2692,0.0,5.2091,5.1344,5.0999,5.1602,5.1544,5.1746,5.2408,5.2552,5.2589,5.2589,0.0,0.0,0.0,5.4363,5.4611,5.4475,5.245,5.1538,5.1979,4.9955,4.8784,4.8506,4.7162,4.6446,4.6374,4.6494,4.685,4.732,4.7407,4.7407,4.724,4.6434,4.6409,4.6926,4.6132,4.6138,4.659,4.6542,4.6447,4.6266,4.5717,4.5598,4.5494,4.4995,4.4776,4.4776,4.4519,4.4519,4.4519,4.4519,4.4742,4.5015,4.5336,4.4767,4.4303,4.4844,4.4335,4.3825,4.4258,4.3882,4.3487,4.3714,4.3149,4.251,4.2123,4.2704,4.2994,4.2463,4.1751,4.1329,4.1385,0.0,0.0,0.0,0.0,0.0,0.0,3.544,3.6296,0.0,0.0,0.0,0.0,0.0,3.7561,4.0003,4.245,4.3739,4.3777,4.4645,4.51,4.5128,4.6045,4.6976,4.7785,4.7831,4.8372,4.9175,4.9175,4.9595,5.0283,5.0321,5.0344,5.039,5.0382,5.0926,5.1782,5.2617,5.2962,5.3276,0.0,0.0,5.3359,5.3318,5.3088,5.2936,5.2931,5.2663,5.2462,5.2514,5.2425,5.2363,5.248,5.3059,5.3422,5.3422,5.3603,5.3965,5.4581,5.5158,5.5491,5.5302,5.4187,5.3396,5.2866,5.1333,4.9902,4.864,4.8403,4.7897,4.7075,4.7204,4.727,4.732,4.732,4.7232,4.7053,4.6738,4.6646,4.6684,4.6283,4.6174,4.6301,4.6105,4.5819,4.5598,4.5389,4.5177,4.4995,4.4831,4.472,4.4553,4.427,4.4236,4.4406,4.4631,4.4776,4.4886,4.5177,4.5146,4.5113,4.5372,4.5586,4.5598,4.5234,4.4671,4.4178,4.3899,4.3149,4.2652,4.2813,4.3032,4.2995,4.2331,4.1625,4.0956,4.0425,3.8796,0.0,0.0,3.7923,3.7877,3.714,3.8457,3.8425,0.0,0.0,0.0,0.0,3.8109,3.9762,4.1768,4.3057,4.4004,4.4611,4.5507,4.6277,4.6958,4.7258,4.7838,4.87,4.87,4.9158,4.9872,4.9921,5.0059,5.0212,5.0259,5.0344,5.0466,5.1071,5.1476,5.1813,5.2594,5.3298,5.3886,5.3203,5.3277,5.3277,5.3193,5.2858,5.2637,5.2553,5.2181,5.1987,5.2134,5.217,5.2336,5.2951,5.3422,5.3953,5.4592,5.4713,5.4943,5.5279,5.5902,5.6037,5.5522,5.4374,5.3534,5.3053,5.1658,5.0484,4.9621,4.9307,4.8695,4.777,4.7859,4.7555,4.7098,4.7098,4.6962,4.6778,4.6684,4.6542,4.6398,4.6253,4.607,4.587,4.5768,4.5546,4.5283,4.5015,4.4852,4.4776,4.4609,4.4553,4.444,4.4155,4.4097,4.4155,4.4384,4.4553,4.4665,4.494,4.5123,4.5283,4.5598,4.6055,4.6341,4.6012,4.5488,4.4991,4.4856,4.3935,4.3228,4.3536,4.3322,4.2923,4.2298,4.1595,4.085,4.0105,3.898,0.0,3.8802,3.9303,3.9472,3.899,4.0244,4.0066,3.7517,3.8602,0.0,3.8244,4.0226,4.1717,4.2328,4.354,4.4624,4.5483,4.6316,4.7201,4.8137,4.8186,4.8642,4.9442,4.9515,4.9782,5.0139,5.0212,5.0236,5.0236,5.0259,5.0574,5.1017,5.1429,5.2103,5.2891,5.3733,5.432,5.4791,5.3023,5.3151,5.3193,5.3023,5.2517,5.2119,5.1993,5.1407,5.1104,5.1544,5.1806,5.2344,5.353,5.3892,5.4484,5.5685,5.5894,5.593,5.5974,5.6361,5.6257,5.5453,5.3826,5.2952,5.2937,5.1607,5.0832,5.0725,5.0044,4.9173,4.8279,4.8243,4.7711,4.6731,4.6731,4.6684,4.6495,4.6398,4.6253,4.6105,4.6105,4.5819,4.5546,4.5494,4.5283,4.5015,4.4631,4.4519,4.4665,4.4384,4.4236,4.427,4.4097,4.4081,4.4123,4.4206,4.4447,4.4653,4.4732,4.4886,4.5157,4.5771,4.6125,4.6398,4.6495,4.6081,4.565,4.5908,4.4935,4.4016,4.4216,4.3756,4.3069,4.2264,4.1595,4.0813,3.9921,0.0,3.9423,4.003,4.0481,4.0651,4.0415,4.1361,4.1325,3.9858,4.1124,4.1691,4.1092,4.2509,4.3152,4.2697,4.4172,4.5483,4.6582,4.729,4.8074,4.896,4.8986,4.9366,5.0012,5.0139,5.0188,5.0188,5.0236,5.0259,5.0298,5.0436,5.0932,5.162,5.1888,5.2843,5.4218,5.5097,5.5479,5.5785,5.3146,5.3103,5.3023,5.298,5.2993,5.2962,5.2797,5.2688,5.2608,5.2623,5.3117,5.3489,5.3675,5.4773,5.5591,5.5757,5.5692,5.5929,5.6613,5.6093,5.5682,5.5418,5.381,5.2988,5.3039,5.2292,5.1467,5.0689,5.0581,4.9651,4.8034,4.7998,4.7429,4.6495,4.659,4.6447,4.607,4.607,4.592,4.5666,4.5441,4.5336,4.523,4.4818,4.4652,4.4575,4.427,4.4155,4.4212,4.4155,4.4155,4.4097,4.3956,4.4415,4.5001,4.5001,4.5555,4.5967,4.4891,4.4831,4.524,4.6163,4.6239,4.6105,4.6253,4.5941,4.565,4.582,4.528,4.4844,4.4931,4.4554,4.3725,4.2266,4.1559,4.0657,3.9178,0.0,4.0052,4.0163,4.1512,4.2166,4.1431,4.2158,4.2262,4.139,4.1661,4.1819,4.175,4.2769,4.36,4.4322,4.5356,4.6682,4.8287,4.8491,4.8998,4.9834,4.9923,5.0024,5.0101,5.0163,5.0163,5.0114,5.0188,5.0212,5.0288,5.1061,5.1467,5.1735,5.3148,5.3874,5.4218,5.5097,5.5823,5.6434,5.3103,5.3103,5.306,5.2893,5.3017,5.306,5.2893,5.2893,5.2996,5.3299,5.3617,5.4059,5.4737,5.541,5.5923,5.6201,5.6237,5.6185,5.5955,5.5291,5.4594,5.3956,5.3278,5.2671,5.2279,5.1886,5.1444,5.1037,5.0987,5.0154,4.8493,4.8395,4.766,4.6398,4.6301,4.64,4.6634,4.5977,4.5806,4.5941,4.524,4.5124,4.5297,4.5071,4.5226,4.5446,4.521,4.521,4.5243,4.515,4.515,4.5023,4.4564,4.4963,4.5524,4.5303,4.5883,4.6558,4.6112,4.6135,4.6481,4.7153,4.7039,4.6786,4.6935,4.6578,4.6244,4.6336,4.5952,4.563,4.5714,4.4907,4.4013,4.3397,4.2337,0.0,0.0,4.0719,4.0892,4.1335,4.2199,4.2625,4.2217,4.3423,4.352,4.1894,4.3062,4.3493,4.2677,4.384,4.4759,4.5262,4.6743,4.7856,4.8651,4.9148,4.9591,4.9933,5.0012,5.0038,5.0038,5.0114,5.0405,5.0862,5.0937,5.119,5.1634,5.2079,5.2537,5.3034,5.3798,5.4639,5.5479,5.5899,5.6587,5.7351,5.306,5.306,5.306,5.285,5.2937,5.2937,5.285,5.3032,5.3316,5.3763,5.4153,5.4749,5.5699,5.5974,5.6181,5.6528,5.6474,5.5991,5.4991,5.4346,5.358,5.2766,5.2656,5.2213,5.1454,5.135,5.1298,5.1298,5.1086,5.0326,4.9074,4.8831,4.799,4.673,4.6564,4.6655,4.6952,4.5959,4.5657,4.5802,4.498,4.4936,4.5379,4.5261,4.5671,4.6185,4.6029,4.6029,4.6062,4.5967,4.5872,4.574,4.5042,4.5441,4.6101,4.5577,4.6346,4.7319,4.7408,4.741,4.7533,4.8093,4.7893,4.7592,4.7694,4.7391,4.7086,4.7228,4.6981,4.6744,4.6744,4.5766,4.4844,4.4453,0.0,0.0,0.0,4.2018,4.212,4.2926,4.3352,4.3526,4.3595,4.4687,4.4594,4.2752,4.4258,4.4757,4.3577,4.4861,4.5827,4.6318,4.7823,4.8699,4.8899,4.9549,4.9879,4.9879,4.9933,5.0073,5.029,5.0368,5.0913,5.1764,5.1814,5.2182,5.278,5.3009,5.3582,5.4384,5.4575,5.5568,5.6866,5.6866,5.7428,5.8268,5.3146,5.3017,5.285,5.2937,5.298,5.298,5.298,5.3639,5.4062,5.4009,5.5182,5.5982,5.5844,5.6341,5.6688,5.66,5.5812,5.4955,5.417,5.3385,5.2957,5.2886,5.207,5.1525,5.1298,5.1298,5.1298,5.1298,5.0452,4.9872,4.9627,4.8767,4.8137,4.78,4.7746,4.7257,4.633,4.6165,4.5478,4.4587,4.427,4.4624,4.5143,4.487,4.5241,4.5996,4.5844,4.5719,4.556,4.556,4.556,4.5398,4.4673,4.5744,4.7116,4.6441,4.7457,4.8741,4.8209,4.7612,4.7444,4.8506,4.837,4.8049,4.8242,4.7955,4.79,4.8572,4.8496,4.8326,4.8326,4.7904,4.6848,4.4745,0.0,0.0,4.2496,4.3111,4.3948,4.479,4.5564,4.6079,4.6215,4.5658,4.5244,4.5058,4.4655,4.4371,4.4221,4.5103,4.633,4.7866,4.8257,4.8815,4.9693,4.9852,4.9879,4.9879,5.0012,5.0494,5.1201,5.1281,5.1763,5.2525,5.2525,5.2615,5.2781,5.3582,5.4383,5.5222,5.6022,5.6861,5.7624,5.7624,5.8214,5.9033,5.3103,5.298,5.2893,5.2893,5.2937,5.3163,5.3676,5.3478,5.3689,5.4629,5.5003,5.5302,5.5656,5.5826,5.5847,5.5741,5.492,5.4082,5.3281,5.3012,5.2671,5.207,5.1475,5.1141,5.1141,5.0946,5.0892,5.0892,5.0522,5.0029,4.9447,4.9044,4.8499,4.7865,4.7665,4.7327,4.6794,4.6158,4.5771,4.5581,4.4875,4.5263,4.6267,4.6109,4.6573,4.7204,4.7173,4.7108,4.701,4.6946,4.6946,4.6878,4.6024,4.6678,4.7861,4.8219,4.9308,5.0265,4.9767,4.9138,4.8802,4.9516,4.9222,4.8939,4.9258,4.8882,4.8572,4.899,4.8805,4.8506,4.8506,4.768,4.6916,4.6676,0.0,4.4931,4.5259,4.5184,4.5289,4.5722,4.6018,4.6308,4.6475,4.6215,4.5839,4.5482,4.5207,4.5073,4.5161,4.6465,4.7672,4.8776,4.9452,4.9762,4.9663,4.9778,4.9862,4.9862,4.9906,5.0415,5.1315,5.1342,5.2091,5.3438,5.3438,5.3704,5.4253,5.5157,5.5728,5.6044,5.7003,5.7805,5.8501,5.8557,5.912,5.9911,5.314,5.306,5.298,5.2893,5.2937,5.3156,5.3792,5.3434,5.3636,5.4984,5.5015,5.5188,5.5826,5.5613,5.5365,5.5205,5.4491,5.3654,5.2749,5.2678,5.2271,5.1489,5.1141,5.0927,5.0927,5.0729,5.0585,5.0564,5.032,4.9966,4.9465,4.9188,4.8799,4.8424,4.8049,4.7739,4.735,4.6465,4.6133,4.6118,4.5374,4.5719,4.681,4.6779,4.7242,4.7935,4.7869,4.7869,4.7869,4.7737,4.7803,4.7737,4.6913,4.7307,4.8362,4.9655,5.0553,5.118,5.0924,5.0537,5.0172,5.0253,5.0133,5.0056,5.0242,4.9745,4.9401,4.982,4.9555,4.9144,4.8938,4.8179,4.7596,4.7624,4.6715,4.6245,4.6984,4.6617,4.6434,4.6871,4.6943,4.7013,4.7256,4.7033,4.669,4.6227,4.596,4.5985,4.633,4.774,4.8871,4.9533,5.052,5.0836,5.0334,5.0191,5.0128,5.0185,5.0203,5.0865,5.2047,5.2047,5.2835,5.423,5.4496,5.4943,5.5541,5.6463,5.6968,5.7215,5.7957,5.8682,5.935,5.9435,5.9883,6.038,5.3371,5.3103,5.306,5.3146,5.2974,5.2893,5.3182,5.3543,5.408,5.4916,5.5437,5.598,5.6546,5.5883,5.5329,5.5205,5.4456,5.3618,5.2749,5.2251,5.179,5.1334,5.1176,5.0927,5.0585,5.0585,5.0564,5.0432,4.9667,4.95,4.9849,4.9183,4.9045,4.9471,4.9141,4.8578,4.7868,4.7191,4.6507,4.5967,4.5499,4.5831,4.6617,4.6454,4.698,4.7737,4.757,4.7604,4.7737,4.7537,4.7604,4.7572,4.6848,4.7533,4.8849,5.0553,5.1121,5.1251,5.1444,5.16,5.1508,5.0645,5.0989,5.1451,5.1157,5.0593,5.0394,5.1312,5.1066,5.0486,4.9837,4.982,4.9205,4.7146,4.6825,4.6903,4.7094,4.7131,4.75,4.8495,4.8605,4.8678,4.8855,4.8184,4.7701,4.7701,4.6987,4.6978,4.776,4.8744,4.9669,5.0355,5.1382,5.1931,5.1893,5.1199,5.0907,5.1017,5.1017,5.1954,5.3707,5.3707,5.4162,5.4958,5.583,5.6269,5.6367,5.7253,5.806,5.8829,5.8939,5.9473,6.0099,6.0264,6.0332,6.0332,5.3939,5.3383,5.298,5.293,5.285,5.2988,5.3661,5.3308,5.3244,5.4117,5.4641,5.4756,5.4317,5.4466,5.4311,5.353,5.2695,5.2271,5.2324,5.2411,5.2415,5.2228,5.1703,5.1311,5.122,5.0471,5.0357,5.0887,4.9976,4.9619,4.959,4.9231,4.9112,4.9107,4.8798,4.8207,4.735,4.7035,4.6839,4.6673,4.675,4.7307,4.8198,4.8554,4.8849,4.9253,4.9184,4.9321,4.9422,4.9253,4.8991,4.8663,4.8431,4.9493,5.0894,5.1397,5.2135,5.2706,5.236,5.2793,5.2946,5.1429,5.1257,5.1451,5.1157,5.1017,5.1067,5.1418,5.1066,5.0522,4.979,4.9442,4.8822,4.7806,4.7743,4.7821,4.7901,4.7939,4.8125,4.8569,4.8605,4.8678,4.8855,4.8184,4.7735,4.7802,4.7644,4.7639,4.7798,4.9342,5.0268,5.0393,5.1944,5.2531,5.1931,5.1732,5.1644,5.1706,5.1805,5.2802,5.4451,5.4451,5.5276,5.6664,5.6929,5.7074,5.7111,5.8038,5.857,5.8812,5.9596,5.9968,6.0175,6.0874,6.1133,6.1141,5.4825,5.4085,5.3449,5.3368,5.3024,5.2907,5.3462,5.2917,5.278,5.3614,5.3881,5.3936,5.3605,5.3698,5.3473,5.2802,5.2095,5.1917,5.2473,5.2846,5.2969,5.2814,5.2364,5.1983,5.1706,5.0986,5.0729,5.078,5.018,4.9684,4.9168,4.9073,4.8951,4.8798,4.8483,4.8122,4.7595,4.7274,4.7374,4.7671,4.7632,4.8184,4.901,4.9224,4.9562,4.9739,4.967,4.9912,5.0152,4.9981,4.9752,4.9591,4.9889,5.0757,5.1764,5.2133,5.2774,5.3315,5.3173,5.3574,5.3631,5.2191,5.1941,5.1835,5.1227,5.1141,5.1246,5.1454,5.1215,5.0843,5.0199,4.964,4.9068,4.8489,4.8543,4.8663,4.882,4.882,4.8897,4.9011,4.9049,4.9122,4.934,4.9154,4.9115,4.9219,4.9325,4.9325,4.9219,5.0623,5.1585,5.185,5.3331,5.4037,5.3883,5.3917,5.3644,5.3,5.3132,5.4101,5.5782,5.5813,5.6374,5.7422,5.7763,5.7914,5.7952,5.8881,5.926,5.9273,6.0327,6.07,6.0715,6.1614,6.1919,6.1888,5.5831,5.4899,5.4224,5.4143,5.3271,5.2672,5.287,5.2562,5.2582,5.3339,5.3239,5.3289,5.3794,5.3242,5.2798,5.2571,5.2251,5.2306,5.2904,5.3376,5.3521,5.3175,5.3112,5.274,5.1959,5.1884,5.1384,5.0459,5.0391,4.983,4.8841,4.8774,4.8681,4.8587,4.8294,4.8196,4.8198,4.7769,4.8064,4.8756,4.8334,4.8648,4.9375,4.9264,4.944,4.9796,4.9551,4.9866,5.0317,5.0113,5.0182,5.0518,5.1082,5.1453,5.1758,5.2633,5.3041,5.3315,5.3849,5.398,5.3832,5.3003,5.2834,5.2532,5.1368,5.1123,5.1229,5.1402,5.1505,5.1358,5.082,5.021,4.9686,4.9198,4.9222,4.9423,4.9661,4.9701,4.9703,4.982,4.982,4.9896,5.012,5.0787,5.1269,5.1379,5.1416,5.1416,5.1491,5.2344,5.3272,5.4166,5.5134,5.6065,5.6887,5.6887,5.6133,5.4731,5.4867,5.5762,5.7408,5.7466,5.7535,5.7649,5.8445,5.8786,5.8862,5.9678,5.9988,6.0107,6.1026,6.1406,6.1495,6.2389,6.2661,6.2596,5.6565,5.5302,5.418,5.4054,5.3226,5.2808,5.3406,5.2821,5.2582,5.3519,5.3387,5.3059,5.2543,5.2752,5.2533,5.1669,5.2039,5.2646,5.341,5.3742,5.3806,5.3611,5.3445,5.3045,5.2436,5.1727,5.1485,5.1595,5.0793,5.0159,4.9792,4.9094,4.906,4.9455,4.8332,4.8001,4.8392,4.8357,4.8354,4.8617,4.9336,4.9815,5.0156,5.0561,5.0936,5.1303,5.1303,5.152,5.181,5.1247,5.1413,5.1843,5.1413,5.1785,5.2424,5.28,5.3041,5.3247,5.3651,5.3849,5.3871,5.3506,5.348,5.3101,5.131,5.1088,5.1298,5.135,5.1607,5.1607,5.0964,5.0875,5.066,5.0039,5.0143,5.0346,5.0387,5.0468,5.0548,5.0628,5.0667,5.0745,5.0935,5.1195,5.1343,5.1416,5.1416,5.1676,5.2308,5.3273,5.4203,5.5025,5.6067,5.6699,5.6887,5.6887,5.6699,5.6396,5.6463,5.7058,5.814,5.824,5.8646,5.9355,5.9544,5.962,5.9658,5.9842,6.0297,6.0904,6.1191,6.1717,6.233,6.3237,6.3541,6.3508,5.7281,5.5871,5.4748,5.502,5.3971,5.3215,5.3592,5.3123,5.2774,5.2846,5.2664,5.2373,5.1943,5.2115,5.2057,5.167,5.252,5.3151,5.3445,5.3857,5.3915,5.355,5.345,5.3145,5.259,5.2065,5.1697,5.1525,5.0952,5.038,4.9879,4.9378,4.9181,4.9148,4.8425,4.8226,4.8486,4.8417,4.8772,4.942,4.9807,5.0293,5.083,5.0962,5.135,5.1794,5.1721,5.1941,5.2197,5.1943,5.2113,5.2449,5.2051,5.2557,5.3198,5.3073,5.3448,5.3855,5.3819,5.398,5.4068,5.3775,5.3783,5.338,5.1856,5.1616,5.167,5.1421,5.1556,5.1615,5.1418,5.1178,5.0967,5.0714,5.0853,5.1061,5.1188,5.1229,5.1458,5.2029,5.2103,5.2478,5.3415,5.3643,5.3757,5.3757,5.3757,5.3757,5.3757,5.469,5.5436,5.5884,5.6892,5.7639,5.8051,5.8051,5.8051,5.8051,5.778,5.8182,5.908,5.9143,5.9436,5.9885,5.9885,5.9885,5.9885,5.9885,6.0378,6.1136,6.1657,6.2302,6.3137,6.401,6.4313,6.4275,5.7408,5.6327,5.553,5.5946,5.4713,5.3736,5.3893,5.3567,5.3095,5.2601,5.2165,5.1886,5.1886,5.1627,5.16,5.2081,5.3021,5.3498,5.3432,5.3798,5.3815,5.3382,5.3315,5.3008,5.2449,5.2307,5.19,5.1125,5.1125,5.0654,4.985,4.972,4.9393,4.8973,4.8744,4.8678,4.874,4.8567,4.9213,5.0278,5.0005,5.0424,5.1124,5.0972,5.1275,5.1721,5.1704,5.2056,5.2521,5.2738,5.2881,5.299,5.299,5.3532,5.4112,5.3582,5.3956,5.4499,5.412,5.411,5.4195,5.407,5.4017,5.3788,5.281,5.2498,5.2289,5.1809,5.1876,5.2014,5.2122,5.1694,5.1369,5.142,5.1592,5.177,5.1944,5.2029,5.2449,5.3465,5.3658,5.4256,5.5751,5.5909,5.5874,5.5874,5.5986,5.5837,5.5243,5.6065,5.674,5.7005,5.7791,5.8578,5.929,5.929,5.929,5.9327,5.8945,5.916,5.9757,5.9786,5.9928,6.0113,6.0113,6.0113,6.0113,6.0113,6.0568,6.133,6.2088,6.2959,6.3833,6.4588,6.4888,6.4813,5.5871,5.5998,5.6004,5.528,5.4255,5.3966,5.5288,5.4151,5.3605,5.4927,5.3616,5.264,5.2707,5.1828,5.1579,5.2509,5.2612,5.303,5.3999,5.3715,5.3416,5.3247,5.2903,5.2483,5.1908,5.1835,5.1802,5.1704,5.1516,5.1303,5.095,5.0334,5.0302,5.0756,4.9668,4.944,4.988,4.988,4.9831,4.9941,5.0326,5.0647,5.0896,5.0896,5.1124,5.1564,5.2183,5.3147,5.4229,5.4376,5.4595,5.474,5.474,5.4879,5.4883,5.4496,5.4499,5.4568,5.4251,5.4303,5.4523,5.4791,5.4939,5.4874,5.4288,5.3808,5.321,5.2626,5.3242,5.3698,5.3203,5.3135,5.2943,5.2397,5.2481,5.2615,5.266,5.2834,5.3335,5.4312,5.4589,5.4785,5.5047,5.4496,5.4128,5.4128,5.4797,5.5466,5.6097,5.6958,5.7821,5.8648,5.8914,5.914,5.929,5.929,5.9365,5.9475,6.0114,6.0076,5.9547,5.9616,6.0062,6.0849,6.0849,6.088,6.0947,6.0947,6.1406,6.206,6.2173,6.3121,6.4483,6.4669,6.4779,6.4888,5.6098,5.6161,5.6273,5.6236,5.5437,5.5,5.5584,5.4912,5.4255,5.4025,5.321,5.25,5.2074,5.1812,5.2017,5.2625,5.2994,5.3237,5.3425,5.3511,5.345,5.3041,5.2764,5.234,5.1794,5.1794,5.1721,5.1466,5.1424,5.1275,5.1167,5.0455,5.026,5.0519,4.9556,4.9418,4.995,4.995,5.0252,5.0794,5.0959,5.1389,5.2055,5.1931,5.2211,5.2737,5.3258,5.378,5.4194,5.4675,5.4935,5.5113,5.5223,5.5598,5.5943,5.5376,5.5348,5.5383,5.4834,5.4583,5.4557,5.493,5.5053,5.5024,5.4605,5.4726,5.4611,5.3513,5.3725,5.4025,5.3821,5.3886,5.3734,5.3171,5.3179,5.3135,5.2834,5.3339,5.4179,5.5165,5.6261,5.6751,5.6388,5.6466,5.6543,5.6543,5.6878,5.7063,5.6989,5.7813,5.8306,5.8312,5.8914,5.9215,5.929,5.9778,6.0079,6.0116,6.0943,6.0943,6.0299,6.0787,6.0974,6.0931,6.0931,6.0667,6.0282,6.0282,6.1004,6.214,6.214,6.316,6.467,6.4707,6.4743,6.4779]},{"header":{"parameterUnit":"m.s-1","parameterCategory":1,"la1":30.6,"la2":28.766,"lo1":-90.7593,"lo2":-88.6598,"dy":0.0162,"dx":0.0183,"nx":116,"ny":114,"refTime":"2024-03-22T12:00:00:Z","depth":0,"parameterNumber":3,"parameterNumberName":"V-component_of_WINDS"},"data":[0.0,0.0,0.0,0.0,0.0,0.0,0.0,0.0,0.0,0.0,0.0,0.0,0.0,0.0,0.0,0.0,0.0,0.0,0.0,0.0,0.0,0.0,0.0,0.0,0.0,0.0,0.0,0.0,0.0,0.0,0.0,0.0,0.0,0.0,0.0,0.0,0.0,0.0,0.0,0.0,0.0,0.0,0.0,0.0,0.0,0.0,0.0,0.0,0.0,0.0,0.0,0.0,0.0,0.0,0.0,0.0,0.0,0.0,0.0,0.0,0.0,0.0,0.0,0.0,0.0,0.0,0.0,0.0,0.0,0.0,0.0,0.0,0.0,0.0,0.0,0.0,0.0,0.0,0.0,0.0,0.0,0.0,0.0,0.0,0.0,0.0,0.0,0.0,0.0,0.0,0.0,0.0,0.0,0.0,0.0,0.0,0.0,0.0,0.0,0.0,0.0,0.0,0.0,0.0,0.0,0.0,0.0,0.0,0.0,0.0,0.0,0.0,0.0,0.0,0.0,0.0,0.0,0.0,0.0,0.0,0.0,0.0,0.0,0.0,0.0,0.0,0.0,0.0,0.0,0.0,0.0,0.0,0.0,0.0,0.0,0.0,0.0,0.0,0.0,0.0,0.0,0.0,0.0,0.0,0.0,0.0,0.0,0.0,0.0,0.0,0.0,0.0,0.0,0.0,0.0,0.0,0.0,0.0,0.0,0.0,0.0,0.0,0.0,0.0,0.0,0.0,0.0,0.0,0.0,0.0,0.0,0.0,0.0,0.0,0.0,0.0,0.0,0.0,0.0,0.0,0.0,0.0,0.0,0.0,0.0,0.0,0.0,0.0,0.0,0.0,0.0,0.0,0.0,0.0,0.0,0.0,0.0,0.0,0.0,0.0,0.0,0.0,0.0,0.0,0.0,0.0,0.0,0.0,0.0,0.0,0.0,0.0,0.0,0.0,0.0,0.0,0.0,0.0,0.0,0.0,0.0,0.0,0.0,0.0,0.0,0.0,0.0,0.0,0.0,0.0,0.0,0.0,0.0,0.0,0.0,0.0,0.0,0.0,0.0,0.0,0.0,0.0,0.0,0.0,0.0,0.0,0.0,0.0,0.0,0.0,0.0,0.0,0.0,0.0,0.0,0.0,0.0,0.0,0.0,0.0,0.0,0.0,0.0,0.0,0.0,0.0,0.0,0.0,0.0,0.0,0.0,0.0,0.0,0.0,0.0,0.0,0.0,0.0,0.0,0.0,0.0,0.0,0.0,0.0,0.0,0.0,0.0,0.0,0.0,0.0,0.0,0.0,0.0,0.0,0.0,0.0,0.0,0.0,0.0,0.0,0.0,0.0,0.0,0.0,0.0,0.0,0.0,0.0,0.0,0.0,0.0,0.0,0.0,0.0,0.0,0.0,0.0,0.0,0.0,0.0,0.0,0.0,0.0,0.0,0.0,0.0,0.0,0.0,0.0,0.0,0.0,0.0,0.0,0.0,0.0,0.0,0.0,0.0,0.0,0.0,0.0,0.0,0.0,0.0,0.0,0.0,0.0,0.0,0.0,0.0,0.0,0.0,0.0,0.0,0.0,0.0,0.0,0.0,0.0,0.0,0.0,0.0,0.0,0.0,0.0,0.0,0.0,0.0,0.0,0.0,0.0,0.0,0.0,0.0,0.0,0.0,0.0,0.0,0.0,0.0,0.0,0.0,0.0,0.0,0.0,0.0,0.0,0.0,0.0,0.0,0.0,0.0,0.0,0.0,0.0,0.0,0.0,0.0,0.0,0.0,0.0,0.0,0.0,0.0,0.0,0.0,0.0,0.0,0.0,0.0,0.0,0.0,0.0,0.0,0.0,0.0,0.0,0.0,0.0,0.0,0.0,0.0,0.0,0.0,0.0,0.0,0.0,0.0,0.0,0.0,0.0,0.0,0.0,0.0,0.0,0.0,0.0,0.0,0.0,0.0,0.0,0.0,0.0,0.0,0.0,0.0,0.0,0.0,0.0,0.0,0.0,0.0,0.0,0.0,0.0,0.0,0.0,0.0,0.0,0.0,0.0,0.0,0.0,0.0,0.0,0.0,0.0,0.0,0.0,0.0,0.0,0.0,0.0,0.0,0.0,0.0,0.0,0.0,0.0,0.0,0.0,0.0,0.0,0.0,0.0,0.0,0.0,0.0,0.0,0.0,0.0,0.0,0.0,0.0,0.0,0.0,0.0,0.0,0.0,0.0,0.0,0.0,0.0,0.0,0.0,0.0,0.0,0.0,0.0,0.0,0.0,0.0,0.0,0.0,0.0,0.0,0.0,0.0,0.0,0.0,0.0,0.0,0.0,0.0,0.0,0.0,0.0,0.0,0.0,0.0,0.0,0.0,0.0,0.0,0.0,0.0,0.0,0.0,0.0,0.0,0.0,0.0,0.0,0.0,0.0,0.0,0.0,0.0,0.0,0.0,0.0,0.0,0.0,0.0,0.0,0.0,0.0,0.0,0.0,0.0,0.0,0.0,0.0,0.0,0.0,0.0,0.0,0.0,0.0,0.0,0.0,0.0,0.0,0.0,0.0,0.0,0.0,0.0,0.0,0.0,0.0,0.0,0.0,0.0,0.0,0.0,0.0,0.0,0.0,0.0,0.0,0.0,0.0,0.0,0.0,0.0,0.0,0.0,0.0,0.0,0.0,0.0,0.0,0.0,0.0,0.0,0.0,0.0,0.0,0.0,0.0,0.0,0.0,0.0,0.0,0.0,0.0,0.0,0.0,0.0,0.0,0.0,0.0,0.0,0.0,0.0,0.0,0.0,0.0,0.0,0.0,0.0,0.0,0.0,0.0,0.0,0.0,0.0,0.0,0.0,0.0,0.0,0.0,0.0,0.0,0.0,0.0,0.0,0.0,0.0,0.0,0.0,0.0,0.0,0.0,0.0,0.0,0.0,0.0,0.0,0.0,0.0,0.0,0.0,0.0,0.0,0.0,0.0,0.0,0.0,0.0,0.0,0.0,0.0,0.0,0.0,0.0,0.0,0.0,0.0,0.0,0.0,0.0,0.0,0.0,0.0,0.0,0.0,0.0,0.0,0.0,0.0,0.0,0.0,0.0,0.0,0.0,0.0,0.0,0.0,0.0,0.0,0.0,0.0,0.0,0.0,0.0,0.0,0.0,0.0,0.0,0.0,0.0,0.0,0.0,0.0,0.0,0.0,0.0,0.0,0.0,0.0,0.0,0.0,0.0,0.0,0.0,0.0,0.0,0.0,0.0,0.0,0.0,0.0,0.0,0.0,0.0,0.0,0.0,0.0,0.0,0.0,0.0,0.0,0.0,0.0,0.0,0.0,0.0,0.0,0.0,0.0,0.0,0.0,0.0,0.0,0.0,0.0,0.0,0.0,0.0,0.0,0.0,0.0,0.0,0.0,0.0,0.0,0.0,0.0,0.0,0.0,0.0,0.0,0.0,0.0,0.0,0.0,0.0,0.0,0.0,0.0,0.0,0.0,0.0,0.0,0.0,0.0,0.0,0.0,0.0,0.0,0.0,0.0,0.0,0.0,0.0,0.0,0.0,0.0,0.0,0.0,0.0,0.0,0.0,0.0,0.0,0.0,0.0,0.0,0.0,0.0,0.0,0.0,0.0,0.0,0.0,0.0,0.0,0.0,0.0,0.0,0.0,0.0,0.0,0.0,0.0,0.0,0.0,0.0,0.0,0.0,0.0,0.0,0.0,0.0,0.0,0.0,0.0,0.0,0.0,0.0,0.0,0.0,0.0,0.0,0.0,0.0,0.0,0.0,0.0,0.0,0.0,0.0,0.0,0.0,0.0,0.0,0.0,0.0,0.0,0.0,0.0,0.0,0.0,0.0,0.0,0.0,0.0,0.0,0.0,0.0,0.0,0.0,0.0,0.0,0.0,0.0,0.0,0.0,0.0,0.0,0.0,0.0,0.0,0.0,0.0,0.0,0.0,0.0,0.0,0.0,0.0,0.0,0.0,0.0,0.0,0.0,0.0,0.0,0.0,0.0,0.0,0.0,0.0,0.0,0.0,0.0,0.0,0.0,0.0,0.0,0.0,0.0,0.0,0.0,0.0,0.0,0.0,0.0,0.0,0.0,0.0,0.0,0.0,0.0,0.0,0.0,0.0,0.0,0.0,0.0,0.0,0.0,0.0,0.0,0.0,0.0,0.0,0.0,0.0,0.0,0.0,0.0,0.0,0.0,0.0,0.0,0.0,0.0,0.0,0.0,0.0,0.0,0.0,0.0,0.0,0.0,0.0,0.0,0.0,0.0,0.0,0.0,0.0,0.0,0.0,0.0,0.0,0.0,0.0,0.0,0.0,0.0,0.0,0.0,0.0,0.0,0.0,0.0,0.0,0.0,0.0,0.0,0.0,0.0,0.0,0.0,0.0,0.0,0.0,0.0,0.0,0.0,0.0,0.0,0.0,0.0,0.0,0.0,0.0,0.0,0.0,0.0,0.0,0.0,0.0,0.0,0.0,0.0,0.0,0.0,0.0,0.0,0.0,0.0,0.0,0.0,0.0,0.0,0.0,0.0,0.0,0.0,0.0,0.0,0.0,0.0,0.0,0.0,0.0,0.0,0.0,0.0,0.0,0.0,0.0,0.0,0.0,0.0,0.0,0.0,0.0,0.0,0.0,0.0,0.0,0.0,0.0,0.0,0.0,0.0,0.0,0.0,0.0,0.0,0.0,0.0,0.0,0.0,0.0,0.0,0.0,0.0,0.0,0.0,0.0,0.0,0.0,0.0,0.0,0.0,0.0,0.0,0.0,0.0,0.0,0.0,0.0,0.0,0.0,0.0,0.0,0.0,0.0,0.0,0.0,0.0,0.0,0.0,0.0,0.0,0.0,0.0,0.0,0.0,0.0,0.0,0.0,0.0,0.0,0.0,0.0,0.0,0.0,0.0,0.0,0.0,0.0,0.0,0.0,0.0,0.0,0.0,0.0,0.0,0.0,0.0,0.0,0.0,0.0,0.0,0.0,0.0,0.0,0.0,0.0,0.0,0.0,0.0,0.0,0.0,0.0,0.0,0.0,0.0,0.0,0.0,0.0,0.0,0.0,0.0,0.0,0.0,0.0,0.0,0.0,0.0,0.0,0.0,0.0,0.0,0.0,0.0,0.0,0.0,0.0,0.0,0.0,0.0,0.0,0.0,0.0,0.0,0.0,0.0,0.0,0.0,0.0,0.0,0.0,0.0,0.0,0.0,0.0,0.0,0.0,0.0,0.0,0.0,0.0,0.0,0.0,0.0,0.0,0.0,0.0,0.0,0.0,0.0,0.0,0.0,0.0,0.0,0.0,0.0,0.0,0.0,0.0,0.0,0.0,0.0,0.0,0.0,0.0,0.0,0.0,0.0,0.0,0.0,0.0,0.0,0.0,0.0,0.0,0.0,0.0,0.0,0.0,0.0,0.0,0.0,0.0,0.0,0.0,0.0,0.0,0.0,0.0,0.0,0.0,0.0,0.0,0.0,0.0,0.0,0.0,0.0,0.0,0.0,0.0,0.0,0.0,0.0,0.0,0.0,0.0,0.0,0.0,0.0,0.0,0.0,0.0,0.0,0.0,0.0,0.0,0.0,0.0,0.0,0.0,0.0,0.0,0.0,0.0,0.0,0.0,0.0,0.0,0.0,0.0,0.0,0.0,0.0,0.0,0.0,0.0,0.0,0.0,0.0,0.0,0.0,0.0,0.0,0.0,0.0,0.0,0.0,0.0,0.0,0.0,0.0,0.0,0.0,0.0,0.0,0.0,0.0,0.0,0.0,0.0,0.0,0.0,0.0,0.0,0.0,0.0,0.0,0.0,0.0,0.0,0.0,0.0,0.0,0.0,0.0,0.0,0.0,0.0,0.0,0.0,0.0,0.0,0.0,0.0,0.0,0.0,0.0,0.0,0.0,0.0,0.0,0.0,0.0,0.0,0.0,0.0,0.0,0.0,0.0,0.0,0.0,0.0,0.0,0.0,0.0,0.0,0.0,0.0,0.0,0.0,0.0,0.0,0.0,0.0,0.0,0.0,0.0,0.0,0.0,0.0,0.0,0.0,0.0,0.0,0.0,0.0,0.0,0.0,0.0,0.0,0.0,0.0,0.0,0.0,0.0,0.0,0.0,0.0,0.0,0.0792,0.0,0.0,0.0,0.0,0.0,0.0,0.0,0.0,0.0,0.0,0.0,0.0,0.0,0.0,0.0,0.0,0.0,0.0,0.0,0.0,0.0,0.0,0.0,0.0,0.0,0.0,0.0,0.0,0.0,0.0,0.0,0.0,0.0,0.0,0.0,0.2588,0.2526,0.2561,0.2766,0.2659,0.2785,0.3078,0.2788,0.2624,0.2577,0.0,0.0,0.0,0.0,0.0,0.0,0.0,0.0,0.0,0.0,0.0,0.0,0.0,0.0,0.0,0.0,0.0,0.0,0.0,0.0,0.0,0.0,0.0,0.0,0.0,0.0,0.0,0.0,0.0,0.0,0.0,0.0,0.0,0.0,0.0,0.0,0.0,0.0,0.0,0.0,0.0,0.0,0.0,0.0,0.0,0.0,0.0,0.0,0.0,0.0,0.0,0.0,0.0,0.0,0.0,0.0,0.0,0.0,0.0,0.0,0.0,0.0,0.0,0.0,0.0,0.0,0.0,0.0,0.0,0.0,0.0,0.1154,0.0,0.0,0.0,0.0,0.0,0.0,0.0,0.0,0.0,0.0,0.0,0.0,0.0,0.0,0.0,0.0,0.0,0.0,0.0,0.0,0.0,0.0,0.0,0.2868,0.2968,0.3055,0.3087,0.3136,0.0,0.0,0.0,0.0,0.0,0.0,0.2709,0.2724,0.2774,0.2931,0.2986,0.3164,0.3467,0.3322,0.3253,0.3193,0.2795,0.0,0.0,0.0,0.0,0.0,0.0,0.0,0.0,0.0,0.0,0.0,0.0,0.0,0.0,0.0,0.0,0.0,0.0,0.0,0.0,0.0,0.0,0.0,0.0,0.0,0.0,0.0,0.0,0.0,0.0,0.0,0.0,0.0,0.0,0.0,0.0,0.0,0.0,0.0,0.0,0.0,0.0,0.0,0.0,0.0,0.0,0.0,0.0,0.0,0.0,0.0,0.0,0.0,0.0,0.0,0.0,0.0,0.0,0.0,0.0,0.0,0.0,0.0,0.1672,0.158,0.1483,0.1534,0.1546,0.1428,0.1429,0.1483,0.1581,0.0,0.0,0.0,0.0,0.0,0.0,0.0,0.0,0.0,0.0,0.0,0.0,0.0,0.0,0.0,0.0,0.0,0.0,0.0,0.0,0.291,0.2962,0.3202,0.3288,0.3181,0.3275,0.3328,0.3328,0.0,0.0,0.0,0.0,0.3119,0.3027,0.3103,0.3227,0.3391,0.3698,0.3898,0.4087,0.374,0.3758,0.4058,0.3104,0.295,0.3392,0.0,0.0,0.0,0.0,0.0,0.0,0.0,0.0,0.0,0.0,0.0,0.0,0.0,0.0,0.0,0.0,0.0,0.0,0.0,0.0,0.0,0.0,0.0,0.0,0.0,0.0,0.0,0.0,0.0,0.0,0.0,0.0,0.0,0.0,0.0,0.0,0.0,0.0,0.0,0.0,0.0,0.2052,0.1834,0.0,0.0,0.0,0.0,0.0,0.0,0.0,0.0,0.0,0.0,0.0,0.0,0.0,0.1586,0.158,0.1632,0.165,0.1735,0.1789,0.1695,0.1669,0.1677,0.1693,0.1715,0.1726,0.0,0.1656,0.1612,0.0,0.0,0.0,0.0,0.0,0.0,0.0,0.0,0.0,0.0,0.0,0.0,0.0,0.0,0.0,0.0,0.0,0.0,0.0,0.0,0.0,0.3322,0.3522,0.3593,0.3687,0.3675,0.352,0.3511,0.0,0.0,0.3139,0.3163,0.3107,0.3263,0.3544,0.3879,0.4238,0.4434,0.4479,0.4234,0.4388,0.4671,0.3901,0.3737,0.3929,0.3557,0.0,0.0,0.0,0.0,0.0,0.0,0.0,0.0,0.0,0.0,0.0,0.0,0.0,0.0,0.0,0.0,0.0,0.0,0.0,0.0,0.0,0.0,0.0,0.0,0.0,0.0,0.0,0.0,0.0,0.0,0.0,0.0,0.0,0.0,0.0,0.0,0.0,0.0,0.0,0.2264,0.2208,0.215,0.1848,0.1687,0.0,0.0,0.0,0.0,0.0,0.0,0.0,0.0,0.0,0.158,0.1598,0.165,0.1741,0.175,0.1783,0.1839,0.204,0.2049,0.1855,0.205,0.205,0.1853,0.1866,0.18,0.1786,0.1656,0.1577,0.1467,0.0,0.0,0.0,0.0,0.1388,0.1589,0.0,0.0,0.0,0.0,0.0,0.0,0.0,0.0,0.0,0.0,0.0,0.0,0.3402,0.3589,0.3744,0.3952,0.401,0.3948,0.3744,0.3667,0.3443,0.3135,0.3171,0.3191,0.3117,0.3479,0.3883,0.4308,0.4622,0.4785,0.4814,0.464,0.4802,0.501,0.4574,0.4511,0.452,0.4118,0.3894,0.3789,0.0,0.0,0.0,0.0,0.0,0.0,0.0,0.0,0.0,0.0,0.0,0.0,0.0,0.0,0.0,0.0,0.0,0.0,0.0,0.0,0.0,0.0,0.0,0.0,0.0,0.0,0.0,0.0,0.0,0.0,0.0,0.0,0.0,0.0,0.0,0.0,0.0,0.2381,0.2364,0.2349,0.2155,0.1998,0.0,0.0,0.0,0.0,0.0,0.0,0.1878,0.1713,0.166,0.1729,0.1759,0.1813,0.1896,0.1874,0.1909,0.1999,0.2292,0.2295,0.2122,0.244,0.2425,0.2198,0.2076,0.2044,0.1984,0.1785,0.1693,0.1599,0.1531,0.1376,0.1156,0.1474,0.1602,0.1634,0.0,0.0,0.0,0.0,0.0,0.0,0.0,0.0,0.0,0.0,0.0,0.3647,0.3956,0.3949,0.4027,0.4136,0.4083,0.403,0.4014,0.3773,0.3544,0.3365,0.3275,0.323,0.3167,0.3826,0.4316,0.4679,0.4867,0.5002,0.5088,0.4778,0.4888,0.5104,0.487,0.4893,0.5062,0.443,0.4293,0.434,0.372,0.0,0.0,0.0,0.0,0.0,0.0,0.0,0.0,0.0,0.0,0.0,0.0,0.0,0.0,0.0,0.0,0.0,0.0,0.0,0.0,0.0,0.0,0.0,0.0,0.0,0.0,0.0,0.0,0.0,0.0,0.0,0.0,0.0,0.0,0.0,0.0,0.0,0.0,0.2566,0.2666,0.0,0.0,0.0,0.0,0.2095,0.1807,0.1648,0.1842,0.1767,0.1825,0.1914,0.1947,0.1992,0.2052,0.205,0.2053,0.206,0.2441,0.2569,0.2575,0.2957,0.3062,0.3022,0.2644,0.2494,0.2454,0.2021,0.1806,0.1697,0.1692,0.1655,0.1607,0.1639,0.1652,0.1658,0.0,0.0,0.0,0.0,0.0,0.0,0.0,0.0,0.2722,0.2799,0.3299,0.3648,0.3865,0.4068,0.4372,0.45,0.4487,0.4393,0.4218,0.398,0.3764,0.3697,0.3564,0.3572,0.3908,0.4312,0.4634,0.4879,0.4845,0.4947,0.5198,0.4924,0.4951,0.5288,0.5206,0.5222,0.5312,0.487,0.4806,0.4948,0.436,0.3949,0.0,0.0,0.0,0.0,0.0,0.0,0.0,0.0,0.0,0.0,0.0,0.0,0.0,0.0,0.0,0.0,0.0,0.0,0.0,0.0,0.0,0.0,0.0,0.0,0.0,0.0,0.0,0.0,0.0,0.0,0.0,0.0,0.0,0.0,0.0,0.0,0.0,0.3075,0.2991,0.0,0.2979,0.2695,0.2414,0.2443,0.2196,0.2151,0.2095,0.2031,0.1963,0.2015,0.2027,0.2052,0.2093,0.2074,0.2213,0.252,0.2734,0.2996,0.3047,0.3222,0.3315,0.3069,0.2759,0.2479,0.2466,0.2074,0.1884,0.179,0.177,0.1726,0.1674,0.1685,0.1701,0.172,0.0,0.0,0.0,0.0,0.0,0.0,0.0,0.0,0.2715,0.2739,0.3279,0.3747,0.3943,0.4218,0.452,0.4732,0.4696,0.4585,0.4402,0.4193,0.3955,0.3843,0.3768,0.3872,0.4332,0.4643,0.4883,0.5063,0.4998,0.5068,0.5292,0.5127,0.5154,0.5382,0.5382,0.5493,0.5477,0.5153,0.5231,0.5359,0.4795,0.4518,0.4471,0.0,0.0,0.0,0.0,0.0,0.0,0.0,0.0,0.0,0.0,0.0,0.0,0.0,0.0,0.0,0.0,0.0,0.0,0.0,0.0,0.0,0.0,0.0,0.0,0.0,0.0,0.0,0.0,0.0,0.0,0.0,0.0,0.0,0.0,0.0,0.3202,0.3362,0.3395,0.3337,0.3262,0.3117,0.295,0.2851,0.2601,0.243,0.2466,0.2158,0.2074,0.2094,0.2105,0.212,0.2139,0.2109,0.2247,0.2559,0.2907,0.3173,0.3226,0.3661,0.3613,0.3479,0.3032,0.2738,0.259,0.2469,0.2176,0.1868,0.1838,0.1794,0.1749,0.1738,0.1748,0.1764,0.0,0.0,0.0,0.0,0.0,0.0,0.2156,0.2533,0.2893,0.3087,0.348,0.3895,0.4372,0.4418,0.4545,0.481,0.4675,0.4573,0.4573,0.4321,0.4099,0.3851,0.3867,0.4091,0.4442,0.4798,0.5067,0.5247,0.5341,0.5386,0.5386,0.539,0.539,0.539,0.5386,0.5493,0.5819,0.5397,0.5252,0.5373,0.5174,0.5064,0.5018,0.0,0.0,0.0,0.0,0.0,0.0,0.0,0.0,0.0,0.0,0.0,0.0,0.0,0.0,0.0,0.0,0.0,0.0,0.0,0.0,0.0,0.0,0.0,0.0,0.0,0.0,0.0,0.0,0.0,0.0,0.0,0.0,0.0,0.3525,0.3318,0.3379,0.3496,0.367,0.3733,0.3616,0.3528,0.3405,0.3455,0.3007,0.2671,0.258,0.2388,0.2291,0.2291,0.2185,0.22,0.22,0.217,0.2155,0.229,0.2825,0.3228,0.3228,0.39,0.424,0.4128,0.3739,0.3424,0.2962,0.2962,0.2571,0.1929,0.1899,0.1869,0.1838,0.1809,0.1798,0.1794,0.0,0.0,0.0,0.0,0.0,0.0,0.2018,0.2578,0.2943,0.2859,0.3546,0.4128,0.4466,0.4567,0.471,0.5018,0.4772,0.4664,0.4853,0.4342,0.406,0.4023,0.4351,0.4594,0.4818,0.5051,0.5226,0.5345,0.5209,0.5248,0.5475,0.5315,0.5342,0.5569,0.5504,0.5471,0.5581,0.5601,0.5713,0.5901,0.5663,0.5674,0.5736,0.0,0.0,0.0,0.0,0.0,0.0,0.0,0.0,0.0,0.0,0.0,0.0,0.0,0.0,0.0,0.0,0.0,0.0,0.0,0.0,0.0,0.0,0.0,0.0,0.0,0.0,0.0,0.0,0.0,0.0,0.0,0.4007,0.4031,0.3849,0.3908,0.392,0.3812,0.3946,0.4014,0.3981,0.3896,0.3804,0.3565,0.323,0.3004,0.3015,0.2828,0.2735,0.3006,0.3017,0.2886,0.2613,0.2577,0.2559,0.2559,0.2961,0.3362,0.3631,0.3996,0.4224,0.4188,0.3754,0.3572,0.3387,0.3137,0.2985,0.2693,0.2411,0.2255,0.2224,0.2213,0.221,0.2205,0.0,0.0,0.0,0.0,0.0,0.0,0.1969,0.2513,0.291,0.2907,0.3513,0.4143,0.4619,0.458,0.4668,0.5103,0.4884,0.4669,0.4767,0.4363,0.432,0.4547,0.4626,0.4847,0.5026,0.5243,0.5382,0.5435,0.541,0.5334,0.5565,0.5389,0.5412,0.5643,0.5706,0.5775,0.5733,0.5908,0.6163,0.6389,0.6363,0.6453,0.6569,0.6446,0.6222,0.5947,0.579,0.5571,0.5261,0.5156,0.0,0.0,0.0,0.0,0.0,0.0,0.0,0.0,0.0,0.0,0.0,0.0,0.0,0.0,0.0,0.0,0.0,0.0,0.0,0.0,0.0,0.0,0.0,0.0,0.4564,0.4582,0.4352,0.4199,0.4131,0.4008,0.4085,0.4125,0.4125,0.415,0.4034,0.3901,0.3562,0.3468,0.3488,0.3152,0.3196,0.3353,0.3353,0.3215,0.2796,0.2759,0.2595,0.2446,0.2987,0.3382,0.3497,0.4003,0.424,0.0,0.3917,0.3729,0.3534,0.3534,0.3251,0.0,0.0,0.0,0.0,0.0,0.2358,0.2355,0.0,0.0,0.0,0.0,0.0,0.0,0.1988,0.2427,0.2855,0.3058,0.3547,0.4044,0.4673,0.4533,0.4539,0.5016,0.4939,0.4714,0.4541,0.455,0.4732,0.5101,0.4929,0.4961,0.5137,0.539,0.5524,0.5524,0.5614,0.5659,0.5659,0.5671,0.5676,0.5676,0.5903,0.6085,0.6001,0.6331,0.6502,0.6751,0.7198,0.7259,0.7229,0.7229,0.7176,0.7118,0.6766,0.6472,0.6121,0.565,0.0,0.0,0.0,0.0,0.0,0.0,0.0,0.0,0.0,0.0,0.0,0.0,0.0,0.0,0.0,0.0,0.0,0.0,0.0,0.0,0.0,0.0,0.0,0.0,0.5158,0.5303,0.5053,0.4478,0.4027,0.4125,0.4142,0.4145,0.4145,0.4202,0.4237,0.4237,0.4019,0.3799,0.3991,0.0,0.0,0.0,0.0,0.3432,0.3004,0.2963,0.2647,0.22,0.3023,0.3273,0.3228,0.4037,0.4278,0.4226,0.4226,0.4028,0.3544,0.392,0.3631,0.3081,0.3039,0.3022,0.2895,0.2614,0.2485,0.237,0.0,0.0,0.0,0.0,0.0,0.0,0.2108,0.2663,0.3045,0.3062,0.3559,0.4077,0.4643,0.4428,0.4554,0.5368,0.5017,0.4759,0.4984,0.505,0.5106,0.5129,0.5085,0.5214,0.5324,0.5516,0.5618,0.5618,0.5708,0.5753,0.5757,0.5831,0.5863,0.5863,0.5906,0.5983,0.6314,0.6467,0.6768,0.7096,0.7673,0.7691,0.7373,0.7672,0.7699,0.7497,0.7205,0.7364,0.7604,0.7076,0.6989,0.7065,0.6551,0.5924,0.0,0.0,0.0,0.0,0.0,0.0,0.0,0.0,0.0,0.0,0.0,0.0,0.0,0.0,0.0,0.0,0.0,0.0,0.0,0.5541,0.5486,0.5489,0.5478,0.5219,0.4888,0.4202,0.4243,0.4273,0.4273,0.4327,0.4362,0.4362,0.41,0.3991,0.4324,0.406,0.3949,0.443,0.4004,0.372,0.3432,0.3388,0.3064,0.2613,0.0,0.0,0.3633,0.4171,0.43,0.4289,0.4289,0.4221,0.3981,0.4109,0.392,0.3702,0.3444,0.3441,0.3311,0.3261,0.3026,0.2808,0.0,0.0,0.0,0.0,0.0,0.0,0.2102,0.2555,0.2956,0.3062,0.3397,0.3826,0.4353,0.4267,0.4338,0.4939,0.4816,0.4879,0.5359,0.5305,0.5349,0.5505,0.538,0.5377,0.5508,0.5598,0.5667,0.5712,0.5757,0.5827,0.5916,0.5916,0.5941,0.5982,0.6254,0.6426,0.6497,0.6921,0.7338,0.763,0.7979,0.8208,0.8152,0.837,0.8244,0.8069,0.781,0.8075,0.8342,0.7738,0.77,0.7924,0.7465,0.6753,0.6007,0.0,0.0,0.0,0.0,0.0,0.0,0.0,0.0,0.0,0.0,0.0,0.0,0.0,0.0,0.5903,0.5904,0.0,0.626,0.6174,0.5908,0.5778,0.5773,0.5597,0.5232,0.453,0.4687,0.4708,0.4574,0.4603,0.4623,0.4623,0.4379,0.4284,0.448,0.4372,0.4414,0.4616,0.4475,0.4189,0.3754,0.3729,0.3539,0.3055,0.361,0.3847,0.3768,0.4174,0.4308,0.4308,0.4308,0.4237,0.412,0.4063,0.4003,0.3828,0.3704,0.3702,0.3699,0.3549,0.3309,0.2958,0.0,0.0,0.0,0.0,0.0,0.0,0.0,0.2505,0.2809,0.3058,0.3234,0.3576,0.4146,0.402,0.411,0.4457,0.4678,0.5136,0.5735,0.5467,0.548,0.5941,0.5647,0.55,0.5643,0.5663,0.5716,0.5806,0.579,0.5867,0.6027,0.5953,0.6081,0.6148,0.669,0.685,0.689,0.7376,0.7795,0.8054,0.8407,0.8629,0.8955,0.9078,0.8895,0.8647,0.8408,0.8478,0.8628,0.8073,0.818,0.847,0.7987,0.7361,0.6761,0.6296,0.564,0.0,0.0,0.0,0.0,0.0,0.0,0.0,0.0,0.5837,0.6099,0.6283,0.6732,0.7038,0.6904,0.7069,0.7133,0.6777,0.6421,0.6153,0.6027,0.5781,0.5513,0.5108,0.5245,0.5245,0.4973,0.4986,0.4867,0.4879,0.4661,0.4583,0.4515,0.4695,0.4746,0.4662,0.4665,0.4371,0.408,0.408,0.3884,0.3505,0.3785,0.4008,0.3902,0.4174,0.4308,0.4305,0.4283,0.4215,0.4117,0.4,0.3951,0.3951,0.3951,0.3951,0.3828,0.3702,0.3332,0.296,0.0,0.0,0.0,0.0,0.0,0.0,0.0,0.0,0.2879,0.3066,0.3177,0.3453,0.4017,0.3962,0.4036,0.4603,0.5141,0.5513,0.5866,0.5718,0.5808,0.6273,0.5886,0.5743,0.5998,0.5843,0.581,0.59,0.5823,0.5835,0.5933,0.6166,0.6407,0.6421,0.678,0.7016,0.7368,0.7368,0.785,0.8326,0.869,0.8973,0.9097,0.9696,0.9511,0.911,0.866,0.8649,0.8815,0.8157,0.8371,0.8718,0.8174,0.7672,0.7285,0.6926,0.6083,0.5372,0.5402,0.5413,0.5466,0.5667,0.5996,0.6399,0.0,0.7449,0.7527,0.7809,0.7879,0.7852,0.7789,0.7376,0.7022,0.7169,0.6705,0.6431,0.6451,0.6455,0.6183,0.5778,0.5513,0.5379,0.5379,0.544,0.5234,0.5017,0.5311,0.5232,0.4638,0.5033,0.5033,0.4662,0.4371,0.408,0.408,0.408,0.4028,0.3785,0.4205,0.4422,0.4308,0.4308,0.4308,0.43,0.4194,0.4139,0.4117,0.4,0.3951,0.3951,0.3951,0.3951,0.3951,0.3828,0.3455,0.296,0.0,0.0,0.0,0.0,0.0,0.0,0.0,0.0,0.2751,0.2993,0.3091,0.333,0.3673,0.3756,0.3975,0.4482,0.4893,0.5331,0.5877,0.5758,0.5898,0.624,0.5851,0.5671,0.5962,0.5708,0.5745,0.5839,0.5988,0.5988,0.6077,0.6254,0.6526,0.6653,0.6775,0.7143,0.7388,0.7755,0.8244,0.8732,0.922,0.9493,0.9591,0.9856,0.9631,0.9231,0.8742,0.8714,0.0,0.8254,0.8308,0.8474,0.8283,0.7716,0.7224,0.7074,0.6621,0.622,0.6294,0.6337,0.6428,0.6813,0.7196,0.7521,0.8049,0.8208,0.8317,0.8338,0.8543,0.8634,0.8384,0.8057,0.7581,0.7365,0.7116,0.68,0.6533,0.6533,0.6513,0.6325,0.6095,0.5972,0.5651,0.5545,0.5457,0.567,0.558,0.5373,0.5039,0.5057,0.5075,0.4665,0.4517,0.4517,0.4517,0.4517,0.4315,0.4205,0.4482,0.4558,0.4574,0.444,0.4289,0.4248,0.4164,0.4106,0.4065,0.3984,0.3951,0.3951,0.3951,0.3951,0.3951,0.3951,0.3579,0.296,0.0,0.0,0.0,0.0,0.0,0.0,0.0,0.0,0.0,0.0,0.3034,0.3188,0.3485,0.3694,0.39,0.4227,0.4548,0.4986,0.5636,0.5557,0.5733,0.6132,0.5777,0.5602,0.586,0.5748,0.5756,0.5898,0.6138,0.6242,0.6336,0.6556,0.6729,0.6977,0.7128,0.7266,0.7627,0.8122,0.861,0.8976,0.9539,0.9792,0.987,0.986,0.9543,0.9012,0.8762,0.8508,0.835,0.8028,0.7984,0.8081,0.7966,0.75,0.7149,0.7101,0.7025,0.6892,0.6783,0.6907,0.7164,0.7685,0.8157,0.8484,0.8602,0.8817,0.9033,0.894,0.908,0.9026,0.8816,0.8258,0.7821,0.7592,0.7323,0.6996,0.6727,0.6727,0.6702,0.65,0.6389,0.6254,0.6053,0.5803,0.5858,0.6099,0.6005,0.5648,0.517,0.5367,0.5247,0.4665,0.481,0.481,0.4665,0.4649,0.4594,0.4507,0.4474,0.4541,0.4705,0.4423,0.4259,0.4213,0.4153,0.409,0.403,0.3973,0.3951,0.3951,0.3951,0.3951,0.3951,0.3951,0.3579,0.296,0.0,0.0,0.0,0.0,0.0,0.0,0.0,0.0,0.0,0.0,0.0,0.0,0.3485,0.3694,0.3804,0.3913,0.4208,0.4639,0.5116,0.5111,0.549,0.622,0.5589,0.5493,0.6116,0.593,0.597,0.6133,0.6295,0.6479,0.6471,0.6931,0.722,0.7225,0.7696,0.7872,0.7872,0.8244,0.861,0.8964,0.9433,0.9523,0.9456,0.9779,0.9086,0.8106,0.8384,0.8113,0.7617,0.7611,0.7597,0.7436,0.6986,0.6972,0.717,0.7131,0.7086,0.6885,0.6567,0.7012,0.7628,0.8053,0.8487,0.9049,0.9483,0.9693,0.9842,0.9875,0.9645,0.9239,0.8869,0.7941,0.7365,0.7369,0.7277,0.7133,0.7133,0.7133,0.6996,0.6586,0.6238,0.6049,0.0,0.6533,0.6521,0.6267,0.6493,0.6237,0.5238,0.5974,0.5829,0.4665,0.4956,0.4956,0.4665,0.4605,0.4575,0.457,0.4455,0.4368,0.4305,0.4245,0.4218,0.4213,0.4153,0.409,0.403,0.3973,0.3951,0.3951,0.3951,0.3951,0.3951,0.3951,0.3579,0.2954,0.0,0.0,0.0,0.0,0.0,0.0,0.0,0.0,0.0,0.0,0.0,0.0,0.0,0.0,0.0,0.0,0.4204,0.4554,0.4856,0.5194,0.5353,0.5588,0.5329,0.5397,0.5708,0.5824,0.5985,0.6198,0.6541,0.6749,0.6606,0.6783,0.6945,0.7227,0.7113,0.7324,0.7758,0.8359,0.872,0.9074,0.9863,1.0091,0.9973,1.0254,0.9497,0.8496,0.0,0.7848,0.7136,0.7208,0.7018,0.6766,0.6766,0.6531,0.6428,0.6763,0.691,0.7032,0.7641,0.7916,0.8229,0.8984,0.9265,0.9591,0.9842,0.9937,0.9958,0.991,0.9368,0.8879,0.8847,0.8279,0.7728,0.7627,0.7764,0.7703,0.7359,0.7287,0.7144,0.6602,0.6525,0.6533,0.6553,0.0,0.0,0.6477,0.6181,0.5955,0.5967,0.5784,0.5489,0.5101,0.5018,0.4991,0.5036,0.4829,0.4774,0.473,0.4646,0.4594,0.4305,0.451,0.4589,0.4415,0.422,0.4156,0.4224,0.3956,0.3951,0.3951,0.3951,0.3951,0.3951,0.3951,0.3702,0.3325,0.0,0.0,0.0,0.0,0.0,0.0,0.0,0.0,0.0,0.0,0.0,0.0,0.0,0.0,0.0,0.0,0.0,0.4308,0.4603,0.4835,0.5064,0.5174,0.5031,0.4965,0.5303,0.5374,0.5633,0.6103,0.6349,0.6587,0.6707,0.6669,0.6832,0.722,0.6919,0.7148,0.7568,0.8272,0.8623,0.8838,0.9724,0.9891,0.964,0.973,0.9099,0.0,0.7986,0.7365,0.6681,0.688,0.6661,0.6384,0.6525,0.6485,0.649,0.6802,0.7082,0.7515,0.834,0.854,0.8739,0.9446,0.9836,0.9998,1.0039,1.0093,1.0073,0.9863,0.9219,0.8677,0.8642,0.7982,0.7548,0.7617,0.7913,0.7902,0.7534,0.7504,0.738,0.6835,0.6758,0.6762,0.6509,0.6009,0.0,0.6758,0.6348,0.6114,0.6217,0.5743,0.5454,0.5066,0.4961,0.5078,0.5146,0.4917,0.4827,0.487,0.4693,0.4528,0.4637,0.4704,0.4646,0.4731,0.4305,0.4253,0.4315,0.4071,0.3951,0.3951,0.3951,0.3951,0.3948,0.3927,0.3674,0.342,0.0,0.0,0.0,0.0,0.0,0.0,0.0,0.0,0.0,0.0,0.0,0.0,0.0,0.0,0.0,0.0,0.0,0.0,0.4218,0.4279,0.448,0.5036,0.4611,0.4459,0.4802,0.4849,0.5184,0.5774,0.5675,0.6042,0.6785,0.6577,0.6737,0.697,0.7192,0.7296,0.7307,0.7873,0.8207,0.8289,0.8962,0.8984,0.8557,0.8535,0.7989,0.7318,0.7174,0.6753,0.6274,0.643,0.6403,0.6335,0.625,0.6773,0.7308,0.7184,0.7648,0.8236,0.8608,0.8858,0.9137,0.966,1.0073,1.0243,1.0093,1.0161,1.0168,0.9863,0.9187,0.8604,0.8248,0.7475,0.7021,0.7459,0.7735,0.7877,0.7788,0.7931,0.7713,0.6998,0.6786,0.6597,0.617,0.6095,0.0,0.6835,0.0,0.6413,0.5706,0.599,0.5706,0.4712,0.4932,0.5069,0.5137,0.473,0.447,0.4613,0.435,0.4444,0.5023,0.4696,0.4665,0.5039,0.4662,0.4499,0.4438,0.4071,0.3951,0.3951,0.3951,0.3951,0.3943,0.3886,0.3743,0.3492,0.0,0.0,0.0,0.0,0.0,0.0,0.0,0.0,0.0,0.0,0.0,0.0,0.0,0.0,0.0,0.0,0.0,0.0,0.3962,0.4302,0.4541,0.4471,0.4414,0.4435,0.4715,0.4807,0.5078,0.5548,0.5601,0.5892,0.623,0.595,0.6062,0.6578,0.6437,0.6558,0.6931,0.7481,0.7756,0.7941,0.8445,0.8615,0.8535,0.8489,0.8019,0.7355,0.7352,0.6774,0.6146,0.6519,0.6686,0.6708,0.6783,0.7032,0.747,0.7844,0.8255,0.8706,0.9191,0.9506,0.9828,1.0249,1.0297,1.027,1.0229,1.0073,0.9734,0.9321,0.8628,0.8017,0.7592,0.7343,0.7188,0.7487,0.8028,0.8236,0.7802,0.7993,0.7791,0.7002,0.6892,0.6896,0.6685,0.6657,0.0,0.0,0.5858,0.5573,0.6049,0.5577,0.5156,0.4929,0.523,0.5201,0.4993,0.4774,0.4557,0.435,0.4215,0.4446,0.4769,0.4573,0.4791,0.529,0.4984,0.4827,0.4687,0.4441,0.4071,0.3951,0.4195,0.4318,0.4315,0.4545,0.4413,0.416,0.0,0.0,0.0,0.0,0.0,0.0,0.0,0.0,0.0,0.0,0.0,0.0,0.0,0.0,0.0,0.0,0.0,0.0,0.0,0.427,0.4386,0.4313,0.4134,0.4126,0.4381,0.4355,0.451,0.4961,0.498,0.5242,0.5675,0.5482,0.5601,0.6132,0.6085,0.6246,0.6658,0.7075,0.7321,0.0,0.0,0.8124,0.8143,0.8002,0.7743,0.7267,0.7199,0.6887,0.6586,0.7034,0.7255,0.7396,0.753,0.7737,0.796,0.8573,0.8811,0.915,0.962,1.0019,1.0283,1.0453,1.0432,1.0324,1.012,0.9897,0.9466,0.8758,0.8087,0.7626,0.7182,0.7006,0.7035,0.7383,0.7954,0.8344,0.7996,0.8086,0.8074,0.7343,0.7212,0.7056,0.6717,0.6782,0.6717,0.0,0.5822,0.5681,0.6106,0.5515,0.5099,0.4999,0.5305,0.5248,0.4989,0.5278,0.5205,0.4781,0.4683,0.4775,0.5185,0.5015,0.5119,0.5613,0.0,0.5179,0.5056,0.481,0.4564,0.4318,0.4438,0.4438,0.4561,0.4529,0.4517,0.4507,0.0,0.0,0.0,0.0,0.0,0.0,0.0,0.0,0.0,0.0,0.0,0.0,0.0,0.0,0.0,0.0,0.0,0.0,0.0,0.0,0.4091,0.4375,0.3904,0.3699,0.3859,0.372,0.3839,0.4325,0.4177,0.4477,0.5069,0.5069,0.5211,0.5665,0.5947,0.6132,0.6255,0.6667,0.6721,0.6796,0.7309,0.7473,0.7506,0.0,0.7301,0.7148,0.6914,0.6965,0.7238,0.7692,0.797,0.816,0.8357,0.8494,0.8646,0.9272,0.9427,0.9549,0.9942,1.031,1.0514,1.0493,1.046,1.0324,0.989,0.9639,0.9178,0.8282,0.7692,0.7327,0.6895,0.6698,0.6752,0.7236,0.7731,0.8092,0.8298,0.8408,0.8292,0.7679,0.7464,0.7132,0.6571,0.6557,0.6453,0.6176,0.6095,0.6099,0.6024,0.5614,0.5341,0.5065,0.5278,0.5348,0.5284,0.568,0.5871,0.5452,0.5266,0.547,0.5814,0.5575,0.5567,0.5916,0.5571,0.0,0.5436,0.507,0.495,0.4947,0.4687,0.4687,0.4926,0.4377,0.4473,0.4707,0.0,0.0,0.0,0.0,0.0,0.0,0.0,0.0,0.0,0.0,0.2732,0.282,0.0,0.0,0.0,0.0,0.0,0.0,0.0,0.0,0.0,0.4613,0.398,0.3718,0.3904,0.3793,0.3839,0.3889,0.3951,0.4159,0.4594,0.4594,0.4849,0.5284,0.5383,0.5616,0.6011,0.6123,0.6238,0.6427,0.6686,0.699,0.7207,0.7118,0.0,0.0,0.7155,0.7289,0.7668,0.7848,0.8262,0.8662,0.9062,0.9408,0.958,0.9883,1.0059,1.0229,1.0378,1.0541,1.0649,1.0521,1.031,1.0046,0.972,0.9239,0.8649,0.8066,0.739,0.6905,0.6491,0.6452,0.673,0.7448,0.7914,0.822,0.8563,0.848,0.8188,0.7585,0.7367,0.7336,0.7278,0.6835,0.6727,0.0,0.6258,0.5949,0.5934,0.5534,0.5534,0.5665,0.5248,0.5104,0.5362,0.552,0.5475,0.536,0.524,0.5426,0.5655,0.5597,0.5678,0.5925,0.6072,0.0,0.5526,0.5526,0.5272,0.5015,0.5201,0.5298,0.5298,0.5533,0.5284,0.4913,0.0,0.0,0.0,0.0,0.0,0.0,0.0,0.1986,0.2343,0.2807,0.3047,0.3154,0.303,0.3048,0.3123,0.0,0.0,0.0,0.0,0.0,0.0,0.4448,0.4002,0.3802,0.4006,0.3953,0.3949,0.3844,0.0,0.4148,0.4373,0.4503,0.4711,0.5007,0.5145,0.5392,0.5695,0.5828,0.5984,0.6197,0.6695,0.7075,0.7252,0.7409,0.0,0.0,0.7293,0.7396,0.7696,0.789,0.8323,0.892,0.9449,0.9587,0.9638,1.0062,1.0149,1.0068,1.0548,1.0663,1.0683,1.0527,1.027,0.991,0.9381,0.8859,0.8227,0.7401,0.6894,0.6424,0.6002,0.6106,0.6372,0.6939,0.7299,0.7687,0.8225,0.828,0.82,0.7802,0.7788,0.7774,0.7543,0.7142,0.6922,0.7057,0.6337,0.5912,0.5912,0.5342,0.5454,0.6113,0.5321,0.5189,0.5852,0.5759,0.5719,0.5728,0.5769,0.5858,0.5866,0.5906,0.601,0.6059,0.6145,0.0,0.5859,0.5816,0.5674,0.5537,0.5455,0.5544,0.5667,0.5425,0.5425,0.5302,0.0,0.0,0.0,0.0,0.0,0.0,0.0,0.2144,0.2605,0.2964,0.3406,0.3483,0.3185,0.3147,0.3174,0.0,0.0,0.0,0.0,0.0,0.0,0.0,0.0,0.0,0.4124,0.0,0.0,0.4038,0.4172,0.0,0.0,0.0,0.0,0.0,0.5045,0.5303,0.5443,0.5641,0.5927,0.0,0.0,0.7186,0.7507,0.0,0.0,0.0,0.0,0.7474,0.7647,0.7835,0.8255,0.8852,0.9442,0.948,0.9522,1.0116,1.0055,1.0075,1.0464,1.0697,1.0677,1.0493,1.0222,0.9808,0.9055,0.852,0.7878,0.6834,0.6393,0.6117,0.5631,0.5801,0.6105,0.6492,0.6851,0.7293,0.7873,0.8082,0.822,0.8143,0.8148,0.8013,0.7805,0.7291,0.7098,0.7121,0.6313,0.5912,0.5912,0.5325,0.5426,0.6213,0.5426,0.5294,0.6213,0.6015,0.5981,0.6239,0.6313,0.6296,0.621,0.621,0.619,0.6153,0.6194,0.0,0.0,0.61,0.6072,0.5918,0.5579,0.5671,0.5794,0.5302,0.5302,0.5548,0.0,0.0,0.0,0.0,0.0,0.0,0.0,0.2163,0.2723,0.3439,0.3558,0.3671,0.3756,0.375,0.3668,0.0,0.0,0.0,0.0,0.0,0.0,0.0,0.0,0.0,0.0,0.0,0.0,0.437,0.4351,0.0,0.0,0.0,0.0,0.0,0.0,0.5047,0.5593,0.5407,0.0,0.0,0.0,0.0,0.0,0.0,0.0,0.0,0.0,0.7503,0.7527,0.7925,0.8065,0.8228,0.8832,0.9388,0.9707,0.9509,0.9824,1.031,1.0473,1.0616,1.0656,1.0371,1.0066,0.9646,0.8899,0.8275,0.7624,0.6886,0.6405,0.6002,0.5866,0.5753,0.6007,0.6767,0.7165,0.7598,0.8118,0.8395,0.8314,0.803,0.7898,0.7893,0.8063,0.7631,0.729,0.7383,0.6451,0.0,0.5912,0.577,0.59,0.59,0.5503,0.5503,0.59,0.5908,0.6042,0.6427,0.6435,0.6394,0.6304,0.6304,0.6219,0.6076,0.6235,0.0,0.0,0.6141,0.6125,0.6043,0.5953,0.5916,0.5916,0.5794,0.5425,0.4933,0.0,0.0,0.0,0.0,0.0,0.0,0.1584,0.2021,0.2531,0.3216,0.3608,0.3758,0.3781,0.3966,0.3842,0.3355,0.0,0.0,0.0,0.0,0.0,0.0,0.0,0.0,0.0,0.0,0.4513,0.454,0.463,0.0,0.0,0.0,0.0,0.0,0.0,0.53,0.564,0.5634,0.0,0.0,0.0,0.0,0.0,0.0,0.0,0.0,0.0,0.0,0.7576,0.754,0.7678,0.7831,0.7879,0.8322,0.9103,0.9446,0.966,0.9964,1.0378,1.0534,1.0534,1.0331,1.0046,0.9605,0.8764,0.8113,0.7463,0.6838,0.6204,0.5804,0.6099,0.5808,0.5849,0.6519,0.6611,0.6714,0.7186,0.7483,0.7657,0.7659,0.7865,0.8065,0.8275,0.8005,0.7612,0.725,0.6585,0.0,0.5912,0.5734,0.5576,0.5844,0.5314,0.5202,0.5647,0.5647,0.5781,0.6183,0.6317,0.6435,0.6398,0.6341,0.628,0.621,0.6227,0.0,0.0,0.6112,0.6084,0.6043,0.5953,0.5916,0.5916,0.5916,0.5548,0.5179,0.0,0.0,0.0,0.0,0.0,0.1124,0.1481,0.1975,0.2474,0.3062,0.3459,0.3823,0.3823,0.3953,0.3878,0.3415,0.3639,0.0,0.0,0.0,0.0,0.0,0.0,0.0,0.0,0.0,0.4757,0.4826,0.4902,0.4924,0.0,0.0,0.5173,0.5168,0.0,0.0,0.0,0.0,0.0,0.0,0.0,0.0,0.0,0.0,0.0,0.0,0.0,0.0,0.0,0.0,0.0,0.7577,0.7227,0.768,0.837,0.901,0.9352,0.9707,1.0168,1.0358,1.0385,1.0195,0.9917,0.9469,0.8615,0.7997,0.7376,0.6753,0.6191,0.5873,0.6123,0.5906,0.5764,0.6297,0.6327,0.6392,0.6749,0.7074,0.7282,0.7646,0.7839,0.7985,0.8339,0.8106,0.7655,0.7121,0.6719,0.0,0.6049,0.5727,0.5565,0.5701,0.5172,0.5062,0.5379,0.5379,0.5513,0.5912,0.616,0.6281,0.6277,0.6161,0.611,0.6106,0.617,0.0,0.0,0.6068,0.6039,0.6006,0.5941,0.5916,0.5921,0.5822,0.5567,0.5179,0.0,0.0,0.0,0.0,0.0,0.0,0.1341,0.206,0.2712,0.3096,0.3343,0.3649,0.3909,0.376,0.3656,0.3895,0.3887,0.0,0.0,0.0,0.0,0.0,0.0,0.0,0.0,0.0,0.4794,0.5186,0.5181,0.5159,0.5105,0.5047,0.4862,0.4696,0.0,0.0,0.0,0.0,0.0,0.0,0.0,0.0,0.0,0.0,0.0,0.0,0.0,0.0,0.0,0.0,0.0,0.0,0.0,0.7409,0.7657,0.819,0.8917,0.9639,0.9788,1.0053,1.0209,0.9903,0.9605,0.9191,0.8445,0.7923,0.7376,0.6753,0.635,0.6121,0.6013,0.5921,0.5921,0.6202,0.6575,0.6978,0.7388,0.7469,0.7743,0.8005,0.7471,0.735,0.8187,0.7797,0.7526,0.7526,0.6857,0.0,0.6455,0.6046,0.5778,0.5379,0.5379,0.5379,0.5379,0.5379,0.5513,0.5912,0.5833,0.5799,0.5792,0.5627,0.5549,0.5674,0.0,0.0,0.0,0.6019,0.5998,0.5916,0.5916,0.5916,0.5929,0.564,0.5243,0.482,0.0,0.0,0.0,0.0,0.0,0.0,0.0,0.1752,0.2149,0.2695,0.2904,0.3149,0.3632,0.3588,0.3561,0.3712,0.4024,0.0,0.0,0.0,0.0,0.0,0.0,0.0,0.0,0.48,0.4914,0.5311,0.5304,0.5441,0.5641,0.5654,0.562,0.5538,0.5496,0.553,0.0,0.0,0.0,0.0,0.0,0.0,0.0,0.0,0.0,0.0,0.0,0.0,0.0,0.0,0.0,0.0,0.0,0.0,0.0,0.7439,0.8084,0.8913,0.9043,0.9319,0.9462,0.9266,0.9069,0.875,0.8106,0.7773,0.7495,0.7054,0.6505,0.6316,0.6557,0.6234,0.6066,0.6815,0.6955,0.707,0.7376,0.7791,0.7985,0.8112,0.8129,0.8094,0.8209,0.0,0.768,0.7417,0.0,0.0,0.6183,0.5912,0.5912,0.5778,0.5245,0.4977,0.4977,0.4977,0.5085,0.5172,0.5412,0.537,0.5447,0.5597,0.5549,0.0,0.0,0.0,0.0,0.585,0.5854,0.5628,0.5567,0.5582,0.5636,0.5283,0.4903,0.4636,0.0,0.0,0.0,0.0,0.0,0.0,0.0,0.1696,0.1915,0.2428,0.2569,0.2891,0.3418,0.3373,0.3479,0.3705,0.4097,0.0,0.0,0.0,0.0,0.0,0.0,0.0,0.4876,0.4805,0.494,0.5301,0.5282,0.5589,0.5969,0.5926,0.5891,0.5785,0.5701,0.5676,0.0,0.0,0.0,0.0,0.0,0.0,0.7236,0.0,0.0,0.0,0.0,0.0,0.0,0.0,0.0,0.0,0.0,0.0,0.0,0.0,0.7361,0.8248,0.8487,0.8749,0.8866,0.8723,0.8574,0.833,0.7841,0.7617,0.7441,0.719,0.6793,0.6523,0.6817,0.6443,0.6355,0.6897,0.7047,0.7189,0.7604,0.793,0.8023,0.7957,0.8147,0.8259,0.0,0.7966,0.7822,0.7426,0.0,0.0,0.6183,0.5912,0.5781,0.6183,0.5242,0.4839,0.4839,0.4839,0.4809,0.4747,0.4978,0.5056,0.4983,0.5035,0.5251,0.0,0.0,0.0,0.0,0.5447,0.5455,0.5247,0.5197,0.5331,0.5379,0.5032,0.4774,0.4633,0.0,0.0,0.0,0.0,0.0,0.0,0.0,0.1789,0.2069,0.2363,0.2532,0.2753,0.3118,0.3257,0.3456,0.3834,0.0,0.0,0.0,0.0,0.0,0.0,0.0,0.0,0.4726,0.4675,0.4851,0.5197,0.5209,0.5594,0.6111,0.6002,0.5877,0.5735,0.5672,0.5658,0.0,0.0,0.0,0.0,0.7088,0.7054,0.0,0.0,0.0,0.0,0.0,0.0,0.0,0.0,0.0,0.0,0.0,0.0,0.0,0.0,0.0,0.0,0.0,0.8296,0.8384,0.8241,0.8099,0.7916,0.7631,0.7461,0.0,0.7156,0.7,0.6858,0.6722,0.6695,0.6702,0.6742,0.6933,0.7269,0.7892,0.804,0.7925,0.7746,0.8082,0.0,0.7702,0.7987,0.7912,0.7517,0.0,0.0,0.6589,0.5781,0.5781,0.6451,0.5379,0.4839,0.4839,0.4836,0.4803,0.4738,0.4668,0.46,0.4533,0.4468,0.4564,0.0,0.0,0.506,0.0,0.506,0.4937,0.482,0.4937,0.506,0.5317,0.4768,0.4627,0.4703,0.0,0.0,0.0,0.0,0.0,0.0,0.0,0.0,0.0,0.0,0.2449,0.2741,0.2946,0.3101,0.3348,0.0,0.0,0.0,0.0,0.0,0.0,0.0,0.0,0.0,0.4726,0.4836,0.5054,0.5328,0.5567,0.5893,0.6355,0.642,0.6241,0.5855,0.5714,0.5786,0.0,0.0,0.0,0.0,0.7312,0.7236,0.0,0.0,0.0,0.0,0.6702,0.6797,0.0,0.0,0.0,0.0,0.0,0.0,0.0,0.0,0.6317,0.6781,0.7354,0.0,0.7773,0.7806,0.7643,0.7574,0.0,0.7499,0.7429,0.718,0.7021,0.6852,0.6929,0.6682,0.6675,0.7136,0.74,0.761,0.8153,0.8689,0.9039,0.9111,0.9111,0.8857,0.8574,0.8356,0.8196,0.0,0.0,0.7254,0.6853,0.6183,0.5912,0.6046,0.5242,0.4973,0.5245,0.4926,0.4601,0.4277,0.4212,0.4153,0.4094,0.4324,0.4438,0.0,0.481,0.4843,0.4761,0.4833,0.4719,0.4636,0.4833,0.4843,0.4643,0.4536,0.4404,0.4142,0.0,0.0,0.0,0.0,0.0,0.0,0.0,0.0,0.0,0.0,0.0,0.2861,0.2914,0.3209,0.0,0.0,0.0,0.0,0.0,0.0,0.0,0.0,0.0,0.4599,0.4735,0.4783,0.5012,0.5453,0.5613,0.6021,0.6437,0.6502,0.6339,0.5975,0.5752,0.5803,0.0,0.0,0.0,0.0,0.7204,0.0,0.0,0.0,0.0,0.0,0.6498,0.6641,0.0,0.7162,0.7368,0.7307,0.0,0.0,0.0,0.0,0.626,0.6681,0.6873,0.7166,0.7478,0.764,0.7731,0.7695,0.7539,0.7534,0.7519,0.7274,0.7019,0.6926,0.7012,0.6854,0.681,0.7204,0.7455,0.7828,0.8486,0.9044,0.9433,0.9426,0.9261,0.8973,0.0,0.8386,0.8226,0.0,0.0,0.7341,0.6982,0.6313,0.6046,0.6183,0.5612,0.5212,0.5111,0.4778,0.4319,0.4125,0.4063,0.4006,0.3951,0.4071,0.4195,0.4438,0.4441,0.4462,0.449,0.4456,0.4339,0.4244,0.4333,0.4589,0.4621,0.4493,0.4493,0.4368,0.0,0.0,0.0,0.0,0.0,0.0,0.0,0.0,0.0,0.0,0.0,0.0,0.0,0.0,0.0,0.0,0.0,0.0,0.0,0.0,0.0,0.0,0.4343,0.4436,0.4683,0.4688,0.4909,0.5464,0.5668,0.5963,0.6464,0.6502,0.6366,0.6072,0.573,0.5769,0.0,0.0,0.0,0.0,0.7095,0.0,0.0,0.0,0.0,0.0,0.0,0.0,0.0,0.7281,0.7567,0.7667,0.7245,0.0,0.0,0.0,0.0,0.0,0.6677,0.6957,0.7312,0.7596,0.7862,0.7974,0.7627,0.7548,0.7558,0.7394,0.7191,0.7109,0.7026,0.7027,0.7034,0.7156,0.7475,0.8004,0.8886,0.9222,0.9329,0.9394,0.8986,0.0,0.8614,0.8309,0.0,0.0,0.0,0.7248,0.7066,0.6406,0.614,0.6411,0.5946,0.5547,0.4942,0.4481,0.4293,0.4112,0.4052,0.3997,0.3951,0.3951,0.4071,0.4318,0.0,0.0,0.4318,0.4071,0.3951,0.3951,0.4074,0.4441,0.4687,0.4564,0.4564,0.4687,0.0,0.0,0.0,0.0,0.0,0.0,0.0,0.0,0.0,0.0,0.0,0.0,0.0,0.0,0.0,0.0,0.0,0.0,0.0,0.0,0.0,0.4473,0.4448,0.4438,0.4312,0.4763,0.5068,0.5287,0.591,0.6342,0.6594,0.6801,0.6611,0.6072,0.5998,0.6075,0.6306,0.6618,0.0,0.7109,0.7129,0.0,0.0,0.0,0.0,0.0,0.0,0.0,0.0,0.7154,0.7316,0.7149,0.7007,0.0,0.0,0.0,0.0,0.0,0.7228,0.7545,0.7617,0.7421,0.7614,0.7869,0.7805,0.7722,0.7643,0.7643,0.7612,0.7522,0.7281,0.7462,0.7486,0.7423,0.7801,0.8438,0.9205,0.9503,0.9539,0.9651,0.0,0.916,0.8869,0.8414,0.8242,0.0,0.0,0.7241,0.7126,0.6481,0.6223,0.6223,0.5824,0.5566,0.5451,0.5114,0.4816,0.4428,0.4116,0.3959,0.3951,0.4195,0.4195,0.3948,0.0,0.4195,0.3951,0.4195,0.4195,0.3951,0.481,0.4687,0.4074,0.4687,0.4441,0.4074,0.0,0.0,0.0,0.0,0.0,0.0,0.0,0.0,0.0,0.0,0.0,0.0,0.0,0.0,0.0,0.0,0.0,0.0,0.0,0.0,0.467,0.4862,0.4789,0.4686,0.463,0.4874,0.5241,0.5657,0.6149,0.654,0.6714,0.6638,0.6515,0.6261,0.6014,0.5963,0.6174,0.6498,0.67,0.6966,0.0,0.0,0.0,0.0,0.0,0.0,0.0,0.0,0.0,0.0,0.7476,0.7467,0.7404,0.0,0.0,0.0,0.0,0.0,0.7157,0.7531,0.7764,0.7438,0.791,0.8436,0.8086,0.7982,0.7981,0.7891,0.7769,0.7718,0.7651,0.7752,0.7836,0.8076,0.8841,0.9432,0.968,0.9815,1.0072,0.0,0.0,0.9093,0.8973,0.8363,0.8068,0.0,0.0,0.0,0.7203,0.6567,0.6182,0.6182,0.601,0.5859,0.5859,0.5394,0.5001,0.4542,0.4508,0.4475,0.4195,0.4354,0.4475,0.4441,0.0,0.4441,0.4441,0.4564,0.4564,0.4441,0.4807,0.4687,0.4441,0.4564,0.4441,0.4195,0.0,0.0,0.0,0.0,0.0,0.0,0.0,0.0,0.0,0.0,0.0,0.0,0.0,0.0,0.0,0.0,0.0,0.0,0.0,0.4404,0.4643,0.5099,0.4999,0.495,0.5106,0.5029,0.532,0.6032,0.6333,0.6545,0.6752,0.6453,0.6327,0.6355,0.5957,0.5847,0.6086,0.6346,0.6523,0.6795,0.0,0.0,0.0,0.0,0.0,0.0,0.0,0.0,0.0,0.0,0.0,0.0,0.0,0.0,0.0,0.7303,0.7186,0.7219,0.7231,0.7564,0.7935,0.7765,0.8287,0.877,0.8391,0.8305,0.8239,0.8303,0.8151,0.8044,0.8139,0.8101,0.8363,0.902,0.975,1.017,1.0171,1.0278,1.0365,1.0404,0.9581,0.8946,0.905,0.8341,0.8066,0.8132,0.0,0.0,0.7258,0.6624,0.6243,0.6243,0.6055,0.6023,0.6023,0.5702,0.5208,0.4768,0.489,0.4863,0.4564,0.4742,0.4739,0.481,0.4684,0.4687,0.481,0.4933,0.4933,0.4933,0.4684,0.4687,0.4687,0.4441,0.4318,0.4195,0.0,0.0,0.0,0.0,0.0,0.0,0.0,0.0,0.0,0.0,0.0,0.0,0.0,0.0,0.0,0.0,0.0,0.0,0.0,0.4635,0.4732,0.479,0.4836,0.5012,0.5406,0.5349,0.5527,0.5955,0.6278,0.6502,0.6627,0.6497,0.6312,0.6078,0.5947,0.5918,0.6086,0.6346,0.6523,0.6884,0.7326,0.0,0.0,0.0,0.0,0.0,0.0,0.0,0.0,0.0,0.0,0.0,0.0,0.0,0.7163,0.7358,0.7095,0.6903,0.7819,0.7907,0.7893,0.8376,0.8262,0.8084,0.838,0.831,0.84,0.8999,0.9084,0.8974,0.8812,0.8824,0.9078,1.0055,1.0144,1.0241,1.0688,0.0,1.0243,1.0032,0.9424,0.905,0.9056,0.842,0.8127,0.8389,0.7766,0.7403,0.7408,0.6794,0.6425,0.6425,0.6052,0.5925,0.5925,0.5921,0.5671,0.5306,0.5063,0.494,0.4933,0.5183,0.506,0.4438,0.5053,0.493,0.4438,0.5053,0.5176,0.4933,0.5176,0.493,0.4438,0.4071,0.3951,0.3951,0.0,0.0,0.0,0.0,0.0,0.0,0.0,0.0,0.0,0.0,0.0,0.2636,0.3141,0.0,0.0,0.0,0.0,0.0,0.0,0.4493,0.4757,0.5172,0.5336,0.5455,0.5593,0.5552,0.5701,0.6171,0.6535,0.6752,0.6827,0.6526,0.644,0.6549,0.6156,0.6082,0.6201,0.656,0.6662,0.6737,0.7094,0.6966,0.0,0.0,0.0,0.0,0.0,0.0,0.0,0.0,0.7163,0.7297,0.7297,0.7364,0.7489,0.7629,0.7451,0.7301,0.7626,0.7658,0.7783,0.8365,0.8404,0.8553,0.9097,0.9216,0.9434,0.9923,0.9861,0.9631,0.9575,0.9646,0.9781,1.0047,1.0624,1.0934,1.0868,1.0914,1.0852,1.0645,0.9718,0.9211,0.9299,0.8482,0.8044,0.8372,0.7755,0.7388,0.7388,0.7021,0.6653,0.6653,0.6403,0.6158,0.6158,0.6039,0.5794,0.5671,0.5602,0.5353,0.4937,0.5353,0.5346,0.5053,0.5298,0.5421,0.5302,0.5548,0.5671,0.5548,0.5179,0.4687,0.4071,0.4195,0.4071,0.3951,0.0,0.0,0.0,0.0,0.0,0.0,0.0,0.0,0.1552,0.0,0.0,0.0,0.0,0.3311,0.0,0.0,0.0,0.0,0.4206,0.4382,0.4753,0.5183,0.5474,0.5606,0.5647,0.567,0.5784,0.6208,0.6529,0.6708,0.6753,0.6388,0.6356,0.6643,0.6236,0.6099,0.6362,0.6585,0.6579,0.6563,0.7005,0.6993,0.0,0.0,0.0,0.0,0.0,0.0,0.0,0.0,0.7141,0.7209,0.7243,0.7523,0.7749,0.7707,0.7663,0.7677,0.7641,0.7651,0.7837,0.8418,0.8846,0.9189,0.9885,0.9965,1.0076,1.069,1.0501,1.0293,1.0128,1.0133,1.029,0.0,1.091,1.1374,1.1125,1.1277,1.1194,1.1072,1.0169,0.9549,0.9854,0.8817,0.8284,0.8494,0.8,0.7505,0.7505,0.723,0.6972,0.6972,0.6724,0.6467,0.6431,0.6224,0.5981,0.5956,0.5925,0.5702,0.5183,0.5609,0.5602,0.5421,0.5544,0.5667,0.5794,0.5916,0.5794,0.5671,0.5179,0.4687,0.4071,0.4318,0.4195,0.3951,0.0,0.0,0.0,0.0,0.0,0.0,0.0,0.0,0.1692,0.2147,0.2485,0.0,0.0,0.0,0.0,0.0,0.0,0.0,0.4201,0.4446,0.463,0.4828,0.5101,0.5381,0.5508,0.5631,0.5844,0.6083,0.6317,0.6312,0.6083,0.6083,0.6272,0.6449,0.6051,0.6093,0.627,0.64,0.6428,0.6435,0.7238,0.7236,0.6912,0.0,0.0,0.0,0.0,0.0,0.0,0.0,0.7477,0.7545,0.7659,0.7772,0.7727,0.7557,0.7787,0.8058,0.7856,0.7944,0.8223,0.882,0.9346,0.9875,1.0707,1.0359,1.0156,1.1244,1.1089,1.0735,1.0613,1.0433,1.0402,1.1078,1.1224,1.1354,1.1719,1.1526,1.1269,1.1269,1.0566,1.0108,1.0322,0.9211,0.8617,0.8867,0.8238,0.7872,0.7872,0.7517,0.7215,0.7215,0.6856,0.6689,0.6462,0.6327,0.6208,0.612,0.5856,0.5827,0.5916,0.5916,0.5671,0.5421,0.5794,0.5671,0.5421,0.5794,0.5671,0.5421,0.5421,0.493,0.4438,0.4438,0.4195,0.3951,0.0,0.0,0.0,0.0,0.0,0.0,0.0,0.0,0.1562,0.2147,0.2381,0.0,0.0,0.0,0.0,0.0,0.0,0.0,0.4325,0.4431,0.4649,0.4848,0.536,0.5455,0.5243,0.5451,0.5768,0.6083,0.6345,0.6339,0.6083,0.6083,0.6227,0.6334,0.6287,0.6351,0.6545,0.6781,0.6853,0.6847,0.7094,0.7142,0.6991,0.0,0.0,0.0,0.0,0.0,0.0,0.0,0.0,0.0,0.7347,0.7548,0.7761,0.771,0.7816,0.7921,0.8015,0.8043,0.8316,0.9199,0.9752,1.0301,1.1142,1.1365,1.1541,1.1981,1.1934,1.1622,1.1138,1.0822,1.0659,1.0739,1.1028,1.1229,1.1471,1.1526,1.1526,1.1277,1.0708,1.0236,1.0308,0.9374,0.8775,0.8861,0.8488,0.8083,0.7758,0.76,0.7541,0.7455,0.7102,0.6852,0.6818,0.6382,0.6147,0.612,0.5789,0.5614,0.5456,0.5766,0.5671,0.5421,0.5794,0.5794,0.5794,0.5916,0.5671,0.5421,0.5421,0.493,0.4438,0.493,0.4564,0.3951,0.0,0.0,0.0,0.0,0.0,0.0,0.1277,0.1392,0.1582,0.215,0.2409,0.2771,0.0,0.0,0.0,0.3932,0.3954,0.0,0.4461,0.4603,0.4758,0.5009,0.5439,0.5561,0.5354,0.5719,0.5858,0.5981,0.6031,0.6054,0.6054,0.6154,0.6281,0.6351,0.6478,0.6555,0.6716,0.6752,0.6885,0.6918,0.7088,0.7054,0.6905,0.0,0.0,0.0,0.0,0.0,0.0,0.0,0.0,0.0,0.7187,0.735,0.7595,0.7633,0.7823,0.8088,0.8344,0.8412,0.873,0.9761,1.0338,1.0983,1.2054,1.2283,1.2402,1.2336,1.2308,1.2096,1.1629,1.1307,1.125,1.133,1.1438,1.1579,1.1703,1.1703,1.1782,1.1415,1.0989,1.0642,1.0343,0.9613,0.9131,0.901,0.8486,0.8062,0.787,0.7702,0.7524,0.7448,0.7217,0.708,0.6919,0.6618,0.6387,0.6235,0.5925,0.5735,0.5558,0.5806,0.5742,0.562,0.5778,0.5916,0.5916,0.5916,0.5794,0.5544,0.5544,0.5298,0.4807,0.5298,0.4807,0.4195,0.0,0.0,0.027,0.1011,0.0,0.0,0.1344,0.1479,0.1749,0.2153,0.2542,0.2858,0.0,0.0,0.0,0.3889,0.3845,0.4035,0.455,0.4761,0.4956,0.5231,0.5532,0.581,0.5824,0.6191,0.6172,0.5758,0.5639,0.5626,0.5895,0.6155,0.6426,0.6449,0.6588,0.6768,0.6813,0.6673,0.6629,0.6864,0.7021,0.7021,0.6892,0.6736,0.0,0.0,0.0,0.0,0.0,0.0,0.0,0.0,0.7141,0.7242,0.7353,0.7522,0.7933,0.8513,0.8703,0.8913,0.9317,1.0409,1.115,1.1847,1.3207,1.3223,1.2881,1.2477,1.2417,1.2326,1.2045,1.1891,1.1919,1.24,1.2249,1.2151,1.2166,1.2056,1.1829,1.1476,1.1375,1.1048,1.0547,0.9933,0.9453,0.9103,0.8512,0.809,0.7962,0.7623,0.7328,0.7317,0.7317,0.7156,0.6715,0.6817,0.6709,0.6274,0.603,0.5956,0.5965,0.5814,0.5786,0.5798,0.588,0.5916,0.5916,0.5916,0.5916,0.5916,0.5916,0.5671,0.5421,0.5421,0.5053,0.4438,0.0,0.0,0.027,0.1077,0.0,0.0,0.1749,0.1817,0.1951,0.229,0.2568,0.2916,0.3394,0.3592,0.0,0.3871,0.3955,0.4105,0.4356,0.4561,0.4855,0.5371,0.5854,0.6172,0.6311,0.6263,0.6231,0.6198,0.5964,0.5797,0.5642,0.6239,0.6471,0.6328,0.6553,0.6816,0.6955,0.6622,0.6574,0.688,0.6844,0.686,0.6978,0.6661,0.69,0.0,0.0,0.0,0.0,0.0,0.0,0.0,0.7199,0.7433,0.7715,0.7743,0.8179,0.8631,0.867,0.8844,0.9331,1.0569,1.1637,1.2557,1.3237,1.3443,1.3403,1.3194,1.3197,1.3068,1.2237,1.2228,1.2307,1.2099,1.2074,1.2107,1.1997,1.1862,1.1628,1.1281,1.0965,1.074,1.036,1.0004,0.9538,0.8962,0.8819,0.8402,0.7835,0.78,0.7517,0.7198,0.7192,0.707,0.6715,0.674,0.6517,0.5935,0.5846,0.5743,0.5531,0.5667,0.5818,0.5888,0.5659,0.5671,0.5916,0.5667,0.5671,0.5916,0.5916,0.5671,0.5421,0.5671,0.5176,0.4438,0.0,0.0,0.0,0.0,0.0,0.0,0.0,0.0,0.2153,0.2357,0.269,0.2958,0.3226,0.3383,0.0,0.0,0.3781,0.4003,0.4439,0.4716,0.5072,0.5638,0.6022,0.6264,0.6261,0.61,0.61,0.6099,0.6013,0.5946,0.5893,0.6349,0.6551,0.656,0.6786,0.6926,0.7002,0.6675,0.6666,0.681,0.6729,0.6737,0.6817,0.6503,0.6634,0.7011,0.6761,0.0,0.0,0.0,0.0,0.0,0.0,0.0,0.7582,0.7709,0.8144,0.866,0.8941,0.9239,0.9857,1.1343,1.2258,1.2936,1.3593,1.3879,1.3856,1.3532,1.3515,1.3367,1.2918,1.2767,1.2692,1.2683,1.2579,1.2425,1.2276,1.202,1.1671,1.133,1.106,1.0847,1.0425,1.0067,0.9724,0.9273,0.8863,0.8452,0.7927,0.7815,0.7533,0.7078,0.7127,0.7017,0.6633,0.6684,0.6492,0.6047,0.5824,0.5647,0.5512,0.5651,0.579,0.5916,0.5671,0.5794,0.5916,0.5671,0.5794,0.5916,0.5916,0.5794,0.5671,0.5794,0.5425,0.4687,0.0,0.0,0.0,0.0,0.0,0.0,0.0,0.0,0.0,0.2491,0.2813,0.3006,0.3088,0.3144,0.3378,0.0,0.0,0.0,0.4557,0.4896,0.5396,0.6057,0.6193,0.6227,0.6146,0.6009,0.5964,0.5944,0.5938,0.6086,0.6376,0.6597,0.6707,0.6807,0.7088,0.7098,0.6963,0.67,0.6642,0.662,0.6593,0.6491,0.6421,0.6304,0.6407,0.6566,0.6497,0.673,0.7132,0.6818,0.0,0.0,0.0,0.0,0.7363,0.7673,0.8088,0.8553,0.9173,0.9703,1.0521,1.1984,1.2762,1.3225,1.4019,1.4148,1.4169,1.3856,1.3671,1.3515,1.3397,1.3155,1.3019,1.3228,1.3019,1.2767,1.2475,1.2131,1.1698,1.1372,1.1272,1.0964,1.0482,1.013,0.9898,0.956,0.8883,0.8374,0.8152,0.7826,0.7546,0.7094,0.7205,0.6984,0.6542,0.6654,0.6604,0.6163,0.5935,0.569,0.5622,0.5639,0.5745,0.6039,0.5916,0.5916,0.5916,0.5916,0.5794,0.5916,0.5916,0.5916,0.5916,0.5916,0.5425,0.4933,0.0,0.0,0.0,0.0,0.0,0.0,0.0,0.0,0.0,0.0,0.296,0.314,0.3422,0.36,0.3673,0.3628,0.3768,0.3919,0.4172,0.0,0.0,0.6213,0.6247,0.6369,0.6607,0.6344,0.6152,0.6261,0.6022,0.6165,0.6619,0.6773,0.6919,0.6948,0.704,0.7047,0.7068,0.6537,0.6348,0.6308,0.6173,0.6105,0.6113,0.6172,0.6288,0.6633,0.6603,0.6738,0.6999,0.6757,0.6829,0.0,0.0,0.0,0.7671,0.77,0.8122,0.8627,0.8886,0.9869,1.1006,1.2106,1.291,1.3478,1.376,1.4243,1.4504,1.4191,1.4243,1.4046,1.2929,1.3168,1.3197,1.2421,1.2606,1.2602,1.2192,1.2064,1.1827,1.1169,1.1075,1.0753,0.9964,0.9846,0.9625,0.9078,0.8947,0.8712,0.8484,0.8374,0.809,0.7419,0.743,0.721,0.6542,0.6874,0.671,0.5824,0.5601,0.5431,0.5529,0.5843,0.6103,0.628,0.5667,0.579,0.628,0.5667,0.5667,0.5916,0.5916,0.5916,0.5916,0.5916,0.5425,0.4923,0.0,0.0,0.0,0.0,0.0,0.0,0.0,0.0,0.0,0.0,0.0,0.3322,0.3485,0.3605,0.3761,0.3951,0.4046,0.4238,0.4749,0.5005,0.53,0.5769,0.5782,0.582,0.5949,0.5815,0.5868,0.6132,0.5889,0.6207,0.6993,0.6984,0.7088,0.7422,0.7263,0.7195,0.7027,0.6569,0.6403,0.6263,0.5962,0.6184,0.647,0.6065,0.6286,0.6695,0.6479,0.6652,0.6916,0.6764,0.7007,0.7323,0.7231,0.0,0.0,0.0,0.8254,0.8772,0.975,1.0372,1.1015,1.2155,1.2852,1.3303,1.3543,1.4012,1.4399,1.4201,1.4173,1.406,1.3592,1.3335,1.3138,1.282,1.2636,1.2383,1.2266,1.1959,1.1647,1.1647,1.1259,1.0799,1.057,1.0257,0.9889,0.9356,0.9216,0.8899,0.8375,0.8259,0.7871,0.731,0.7431,0.7219,0.6664,0.7062,0.6821,0.6047,0.5824,0.5652,0.5741,0.6014,0.6025,0.6081,0.6081,0.6111,0.6158,0.5977,0.5867,0.5916,0.5916,0.5916,0.5916,0.5671,0.5302,0.493,0.0,0.0,0.0,0.0,0.0,0.0,0.0,0.0,0.0,0.0,0.0,0.3517,0.3551,0.0,0.0,0.0,0.4322,0.4528,0.5178,0.5081,0.5178,0.5459,0.5473,0.5491,0.5432,0.5466,0.5562,0.5861,0.5711,0.6214,0.7204,0.7204,0.7479,0.7952,0.7597,0.7353,0.7115,0.6702,0.6513,0.6289,0.5988,0.6191,0.6708,0.6281,0.647,0.6923,0.6517,0.6613,0.694,0.0,0.7138,0.7652,0.7464,0.757,0.0,0.0,0.0,0.8997,1.0336,1.065,1.0836,1.197,1.2687,1.3138,1.3355,1.3857,1.4286,1.4185,1.4027,1.3979,1.4155,1.3529,1.2981,1.307,1.2561,1.2316,1.2365,1.1917,1.164,1.1891,1.1371,1.1022,1.0941,1.0514,1.0132,0.9578,0.932,0.9008,0.8393,0.8132,0.7849,0.7434,0.7451,0.7333,0.6862,0.6964,0.6754,0.6236,0.5982,0.5815,0.5821,0.6048,0.5925,0.5749,0.6248,0.6301,0.6002,0.6073,0.6081,0.5884,0.5908,0.5916,0.5916,0.5544,0.5176,0.4807,0.0,0.0,0.0,0.0,0.0,0.0,0.0,0.0,0.0,0.0,0.0,0.3771,0.3813,0.4126,0.4364,0.4289,0.4446,0.4703,0.489,0.5004,0.5262,0.5572,0.5734,0.0,0.5564,0.5501,0.5446,0.5466,0.5657,0.6256,0.713,0.7606,0.8007,0.8315,0.7959,0.7543,0.7122,0.6817,0.6592,0.6458,0.6153,0.6162,0.636,0.6716,0.6912,0.7042,0.6985,0.7062,0.0,0.0,0.0,0.0,0.0,0.7751,0.8388,0.0,0.0,0.0,0.9973,1.0301,1.0673,1.1688,1.2525,1.3147,1.31,1.387,1.443,1.3922,1.4004,1.4083,1.3923,1.342,1.2883,1.216,1.2412,1.2537,1.2216,1.2132,1.2002,1.17,1.1718,1.1291,1.0551,1.0436,1.0107,0.9248,0.9012,0.8892,0.8703,0.8574,0.8387,0.8065,0.788,0.7505,0.6947,0.6658,0.6348,0.6122,0.591,0.5755,0.5502,0.6061,0.6052,0.5655,0.5745,0.6022,0.627,0.5998,0.5863,0.5798,0.5884,0.5916,0.5916,0.5544,0.5176,0.48,0.0,0.0,0.0,0.0,0.0,0.0,0.0,0.0,0.0,0.0,0.0,0.0,0.0,0.4389,0.4581,0.4821,0.4874,0.5027,0.5229,0.4959,0.5042,0.5441,0.5527,0.5603,0.5667,0.5531,0.545,0.555,0.5466,0.5916,0.6813,0.713,0.7512,0.7838,0.7787,0.7563,0.7109,0.662,0.6457,0.6557,0.6125,0.6489,0.7234,0.7011,0.7313,0.7868,0.0,0.0,0.0,0.0,0.0,0.0,0.0,0.0,0.8458,0.873,0.9013,0.9364,1.0276,1.0393,1.0492,1.1294,1.2164,1.2735,1.2757,1.3345,1.3848,1.3848,1.3671,1.3545,1.3653,1.359,1.3366,1.2819,1.2652,1.2646,1.2526,1.2104,1.1851,1.1992,1.1615,1.1277,1.1081,1.0775,1.0305,0.9672,0.9302,0.8996,0.8737,0.837,0.8027,0.7924,0.7767,0.7479,0.7154,0.6679,0.6404,0.6328,0.6081,0.5817,0.5621,0.5841,0.5756,0.5647,0.568,0.5757,0.5985,0.6081,0.5964,0.5872,0.5904,0.5916,0.5916,0.5544,0.5176,0.4807,0.0,0.0,0.0,0.0,0.0,0.0,0.0,0.0,0.0,0.3535,0.0,0.0,0.0,0.0,0.5078,0.5359,0.5368,0.5392,0.5464,0.5195,0.5178,0.5534,0.5686,0.5769,0.5769,0.5642,0.5537,0.546,0.5315,0.5741,0.6645,0.6935,0.7296,0.776,0.765,0.7512,0.7265,0.6887,0.6741,0.6795,0.6506,0.6847,0.7533,0.7481,0.7875,0.0,0.0,0.0,0.0,0.0,0.0,0.0,0.0,0.0,0.0,0.9246,0.9395,0.9568,1.0309,1.0399,1.0484,1.1254,1.1839,1.2355,1.2638,1.3076,1.3485,1.3585,1.3519,1.3403,1.3403,1.3538,1.3588,1.3292,1.2985,1.2819,1.2804,1.2221,1.1826,1.2089,1.1595,1.1263,1.1289,1.0896,1.0433,0.9892,0.943,0.0,0.8678,0.8214,0.7903,0.7846,0.7648,0.7382,0.716,0.6599,0.6391,0.6317,0.6073,0.5836,0.5673,0.5642,0.5567,0.5598,0.5598,0.57,0.5867,0.6077,0.5964,0.5876,0.5904,0.5916,0.5916,0.5544,0.5176,0.481,0.0,0.0,0.0,0.0,0.0,0.0,0.0,0.0,0.3457,0.3732,0.0,0.0,0.0,0.0,0.0,0.5911,0.5896,0.5819,0.5601,0.557,0.5691,0.5888,0.6253,0.6291,0.5911,0.5966,0.5755,0.5222,0.5343,0.5821,0.6685,0.699,0.7525,0.8138,0.7476,0.7394,0.7667,0.7458,0.7342,0.7259,0.7178,0.7118,0.7207,0.8113,0.0,0.0,0.8623,0.8782,0.0,0.8874,0.0,0.0,0.0,0.0,0.0,0.0,0.9932,0.9983,0.0,0.0,0.0,1.1471,1.1616,1.1866,1.276,1.311,1.3188,1.3062,1.3473,1.3676,1.3223,1.3326,1.3505,1.355,1.334,1.3127,1.306,1.2506,1.1963,1.1883,1.1711,1.1409,1.1107,1.0804,1.05,0.9977,0.9214,0.88,0.8656,0.822,0.7905,0.784,0.7642,0.734,0.7032,0.6597,0.6295,0.6205,0.6098,0.5808,0.5556,0.5474,0.5477,0.5508,0.5512,0.5614,0.579,0.5876,0.5863,0.5794,0.5884,0.5916,0.5916,0.5544,0.5176,0.4933,0.0,0.0,0.0,0.0,0.0,0.3276,0.3821,0.4013,0.4211,0.0,0.0,0.0,0.5191,0.5654,0.5972,0.6089,0.6089,0.6059,0.5841,0.5599,0.5573,0.588,0.6307,0.6481,0.6473,0.6398,0.6187,0.595,0.57,0.5819,0.6104,0.6556,0.6926,0.7221,0.711,0.7148,0.7097,0.6659,0.678,0.7323,0.677,0.723,0.0,0.0,0.0,0.0,0.0,0.983,0.9951,0.0,0.9547,0.9408,0.0,0.0,0.0,0.0,0.0,1.0289,1.0614,0.0,0.0,0.0,0.0,0.0,1.2311,1.2381,1.2505,1.3123,1.3046,1.3028,1.3069,1.3207,1.3505,1.4028,1.366,1.3339,1.3116,1.2802,1.2391,1.2061,1.1776,1.1481,1.1185,1.0789,1.0393,0.0,0.9549,0.8954,0.8792,0.8258,0.7859,0.7698,0.7604,0.7403,0.7196,0.6859,0.6559,0.639,0.6037,0.5737,0.5469,0.5405,0.5316,0.5512,0.5578,0.5671,0.5782,0.5806,0.5843,0.588,0.5908,0.5916,0.5916,0.5794,0.5548,0.5298,0.0,0.0,0.3263,0.358,0.3667,0.3912,0.4451,0.454,0.4632,0.0,0.0,0.0,0.5895,0.625,0.6492,0.6542,0.6631,0.653,0.6278,0.6203,0.6295,0.6468,0.6811,0.6966,0.6975,0.6805,0.6473,0.5972,0.5856,0.5822,0.5921,0.6254,0.6565,0.6888,0.6736,0.676,0.679,0.6169,0.636,0.71,0.706,0.0,0.0,0.8599,0.9158,0.0,0.0,0.0,1.0448,1.0553,1.0396,0.0,0.0,0.0,0.0,0.0,0.0,0.0,1.1329,1.1436,1.1397,1.1465,0.0,0.0,1.2216,1.2163,1.2236,1.3121,1.2977,1.2862,1.304,1.3073,1.3135,1.3552,1.3493,1.3321,1.3419,1.3116,1.2565,1.2078,1.1785,1.1492,1.1198,1.0708,1.0413,1.0413,0.9624,0.9008,0.8539,0.8364,0.8079,0.7655,0.7666,0.7598,0.7235,0.6842,0.6537,0.6437,0.6154,0.5959,0.5859,0.5678,0.5686,0.5686,0.5933,0.6029,0.5966,0.6124,0.6198,0.6039,0.5916,0.6039,0.6039,0.5916,0.5671,0.5421,0.0,0.0,0.3722,0.3895,0.4152,0.4408,0.5045,0.5017,0.4983,0.0,0.5532,0.6036,0.6618,0.6896,0.6995,0.7114,0.7208,0.718,0.6755,0.7144,0.7291,0.7265,0.7487,0.75,0.7302,0.7103,0.663,0.5852,0.5903,0.5919,0.5966,0.6164,0.6498,0.6941,0.6457,0.6366,0.6565,0.5969,0.6102,0.6655,0.7514,0.7858,0.0,0.0,0.9552,0.9947,1.0105,1.0423,1.0724,1.1231,1.1337,0.0,0.0,0.0,0.0,0.0,1.1235,0.0,0.0,1.1943,1.1916,1.2122,1.1957,0.0,1.237,1.2271,1.2267,1.297,1.2948,1.2883,1.295,1.2771,1.2637,1.2762,1.2897,1.3164,1.3791,1.3247,1.264,1.2078,1.1785,1.1492,1.1198,1.0708,1.0413,1.0413,0.9723,0.897,0.834,0.85,0.8428,0.7868,0.7905,0.7674,0.7359,0.6742,0.6537,0.6437,0.6261,0.6276,0.6394,0.6279,0.6158,0.585,0.6392,0.6485,0.626,0.6598,0.6691,0.6403,0.6162,0.6162,0.6403,0.6039,0.5794,0.5544,0.3127,0.3496,0.3893,0.4371,0.4768,0.5106,0.5606,0.599,0.627,0.6157,0.6505,0.7016,0.7458,0.7365,0.7368,0.7618,0.7542,0.7364,0.7206,0.7431,0.7423,0.7202,0.7625,0.7721,0.7446,0.717,0.6897,0.667,0.6342,0.6222,0.6282,0.6488,0.6548,0.6513,0.6605,0.6408,0.6082,0.6456,0.6595,0.6618,0.6769,0.0,0.9051,0.923,0.9774,1.0527,1.06,1.0812,1.1115,1.1528,1.1532,1.156,0.0,0.0,0.0,1.1713,0.0,0.0,0.0,0.0,0.0,0.0,0.0,0.0,1.2116,1.1941,1.1915,1.2254,1.2025,1.1851,1.1986,1.2018,1.2228,1.2625,1.2451,1.248,1.3191,1.2975,1.2639,1.2349,1.1883,1.1492,1.1198,1.0904,1.0708,1.0708,1.0019,0.9312,0.8682,0.8542,0.8414,0.818,0.8019,0.8026,0.8119,0.7397,0.7036,0.7036,0.6465,0.6276,0.6394,0.6289,0.6317,0.6289,0.6617,0.6712,0.6717,0.6827,0.6884,0.6775,0.6775,0.653,0.6403,0.628,0.6035,0.5794,0.3707,0.416,0.4574,0.493,0.5361,0.5753,0.6367,0.6688,0.6922,0.7332,0.7765,0.8042,0.7875,0.8016,0.8045,0.8095,0.8134,0.8013,0.7888,0.7972,0.8019,0.7787,0.7817,0.7741,0.7632,0.7467,0.7256,0.6939,0.689,0.6764,0.6535,0.6724,0.6847,0.7018,0.6671,0.6564,0.6615,0.6565,0.6664,0.6942,0.7208,0.0,0.8933,0.9284,0.9895,1.0562,1.0662,1.1086,1.1599,1.161,1.1894,0.0,0.0,1.2414,1.2906,0.0,1.3017,1.3251,0.0,0.0,0.0,1.2657,0.0,0.0,0.0,1.2073,1.1927,1.24,1.1957,1.1604,1.1967,1.1871,1.1738,1.1921,1.1993,1.2085,1.2422,1.2552,1.2368,1.1921,1.1647,1.1267,1.0982,1.0696,1.041,1.0314,0.9824,0.922,0.8665,0.8601,0.8435,0.8038,0.8113,0.818,0.8057,0.751,0.7235,0.7241,0.6771,0.6687,0.6812,0.6785,0.6719,0.667,0.7179,0.7271,0.711,0.7337,0.7388,0.7388,0.7021,0.6898,0.6893,0.6526,0.625,0.6098,0.4169,0.4693,0.5186,0.5476,0.5853,0.6357,0.7021,0.7152,0.7497,0.8352,0.884,0.8922,0.8539,0.873,0.8808,0.881,0.889,0.8827,0.874,0.8782,0.8765,0.8654,0.8165,0.7904,0.8009,0.791,0.7569,0.7082,0.7371,0.7188,0.6652,0.6854,0.7118,0.7399,0.6871,0.6899,0.7212,0.6736,0.6905,0.7478,0.0,0.8268,0.8489,0.9272,0.9846,1.034,1.0742,1.1378,1.2083,1.1854,1.2249,1.2797,1.263,1.3222,0.0,0.0,0.0,0.0,0.0,0.0,0.0,0.0,0.0,1.2862,0.0,0.0,0.0,1.2558,0.0,0.0,0.0,0.0,0.0,1.1147,0.0,0.0,0.0,1.1753,0.0,1.1343,1.1182,1.0928,1.06,1.0334,1.0075,0.9833,0.9571,0.9145,0.8528,0.8683,0.8499,0.7902,0.8133,0.8166,0.7994,0.7522,0.7241,0.7241,0.7053,0.7079,0.7229,0.7254,0.7204,0.7018,0.7595,0.768,0.7345,0.7702,0.7872,0.7872,0.7266,0.7266,0.7388,0.6771,0.6476,0.6297,0.4448,0.4706,0.5218,0.5749,0.628,0.6791,0.725,0.7689,0.8349,0.9061,0.9224,0.94,0.9972,0.9726,0.9702,1.0105,0.981,0.9646,0.9777,0.9627,0.9458,0.9478,0.8869,0.8607,0.8855,0.8186,0.7702,0.7456,0.7355,0.7056,0.6589,0.6974,0.7025,0.6813,0.7362,0.7398,0.7081,0.7651,0.799,0.0,0.8302,0.8274,0.0,0.9284,0.9846,1.0242,1.1344,1.1974,1.2425,0.0,1.2928,1.3464,0.0,1.4077,1.4723,1.4323,0.0,0.0,0.0,0.0,0.0,0.0,1.3726,0.0,0.0,0.0,1.2356,1.1983,0.0,0.0,0.0,0.0,0.0,0.0,0.0,0.0,1.0313,1.0349,1.0625,1.0961,1.0639,1.0377,1.0381,1.031,1.0113,0.9824,0.9609,0.9117,0.8396,0.8646,0.86,0.8214,0.8248,0.833,0.8459,0.7877,0.7547,0.7547,0.7059,0.6986,0.7229,0.7172,0.7236,0.7241,0.7714,0.7807,0.7709,0.7823,0.7872,0.7872,0.7872,0.7627,0.7388,0.7266,0.6888,0.639,0.4817,0.5189,0.5646,0.6022,0.6551,0.706,0.7465,0.8717,0.9634,0.9518,1.0251,1.0754,1.0724,1.0706,0.0,1.094,0.0,1.0624,0.0,0.0,0.9787,0.9829,0.8922,0.8555,0.897,0.8413,0.799,0.7769,0.7784,0.7536,0.7141,0.7288,0.7453,0.7663,0.7906,0.8094,0.8295,0.8256,0.8319,0.0,0.0,0.0,0.0,0.9217,1.0035,1.0747,1.1731,1.2272,1.2415,0.0,1.3226,0.0,0.0,0.0,0.0,0.0,0.0,0.0,0.0,0.0,0.0,0.0,0.0,0.0,1.2417,0.0,1.2093,0.0,0.0,0.0,0.0,0.0,0.0,0.0,1.0321,0.0,0.0,0.0,1.0032,1.0293,0.0,0.0,0.9705,0.9742,0.968,0.9508,0.9174,0.8857,0.8493,0.8744,0.863,0.8209,0.8484,0.8501,0.8357,0.8046,0.7785,0.7661,0.7357,0.7147,0.7223,0.7083,0.7122,0.7247,0.754,0.7682,0.7709,0.7823,0.7872,0.7861,0.7801,0.7653,0.7533,0.717,0.6765,0.6492,0.542,0.5765,0.6099,0.6331,0.6928,0.7453,0.8062,0.9456,1.031,1.0083,1.114,1.1849,1.1557,1.1691,0.0,0.0,1.1847,1.1732,0.0,0.0,1.0469,1.0562,0.9341,0.0,0.9635,0.8958,0.8482,0.8304,0.8202,0.7998,0.7693,0.7693,0.791,0.8411,0.843,0.8788,0.931,0.0,0.8965,0.9096,0.9158,0.8869,0.8617,0.9657,1.045,1.1102,1.2141,1.2521,1.2598,1.2741,1.3513,0.0,1.4963,0.0,0.0,0.0,0.0,0.0,1.5039,0.0,0.0,0.0,0.0,0.0,0.0,0.0,0.0,0.0,0.0,0.0,0.0,0.0,0.0,1.028,0.0,1.0131,0.0,0.9707,0.0,0.0,0.0,0.0,0.0,0.9164,0.9101,0.9135,0.8713,0.8438,0.8376,0.8714,0.8638,0.8304,0.8614,0.8575,0.8371,0.8119,0.7992,0.789,0.749,0.7352,0.7276,0.7091,0.6997,0.7122,0.7361,0.7519,0.7611,0.7725,0.7752,0.7714,0.7595,0.7551,0.7445,0.7065,0.6931,0.665,0.6293,0.6304,0.6409,0.6788,0.7399,0.8133,0.9117,0.9433,1.0076,0.0,0.0,0.0,0.0,0.0,0.0,0.0,0.0,1.3014,1.2664,0.0,1.1809,0.0,0.0,1.0285,0.0,0.9969,0.9227,0.9054,0.8568,0.8221,0.8061,0.8061,0.8184,0.8429,0.9025,0.9339,0.9423,1.0012,1.0396,1.0654,1.028,1.0205,1.0467,0.0,1.0744,1.1254,1.2557,0.0,0.0,1.3036,1.3975,0.0,0.0,0.0,0.0,0.0,0.0,0.0,0.0,0.0,0.0,1.4126,0.0,0.0,0.0,0.0,1.29,0.0,0.0,0.0,0.0,0.0,0.0,1.0517,1.0147,0.0,0.0,0.0,0.0,0.0,0.0,0.0,0.0,0.8622,0.8521,0.0,0.819,0.7827,0.7936,0.845,0.8714,0.8586,0.8714,0.8678,0.8678,0.8213,0.8038,0.7945,0.7447,0.7315,0.7352,0.6962,0.6877,0.7002,0.7241,0.7345,0.7355,0.7481,0.7459,0.7339,0.722,0.7059,0.6771,0.7455,0.7459,0.7105,0.6441,0.6836,0.7034,0.695,0.7501,0.8317,0.9585,1.0424,0.0,0.0,0.0,0.0,0.0,1.3836,1.4006,0.0,0.0,1.3981,1.3607,1.3006,0.0,0.0,0.0,1.1139,0.0,1.0525,0.9777,0.9473,0.9322,0.9085,0.8722,0.8577,0.8617,0.8788,0.936,0.9849,0.0,0.0,0.0,0.0,0.0,1.0506,1.1045,0.0,1.1263,1.1548,1.2874,1.3268,0.0,1.3905,1.4659,1.5312,1.5961,1.6435,1.6907,1.707,1.7247,0.0,0.0,0.0,1.6707,1.5306,0.0,0.0,0.0,0.0,0.0,0.0,0.0,0.0,0.0,0.0,1.0921,1.0584,1.0134,0.9784,0.0,0.0,0.0,0.0,0.0,0.0,0.0,0.0,0.0,0.0,0.8026,0.0,0.8175,0.8496,0.8603,0.8698,0.8639,0.8612,0.8514,0.8165,0.7985,0.7877,0.7477,0.74,0.734,0.6866,0.6851,0.7085,0.7144,0.7192,0.7339,0.7383,0.7421,0.7437,0.7236,0.7203,0.7053,0.6759,0.6589,0.6439,0.6986,0.7376,0.7633,0.7375,0.8094,0.0,0.0,0.0,0.0,0.0,1.3779,0.0,1.4581,0.0,1.5054,0.0,1.5006,1.4786,1.423,1.3993,0.0,1.3854,1.2803,0.0,0.0,1.1466,1.0706,1.0226,0.9969,0.9658,0.9445,0.8991,0.9001,0.9391,0.9677,1.0218,1.085,1.1201,1.1352,0.0,0.0,1.1093,0.0,0.0,1.169,1.1942,0.0,1.3468,1.3363,1.4302,1.4987,1.5671,1.6518,1.7047,1.7461,1.7643,1.7881,1.7919,1.7404,1.7611,0.0,1.6339,1.6,0.0,1.4003,0.0,0.0,0.0,0.0,0.0,0.0,0.0,0.0,1.0866,1.0337,0.9748,0.0,0.9093,0.0,0.0,0.0,0.8844,0.8571,0.0,0.0,0.0,0.7767,0.7625,0.823,0.8418,0.8545,0.8606,0.8665,0.8668,0.8428,0.8237,0.8085,0.7877,0.7471,0.737,0.7268,0.676,0.6724,0.6945,0.6923,0.6964,0.7149,0.7192,0.723,0.7252,0.7138,0.7033,0.6985,0.6659,0.6531,0.6439,0.7744,0.8015,0.8178,0.0,0.9202,0.0,0.0,0.0,1.3127,0.0,1.4688,1.5252,1.5528,1.5806,1.5899,1.5896,1.5923,1.5681,1.4849,1.4883,0.0,0.0,1.39,1.375,1.4027,0.0,0.0,0.0,1.0461,1.0069,1.0048,0.9366,0.9366,1.0037,1.0018,1.0424,1.1044,1.166,1.2213,1.2575,1.2159,1.2098,1.2134,1.2239,1.2332,1.2566,1.3598,1.3791,1.3676,1.4244,1.5096,1.6035,1.6763,1.7699,1.8488,1.8175,1.8771,1.934,1.7945,1.8169,1.8434,1.7163,0.0,0.0,0.0,0.0,1.537,0.0,0.0,0.0,0.0,0.0,0.0,1.1365,1.0535,0.9676,0.9048,0.0,0.8867,0.0,0.832,0.8472,0.8877,0.7844,0.0,0.0,0.7486,0.7161,0.8032,0.823,0.8344,0.845,0.8785,0.8855,0.8428,0.8435,0.8237,0.8038,0.7441,0.7235,0.7235,0.6637,0.6502,0.6616,0.6616,0.6687,0.6812,0.6921,0.6904,0.6823,0.6931,0.6764,0.6577,0.7016,0.7248,0.7204,0.7671,0.8393,0.9076,0.0,0.9576,1.0111,0.0,0.0,0.0,0.0,1.5281,1.5928,1.6613,1.6483,1.6437,1.6767,1.681,0.0,0.0,0.0,0.0,1.5805,1.5149,1.4612,1.4323,1.3354,0.0,1.2046,1.1372,1.0958,1.0941,1.0137,0.9967,1.0329,1.0269,1.071,1.1467,1.1882,1.2124,1.2358,1.2433,1.2598,1.2685,0.0,1.3319,1.3838,1.4333,1.4612,1.4795,1.5793,1.6326,1.6786,1.7586,1.8272,1.8812,1.9099,1.9422,1.9546,1.9167,1.9183,1.9208,1.8402,1.8056,1.7653,0.0,0.0,0.0,0.0,0.0,0.0,0.0,0.0,0.0,0.0,1.0263,0.0,0.0,0.0,0.0,0.9117,0.0,0.0,0.8007,0.8167,0.0,0.0,0.7592,0.7724,0.8119,0.7953,0.8123,0.8705,0.8761,0.8829,0.9031,0.8634,0.8336,0.8336,0.7739,0.764,0.7739,0.7241,0.7208,0.7437,0.7238,0.7315,0.7328,0.716,0.7123,0.7248,0.6978,0.6959,0.7006,0.6629,0.667,0.674,0.8263,0.9165,0.0,1.0333,0.0,0.0,1.1835,1.2894,0.0,1.4953,1.5839,0.0,1.7114,1.7249,1.7418,1.7518,1.751,0.0,1.6931,0.0,0.0,1.6537,1.6026,1.5626,1.5267,1.4544,0.0,1.3112,0.0,1.1626,1.1433,1.0517,1.033,1.0701,1.0625,1.1007,1.1668,1.2301,1.2683,1.2956,1.2997,1.3244,0.0,1.3625,1.4057,1.4862,1.533,1.5401,1.5493,1.6355,1.6981,1.7491,1.8267,1.8862,1.9288,1.9579,1.9853,2.0036,1.9762,1.9853,1.9803,1.9315,1.9257,1.8897,1.7685,1.766,1.7497,0.0,0.0,0.0,0.0,0.0,0.0,0.0,0.0,0.0,0.0,0.0,0.0,0.0,0.8528,0.0,0.0,0.0,0.0,0.0,0.0,0.0,0.0,0.8043,0.8271,0.886,0.8866,0.8981,0.9229,0.8931,0.8733,0.8528,0.8038,0.7846,0.7939,0.7441,0.7278,0.7554,0.7351,0.74,0.7364,0.725,0.7223,0.7358,0.7186,0.71,0.7154,0.6937,0.694,0.698,0.9154,1.0152,0.0,0.0,0.0,0.0,0.0,1.3706,0.0,1.5315,0.0,1.7353,1.7466,1.8008,1.8311,1.8077,0.0,1.7944,1.7428,1.741,1.7239,1.7025,1.6893,1.6647,1.6329,1.5808,1.502,0.0,0.0,1.2135,1.1626,1.067,1.0492,1.095,1.0965,1.1258,1.1747,1.2774,1.3435,1.3824,1.3594,1.3948,1.4456,1.4034,1.4642,1.5591,1.6188,1.6138,1.5922,1.6755,1.7426,1.8156,1.8876,1.9564,1.9928,1.9762,2.0201,2.0564,2.011,2.011,2.0201,1.9928,2.0262,2.0145,1.8669,1.8552,1.8302,1.6798,1.5712,1.5032,0.0,0.0,0.0,0.0,0.0,0.0,0.0,0.0,0.0,0.0,0.0,0.0,0.0,0.0,0.0,0.0,0.0,0.0,0.0,0.0,0.8446,0.8894,0.9001,0.9172,0.9229,0.9236,0.913,0.8825,0.8336,0.8038,0.8038,0.754,0.7341,0.7341,0.7341,0.7341,0.7347,0.737,0.7437,0.7389,0.7428,0.7379,0.7376,0.7604,0.7561,0.7334,0.0,0.0,0.0,0.0,0.0,1.3425,1.4457,1.519,1.5952,1.6725,1.7628,1.8275,1.8609,1.8468,1.8532,1.8765,1.8713,0.0,0.0,0.0,0.0,1.7862,1.7512,1.7171,1.6769,1.5934,1.5025,0.0,0.0,1.2201,1.1744,1.0883,1.0767,1.1277,1.1016,1.1385,1.2346,1.3301,0.0,1.3602,1.3909,1.4008,1.4001,1.4106,1.4836,1.5865,1.6151,1.6495,1.6959,1.8023,1.8721,1.9233,1.9716,2.0214,2.0564,2.0473,2.0564,2.0654,2.0292,2.0292,2.0201,1.9928,2.0062,1.9964,1.9222,1.9365,1.9272,1.8057,1.7538,1.6876,1.5503,0.0,0.0,0.0,0.0,0.0,0.0,0.0,0.0,0.0,0.0,0.8904,0.0,0.0,0.0,0.0,0.0,0.0,0.0,0.0,0.8128,0.0,0.9001,0.9267,0.0,0.0,0.9137,0.913,0.8634,0.8336,0.8336,0.8038,0.7839,0.7839,0.7839,0.7839,0.7839,0.7672,0.7616,0.7626,0.7672,0.7816,0.782,0.7937,0.7727,0.7561,0.0,0.0,0.0,0.0,0.0,0.0,0.0,1.6825,0.0,1.6858,1.7674,1.8272,1.8242,1.8849,1.9113,1.9113,1.9461,1.951,1.9145,1.9339,1.9166,1.87,1.8333,1.7943,1.7603,1.6852,1.5993,1.5114,0.0,0.0,1.2361,1.1386,1.118,1.1577,1.1552,1.2076,1.3003,0.0,0.0,1.4319,1.4779,1.4886,1.4874,1.4843,1.547,1.6312,1.6773,1.7434,1.8038,1.8716,1.9576,2.0361,2.0487,2.0984,2.1281,2.0978,2.0817,2.0817,2.0564,2.0382,2.0292,2.011,2.0214,2.0118,1.957,1.9601,1.9542,1.8474,1.7857,1.6965,1.5219,1.394,0.0,0.0,0.0,0.0,0.0,0.0,0.0,0.0,0.0,0.0,0.0,0.0,0.0,0.0,0.0,0.0,0.0,0.0,0.8391,0.0,0.0,0.0,0.9875,0.0,0.9434,0.9434,0.9031,0.8832,0.8832,0.8535,0.8435,0.8435,0.8237,0.8237,0.8244,0.8026,0.7878,0.7868,0.8006,0.8035,0.8048,0.8152,0.8048,0.7862,0.0,1.2539,0.0,0.0,1.522,0.0,1.7277,1.8092,1.8104,1.7118,1.7793,1.8361,1.8123,1.9172,1.9693,1.9591,2.004,2.0155,1.9924,1.9932,1.9738,1.9484,1.9014,1.86,1.8541,1.7716,1.7014,0.0,0.0,0.0,0.0,1.1967,1.1652,1.1827,1.2226,0.0,0.0,0.0,1.4721,1.5108,1.5366,1.5592,1.5706,1.5588,1.6064,1.6924,1.7507,1.8412,1.9239,1.9497,2.0332,2.123,2.124,2.1665,2.2023,2.1427,2.1265,2.1301,2.087,2.0616,2.0486,2.04,2.0348,2.0222,1.9737,1.9608,1.9349,1.8629,1.7827,1.6683,1.5077,1.4434,0.0,0.0,0.0,0.0,0.0,0.0,0.0,0.0,0.0,0.0,0.8482,0.0,0.0,0.0,0.0,0.0,0.792,0.0,0.0,0.0,0.0,0.9342,0.988,0.0,0.9624,0.9624,0.9335,0.9236,0.9236,0.8924,0.8825,0.8825,0.8528,0.8549,0.8492,0.8424,0.837,0.8229,0.8454,0.8368,0.8269,0.8484,0.8374,0.819,0.0,0.0,0.0,0.0,0.0,0.0,1.7754,1.8354,1.8538,1.8698,1.8964,1.9381,1.9571,1.9768,1.9924,2.0155,2.027,2.027,2.027,2.0242,2.009,1.9733,1.9442,1.9146,1.8883,1.8231,1.7313,0.0,0.0,1.4322,0.0,1.2337,1.212,0.0,0.0,0.0,0.0,1.4701,1.507,1.5147,1.5388,1.5363,1.5255,1.5599,1.6497,1.7584,1.8023,1.9305,2.0727,2.1065,2.1244,2.1542,2.2034,2.2433,2.272,2.2134,2.2167,2.2182,2.1283,2.1098,2.1107,2.0741,2.0326,1.9887,1.9687,1.9412,1.9136,1.8582,1.7644,1.665,1.5739,1.4993,1.417,0.0,0.0,0.0,0.0,0.0,1.1182,1.0893,0.0,0.0,0.9153,0.8377,0.0,0.0,0.7182,0.0,0.0,0.0,0.0,0.8682,0.8982,0.9192,0.9214,0.9744,0.9821,0.9624,0.9335,0.9236,0.9236,0.8924,0.8825,0.8825,0.8726,0.8914,0.9056,0.8772,0.8848,0.9119,0.9133,0.9022,0.883,0.883,0.8712,0.851,0.0,0.0,0.0,0.0,0.0,0.0,0.0,1.9206,1.9401,1.9745,1.9625,1.9639,1.979,2.0158,2.0385,2.0486,2.073,2.0859,2.0859,2.0672,2.037,2.0048,1.9613,1.9313,1.9182,1.8518,1.7691,0.0,0.0,0.0,0.0,0.0,0.0,0.0,0.0,1.4252,1.4618,1.5511,1.5832,1.575,1.6069,1.6099,1.6021,1.6211,1.695,1.8028,1.8611,1.9682,2.0942,2.1744,2.2214,2.2559,2.253,2.2955,2.333,2.2738,2.2369,2.2186,2.1817,2.1309,2.0915,2.0801,2.0463,2.0019,1.9671,1.9652,1.9548,1.8706,1.7902,1.7081,1.5942,1.5339,1.4647,0.0,0.0,0.0,0.0,0.0,0.0,1.1534,0.0,0.9704,0.0,0.8625,0.0,0.0,0.0,0.0,0.0,0.0,0.0,0.8308,0.0,0.9464,0.9383,0.9966,1.0117,0.9821,0.9723,0.9624,0.9434,0.9327,0.9229,0.9038,0.9137,0.9112,0.8889,0.919,0.9133,0.8932,0.9247,0.9106,0.894,0.894,0.8823,0.8719,1.5294,0.0,1.6057,0.0,1.7715,1.8084,1.9442,1.9707,1.9924,2.027,2.0155,2.0071,2.0076,2.0473,2.0716,2.0845,2.1089,2.1203,2.1203,2.0998,2.072,2.0509,1.986,0.0,1.9523,1.9002,1.8278,1.7527,1.67,0.0,0.0,0.0,0.0,0.0,1.5048,1.5454,1.5752,1.6347,1.6675,1.6759,1.7008,1.7077,1.7141,1.7237,1.7823,1.8701,1.9321,2.0226,2.1378,2.2432,2.3238,2.3583,2.3314,2.3615,2.3832,2.3349,2.2921,2.2604,2.2357,2.1777,2.1204,2.1009,2.0675,2.0292,1.9762,1.9777,1.969,1.8613,1.8102,1.7457,1.6083,1.5711,1.5182,1.3913,0.0,0.0,0.0,0.0,0.0,0.0,1.0662,0.9718,0.9501,0.8777,0.0,0.0,0.0,0.0,0.0,0.0,0.0,0.0,0.0,0.0,0.9624,1.0218,1.0413,1.0117,1.0019,0.992,0.9723,0.9624,0.9557,0.9414,0.9431,0.9335,0.9242,0.958,0.9485,0.911,0.9442,0.9382,0.894,0.9051,0.894,0.8947,1.5799,1.6393,1.7004,1.7906,1.8223,1.8656,1.9319,1.9591,1.9924,2.027,2.05,2.0716,2.0716,2.0716,2.0845,2.1203,2.1203,2.1203,2.1203,2.1203,2.1171,0.0,0.0,2.0185,2.0181,1.9642,1.9008,1.8382,0.0,0.0,1.6204,0.0,1.5908,1.6232,1.6756,1.7036,1.7133,1.7341,1.7609,1.7966,1.7955,1.8125,1.8405,1.8686,1.9193,1.9783,2.0484,2.1311,2.2215,2.332,2.4035,2.443,2.4529,2.4332,2.4159,2.3948,2.4017,2.395,2.2781,2.2564,2.2344,2.1427,2.0933,2.0473,1.9762,1.9596,1.9304,1.8272,1.8087,1.7702,1.6458,1.6218,1.5645,1.4063,0.0,0.0,0.0,0.0,0.0,1.1564,1.0444,0.9589,0.9388,0.8815,0.0,0.0,0.0,0.0,0.0,0.0,0.0,0.869,0.9579,0.0,0.9624,1.04,1.0708,1.0413,1.0117,1.0019,1.0019,0.9723,0.9721,0.9884,0.9579,0.9888,1.0321,1.0099,0.9876,0.9816,1.0147,0.9706,0.894,0.9272,0.9161,0.896,1.6678,1.7178,1.7742,1.8224,1.8594,1.9025,1.9537,1.9707,2.004,2.0486,2.0601,2.0831,2.0974,2.1089,2.1089,0.0,2.1203,2.1203,0.0,2.1203,2.1274,2.1511,2.0862,2.0523,2.0524,1.9983,1.924,1.8397,0.0,0.0,0.0,1.6842,1.6956,1.707,1.7483,1.7767,1.7949,1.8145,1.8498,1.8784,1.8777,1.8889,1.9192,1.9486,2.0083,2.0783,2.1362,2.221,2.302,2.3935,2.4332,2.4627,2.5314,2.5118,2.4609,2.4184,2.3956,2.3651,2.318,2.2786,2.2203,2.1882,2.1432,2.1062,2.0512,1.9746,1.9099,1.8517,1.8161,1.7531,1.6366,1.6127,1.5819,1.4513,1.4203,0.0,0.0,0.0,0.0,1.1805,1.1178,1.0671,1.0454,0.9944,0.0,0.0,0.0,0.0,0.0,0.0,0.0,0.0,0.9665,0.0,1.0104,1.0761,1.0806,1.0413,1.0314,1.0186,0.9903,0.9803,0.99,1.0079,1.0104,1.011,1.0115,1.0341,1.0093,0.9596,1.0147,0.9816,0.9272,0.9382,0.955,0.9763,1.756,1.793,1.8211,1.8506,1.8646,1.8858,1.9388,1.9435,1.9621,2.0302,2.043,2.0715,2.1189,2.1203,0.0,2.1203,2.132,2.1393,2.1393,2.1612,2.1918,2.2251,2.1368,2.1011,2.138,2.0479,0.0,1.9258,1.8701,1.8277,1.78,1.7905,1.805,1.8364,1.8584,1.8773,1.8944,1.9124,1.9453,1.976,1.9719,1.9948,2.0357,2.0555,2.0982,2.1678,2.2374,2.3026,2.3637,2.4529,2.4824,2.4922,2.5703,2.5606,2.5118,2.4824,2.4459,2.4017,2.3782,2.3268,2.2739,2.223,2.189,2.15,2.0862,1.9989,1.9162,1.8686,1.8236,1.7531,1.6366,1.6225,1.6012,1.4891,1.4423,1.4065,1.3711,0.0,0.0,0.0,0.0,0.0,0.0,1.0686,1.0425,0.0,0.0,0.0,0.0,0.0,0.0,0.9201,1.0023,0.0,1.051,1.0835,1.0904,1.0708,1.0591,1.0423,1.0194,1.0092,1.0087,1.0274,1.0387,1.0361,1.0317,1.0538,1.0366,0.9816,1.0257,1.0185,0.969,0.9868,1.0062,1.0167,1.8298,1.8415,1.8532,0.0,1.8659,0.0,1.8831,1.8942,1.9195,1.9808,2.0174,2.0514,2.1174,2.1233,2.1247,2.1247,0.0,0.0,0.0,2.2379,2.29,2.3123,2.1994,2.1744,2.2601,2.1076,2.0332,2.059,1.9656,1.9239,1.9209,1.9021,1.9286,2.0086,1.9879,1.9879,2.0174,2.007,2.042,2.0893,2.066,2.1026,2.1725,2.1827,2.203,2.2316,2.342,2.3737,2.3935,2.4941,2.5333,2.5333,2.5703,2.5703,2.5703,2.5703,2.5314,2.4824,2.4233,2.4054,2.368,2.2726,2.2347,2.197,2.0992,2.023,1.9589,1.8781,1.8315,1.7717,1.6487,1.6392,1.6289,1.5246,1.4682,1.4231,1.3948,0.0,0.0,0.0,0.0,0.0,0.0,1.1004,1.101,0.0,0.0,0.0,0.0,0.0,0.9365,1.0067,1.0584,1.0905,1.0915,1.0821,1.0932,1.1147,1.0842,1.063,1.0594,1.0385,1.0282,1.0452,1.0452,1.0542,1.0688,1.0696,1.0586,1.0366,1.0594,1.0477,1.0183,1.0586,1.0655,1.0477,0.0,0.0,1.8765,1.8881,1.9061,1.9137,1.9265,1.9428,1.9745,2.0158,2.0387,2.0759,2.1203,2.1437,2.1584,2.1584,2.1657,2.1803,2.2052,2.2706,2.3127,2.3474,2.3001,2.2665,2.2713,2.1526,2.0798,2.0272,1.9925,1.9717,1.9861,1.9553,1.9701,2.0086,2.0086,2.0292,2.0704,2.0931,2.1135,2.1522,2.1828,2.2148,2.2333,2.2736,2.322,2.3737,2.4134,2.4529,2.4941,2.5235,2.543,2.5723,2.6207,2.6187,2.5897,2.5509,2.5333,2.5137,2.4529,2.4258,2.3987,2.3493,2.2728,2.1994,2.1213,2.0476,1.9669,1.8747,1.8315,1.7885,1.6973,1.6734,1.6397,1.5722,1.515,1.4705,1.4216,1.3548,0.0,0.0,1.2597,1.249,1.1978,1.2218,1.1931,0.0,0.0,0.0,0.0,1.0211,1.0376,1.0414,1.0735,1.0972,1.1123,1.1241,1.1217,1.1057,1.0802,1.0715,1.0797,1.0797,1.0898,1.1285,1.1067,1.0983,1.1017,1.0798,1.0586,1.0382,1.0739,1.0707,1.0424,1.07,1.0965,1.1208,1.8971,1.8997,1.8997,1.9229,1.9239,1.9158,1.9388,1.938,1.9566,2.0274,2.0288,2.0616,2.1393,2.1584,2.1936,2.2334,2.2245,2.2198,2.2615,2.3155,2.3642,2.3854,2.3361,2.3138,2.3068,2.2061,2.1429,2.1063,2.0803,2.0545,2.0524,2.0315,2.0431,2.0601,2.0601,2.0909,2.1318,2.1522,2.1827,2.2131,2.2434,2.2719,2.312,2.332,2.3836,2.4332,2.4824,2.5118,2.5333,2.5625,2.5723,2.5917,2.64,2.6496,2.64,2.6014,2.5723,2.5528,2.5039,2.4627,2.4332,2.3737,2.2837,2.1979,2.1578,2.085,2.0149,1.9388,1.8762,1.8127,1.7479,1.7065,1.6584,1.592,1.5345,1.4767,1.43,1.3613,0.0,1.3171,1.3151,1.3016,1.2857,1.2786,1.2441,1.156,1.1343,0.0,1.0606,1.1061,1.1081,1.075,1.1058,1.123,1.134,1.1548,1.155,1.1335,1.1125,1.123,1.1414,1.1091,1.115,1.1345,1.1017,1.0907,1.0907,1.0798,1.0634,1.0612,1.0932,1.0956,1.1001,1.1176,1.1422,1.1646,1.9693,1.9345,1.9229,1.9693,1.9374,1.9098,1.9439,1.922,1.9361,2.0174,2.0146,2.0487,2.1628,2.1774,2.229,2.3066,2.2867,2.2882,2.3185,2.3779,2.4024,2.4112,2.3544,2.3299,2.3431,2.2573,2.2102,2.2056,2.176,2.1509,2.1118,2.1102,2.1242,2.142,2.142,2.1522,2.1928,2.2131,2.2434,2.2736,2.2736,2.322,2.3836,2.3935,2.4332,2.4824,2.5509,2.5703,2.5528,2.6014,2.6187,2.6207,2.6496,2.6749,2.6906,2.6693,2.6443,2.6172,2.5567,2.5137,2.4646,2.3827,2.2872,2.2131,2.1928,2.1244,2.0684,2.02,1.9305,1.8571,1.8089,1.7457,1.6749,1.6012,1.5345,1.4754,1.4235,0.0,1.3286,1.3686,1.3447,1.3306,1.3523,1.314,1.2733,1.2186,1.2182,1.2053,1.1589,1.1889,1.1764,1.1042,1.1424,1.1657,1.1614,1.1681,1.1764,1.1754,1.1647,1.1738,1.1891,1.1345,1.1126,1.1126,1.0907,1.0798,1.0806,1.072,1.0826,1.0972,1.1029,1.1232,1.1524,1.1711,1.1792,1.1857,1.9475,1.9591,1.9693,1.9809,1.955,1.9408,1.974,1.9699,1.98,2.02,2.0656,2.1205,2.1686,2.2408,2.2885,2.3095,2.3354,2.3597,2.3885,2.381,2.3779,2.4096,2.3677,2.3315,2.32,2.2466,2.2112,2.204,2.1993,2.1976,2.1764,2.1748,2.1865,2.1928,2.1725,2.203,2.2719,2.2719,2.302,2.352,2.4035,2.4233,2.443,2.5099,2.5392,2.5606,2.6207,2.64,2.6304,2.64,2.64,2.6496,2.6805,2.6952,2.7039,2.7039,2.7102,2.6942,2.5918,2.5235,2.482,2.4675,2.3687,2.2736,2.2434,2.1545,2.0684,2.04,1.9688,1.892,1.8611,1.7775,1.6894,1.6225,1.5332,1.4497,1.3874,0.0,1.3498,1.3536,1.3689,1.3701,1.3562,1.3597,1.3528,1.305,1.2836,1.2586,1.2268,1.2264,1.2194,1.1773,1.1836,1.1856,1.2039,1.1866,1.1763,1.1964,1.1411,1.1319,1.1682,1.1236,1.1236,1.1455,1.1126,1.1017,1.1034,1.097,1.094,1.0997,1.1297,1.1451,1.1524,1.1711,1.1866,1.1996,1.9591,1.9591,1.9707,2.004,1.9822,1.9707,2.004,2.004,2.0211,2.0727,2.0985,2.1568,2.2393,2.281,2.3307,2.3856,2.3871,2.3994,2.433,2.3898,2.3738,2.4023,2.3721,2.3451,2.3276,2.3101,2.3039,2.2991,2.3102,2.2857,2.2356,2.2567,2.2478,2.2131,2.2333,2.2756,2.3251,2.3427,2.3845,2.4427,2.482,2.5271,2.5759,2.6153,2.6507,2.6904,2.7299,2.7299,2.7319,2.7398,2.7398,2.7455,2.7309,2.7554,2.776,2.7221,2.7162,2.7016,2.6222,2.5705,2.5237,2.4808,2.3838,2.2945,2.2639,2.1843,2.1075,2.0873,2.01,1.9369,1.9169,1.8258,1.7337,1.6767,1.604,0.0,0.0,1.432,1.418,1.4334,1.4222,1.4056,1.3921,1.4004,1.3826,1.3008,1.3063,1.2987,1.2439,1.2778,1.2834,1.234,1.2089,1.2154,1.2356,1.214,1.2135,1.2219,1.1891,1.1782,1.1782,1.1455,1.1406,1.1509,1.1176,1.1114,1.1093,1.107,1.1167,1.1273,1.1435,1.1614,1.1792,1.1882,1.2028,1.219,1.9707,1.9707,1.9707,2.0155,1.9924,1.9924,2.0155,2.0224,2.0466,2.1042,2.1331,2.1843,2.2929,2.3185,2.3703,2.4579,2.4409,2.4345,2.4484,2.3913,2.3715,2.3908,2.3582,2.352,2.3585,2.3809,2.3921,2.3921,2.3822,2.3601,2.3145,2.3291,2.3148,2.2792,2.3216,2.3644,2.3923,2.4309,2.479,2.5258,2.5448,2.6075,2.6864,2.7061,2.7442,2.8026,2.8207,2.8207,2.8227,2.8307,2.8387,2.8304,2.7873,2.8119,2.8389,2.7521,2.73,2.7182,2.655,2.6144,2.5674,2.5035,2.414,2.3341,2.3133,2.2225,2.1583,2.1648,2.0672,1.9842,1.9842,1.884,1.7891,1.7175,0.0,0.0,0.0,1.4983,1.4812,1.4991,1.4716,1.4564,1.4481,1.4412,1.406,1.3275,1.3426,1.3258,1.2702,1.3182,1.3357,1.3063,1.2591,1.2481,1.2646,1.2469,1.2436,1.2436,1.2219,1.2137,1.2073,1.1744,1.1637,1.1594,1.1368,1.133,1.1339,1.1388,1.1511,1.1684,1.1725,1.1938,1.2217,1.2217,1.2207,1.2385,1.9475,1.9822,2.0155,1.9924,1.9809,1.9809,1.9809,2.0055,2.0482,2.0732,2.1598,2.2335,2.2989,2.3626,2.4209,2.461,2.4558,2.4468,2.4118,2.3769,2.3578,2.3546,2.3456,2.3617,2.3921,2.3921,2.3921,2.3921,2.3794,2.3921,2.4071,2.4049,2.4263,2.4751,2.4855,2.4863,2.5024,2.5327,2.5599,2.5742,2.6207,2.6681,2.7259,2.7631,2.7996,2.8186,2.8507,2.8707,2.8885,2.8885,2.8885,2.8922,2.846,2.8445,2.845,2.7905,2.7954,2.7999,2.7276,2.6664,2.6163,2.5927,2.518,2.435,2.4053,2.3131,2.2336,2.265,2.1592,2.0513,2.0513,1.9598,1.8454,1.7288,0.0,0.0,1.5153,1.5055,1.5025,1.5095,1.5245,1.5306,1.5016,1.4835,1.4592,1.4532,1.3866,1.346,1.3414,1.3467,1.3724,1.4179,1.3383,1.2966,1.2852,1.2545,1.2436,1.2436,1.1891,1.189,1.2292,1.1957,1.195,1.2126,1.2126,1.1906,1.1701,1.1879,1.2056,1.2242,1.242,1.2606,1.2775,1.2775,1.2639,1.2548,1.9591,1.9809,2.004,2.004,1.9924,1.9877,2.0068,2.0261,2.0475,2.097,2.1944,2.2766,2.3339,2.384,2.4283,2.4527,2.4452,2.422,2.4001,2.3741,2.3451,2.3456,2.4003,2.4256,2.4256,2.4573,2.4684,2.4684,2.4641,2.4671,2.4788,2.472,2.4845,2.505,2.5344,2.5563,2.5805,2.5982,2.6426,2.6983,2.7097,2.7737,2.8491,2.8672,2.8961,2.9353,2.9477,2.958,2.9661,2.9764,2.9764,2.9578,2.9321,2.9309,2.9329,2.9116,2.9045,2.8875,2.8013,2.7378,2.6774,2.619,2.5487,2.4667,2.4025,2.3185,2.265,2.2585,2.1475,2.059,2.059,1.9628,1.8599,1.8034,0.0,1.6799,1.6473,1.6223,1.5927,1.5632,1.5733,1.5607,1.5101,1.5016,1.4784,1.4231,1.3929,1.3565,1.327,1.3543,1.4008,1.468,1.418,1.38,1.3423,1.2989,1.2663,1.2663,1.2327,1.222,1.232,1.2208,1.2266,1.2337,1.2337,1.2399,1.2276,1.2354,1.2482,1.2681,1.2507,1.2683,1.2969,1.2714,1.2701,1.2735,1.9604,1.9707,1.9809,2.004,1.9924,2.0007,1.9979,2.0378,2.0723,2.1244,2.2228,2.3142,2.384,2.4037,2.4217,2.4579,2.4261,2.4029,2.4039,2.4007,2.3959,2.3601,2.4256,2.4701,2.4701,2.5017,2.5221,2.5348,2.5226,2.5322,2.5613,2.5469,2.5539,2.5748,2.636,2.6598,2.6653,2.7097,2.7583,2.7985,2.8078,2.8707,2.9393,2.9515,2.9807,3.0099,3.0203,3.0203,3.0203,3.0412,3.0308,3.012,2.9743,2.9704,2.9782,2.9836,2.9778,2.94,2.8665,2.8157,2.7525,2.6299,2.5682,2.523,2.4234,2.3461,2.2905,2.2836,2.1805,2.0987,2.0773,1.9956,1.9109,1.84,1.7932,1.7521,1.7217,1.6967,1.6671,1.6253,1.6164,1.5959,1.5354,1.5282,1.4945,1.4465,1.4271,1.4059,1.3724,1.3915,1.436,1.5144,1.4845,1.4457,1.4077,1.3566,1.3197,1.2979,1.275,1.2682,1.2616,1.2616,1.2684,1.2894,1.2958,1.2937,1.295,1.2776,1.3021,1.3341,1.2716,1.2875,1.3293,1.2905,1.2865,1.2972,1.9426,1.9591,1.9707,1.9475,1.9938,2.004,1.9488,2.0419,2.1303,2.1632,2.2539,2.3475,2.444,2.4299,2.4201,2.4579,2.4245,2.4013,2.4039,2.4922,2.4981,2.3937,2.4273,2.4701,2.5221,2.5221,2.5348,2.5697,2.5306,2.5631,2.6645,2.6151,2.6491,2.7422,2.8087,2.8047,2.7637,2.8777,2.892,2.8307,2.9126,2.9621,2.9698,3.0024,3.0218,3.0412,3.0745,3.062,3.0412,3.0724,3.062,3.0307,2.9845,2.9414,2.9206,2.9778,2.9813,2.959,2.9254,2.8897,2.8258,2.6224,2.598,2.5933,2.4675,2.3861,2.3365,2.3519,2.2736,2.1821,2.1154,2.0891,2.013,1.8334,1.7974,1.777,1.7257,1.7154,1.7054,1.6698,1.6736,1.6524,1.5992,1.5656,1.5499,1.5499,1.5041,1.4812,1.5059,1.4786,1.4831,1.5395,1.5098,1.4891,1.488,1.4319,1.376,1.3194,1.3194,1.3315,1.3391,1.3391,1.3504,1.3703,1.392,1.3769,1.3533,1.335,1.3671,1.3988,1.3337,1.3457,1.3875,1.3498,1.3375,1.3375,2.0033,1.9959,1.9809,2.0053,2.0155,2.034,2.033,2.0596,2.0974,2.1317,2.2215,2.2961,2.3196,2.3541,2.3897,2.4114,2.3876,2.3959,2.4678,2.5846,2.6276,2.604,2.5778,2.5863,2.5957,2.6134,2.6354,2.6773,2.6573,2.6661,2.7206,2.7289,2.7504,2.8067,2.8601,2.868,2.8591,2.9106,2.9126,2.9023,3.0071,3.0575,3.0706,3.1381,3.1572,3.1377,3.1485,3.127,3.1183,3.1377,3.1061,3.0556,3.041,3.0478,3.058,3.073,3.071,3.043,2.9775,2.9565,2.9047,2.6915,2.6399,2.5933,2.4675,2.4061,2.3677,2.3568,2.2736,2.1837,2.1263,2.0479,1.9725,1.8471,1.8088,1.788,1.7553,1.7448,1.7279,1.6723,1.6736,1.6524,1.5992,1.5656,1.5395,1.5187,1.4908,1.4792,1.507,1.4968,1.5009,1.5407,1.5263,1.5063,1.4891,1.459,1.4322,1.4097,1.3881,1.3779,1.3955,1.3955,1.4038,1.4128,1.4194,1.4098,1.4107,1.3934,1.4061,1.4391,1.3622,1.3569,1.3892,1.3635,1.3553,1.3695,2.0226,2.0087,2.0117,2.0219,2.0354,2.0442,2.0522,2.0845,2.1191,2.1525,2.2318,2.2894,2.3169,2.3349,2.3668,2.3924,2.4154,2.4624,2.5451,2.6637,2.7427,2.764,2.7404,2.7205,2.706,2.7253,2.7401,2.7715,2.7672,2.7682,2.796,2.8048,2.8262,2.8601,2.9132,2.9201,2.9166,2.9683,2.9891,3.0078,3.108,3.1591,3.1827,3.2427,3.234,3.1993,3.2102,3.1797,3.1491,3.1688,3.1391,3.0988,3.1174,3.1257,3.1257,3.1325,3.1242,3.0937,3.0084,2.9849,2.9423,2.7314,2.6608,2.6127,2.4709,2.4256,2.4033,2.3585,2.3071,2.2371,2.1697,2.0816,1.9949,1.8978,1.8512,1.8194,1.7769,1.7769,1.7556,1.7116,1.7009,1.6794,1.627,1.6209,1.6077,1.5755,1.5552,1.5552,1.5755,1.5719,1.5648,1.5852,1.5671,1.5622,1.5451,1.5333,1.5003,1.4698,1.4361,1.437,1.4426,1.4304,1.4317,1.4317,1.4402,1.444,1.4449,1.4272,1.4364,1.4641,1.3928,1.3874,1.4157,1.4083,1.4153,1.4288,2.0321,2.0253,2.0274,2.0378,2.0582,2.0615,2.0428,2.1103,2.178,2.2094,2.2736,2.3309,2.381,2.3705,2.3646,2.3958,2.4922,2.5794,2.6521,2.749,2.8308,2.8872,2.8988,2.8934,2.8653,2.8465,2.8482,2.8694,2.8655,2.8769,2.8913,2.8874,2.9106,2.9338,2.9595,2.9679,2.9826,3.0579,3.0916,3.1211,3.2144,3.2659,3.2836,3.3073,3.2879,3.2338,3.2642,3.2229,3.1594,3.1772,3.1662,3.1567,3.1919,3.184,3.1717,3.1782,3.1556,3.1092,3.0157,2.9922,2.9381,2.7445,2.692,2.6478,2.4777,2.4384,2.4161,2.3697,2.3472,2.3135,2.2229,2.1572,2.0708,1.9628,1.9141,1.8725,1.8198,1.809,1.7968,1.7642,1.7642,1.7425,1.677,1.6993,1.703,1.6694,1.6706,1.6706,1.673,1.663,1.6541,1.656,1.6462,1.6342,1.6312,1.6312,1.5964,1.5178,1.483,1.4811,1.4847,1.4461,1.4345,1.4374,1.4572,1.4657,1.4676,1.4465,1.4679,1.4847,1.437,1.4459,1.4764,1.4547,1.4755,1.5028,2.0588,2.0402,2.0392,2.0614,2.0699,2.0802,2.1307,2.161,2.178,2.1759,2.2387,2.2659,2.2574,2.3074,2.3664,2.3957,2.5804,2.7115,2.7508,2.8726,2.9672,3.0023,3.0238,3.078,3.1351,3.0015,2.9575,3.0241,3.0369,3.0587,3.0812,3.0677,3.0805,3.1204,3.0495,3.058,3.1127,3.1254,3.1402,3.1572,3.2965,3.3443,3.3355,3.3944,3.3874,3.3317,3.3317,3.298,3.2375,3.2023,3.2126,3.2395,3.2126,3.2046,3.2125,3.1883,3.1556,3.1208,3.0509,3.0157,2.9554,2.8002,2.7544,2.6911,2.5164,2.4368,2.3921,2.3809,2.3247,2.2573,2.1896,2.1203,2.0597,1.9837,1.9248,1.8824,1.8714,1.8494,1.8273,1.8053,1.7942,1.7721,1.7166,1.6881,1.6806,1.6706,1.6706,1.6791,1.6996,1.6669,1.6571,1.6823,1.6475,1.6258,1.6312,1.6312,1.6258,1.6038,1.5658,1.5556,1.5443,1.5062,1.4894,1.4799,1.4846,1.4865,1.4874,1.4782,1.4894,1.5044,1.4691,1.4675,1.4964,1.5036,1.5108,1.5247,2.1132,2.0889,2.0879,2.1258,2.126,2.1365,2.1788,2.2004,2.213,2.216,2.249,2.2772,2.2585,2.3067,2.3861,2.4507,2.6329,2.7669,2.8119,2.909,3.0039,3.0606,3.0859,3.1305,3.2227,3.1438,3.1216,3.1574,3.1684,3.1788,3.1776,3.1761,3.1634,3.1613,3.1148,3.1169,3.1487,3.1593,3.1977,3.2556,3.3595,3.3923,3.3963,3.4536,3.4311,3.3636,3.3749,3.3409,3.2934,3.2457,3.2406,3.2457,3.221,3.2207,3.2281,3.1732,3.1483,3.125,3.0449,2.9922,2.9356,2.7993,2.7552,2.7052,2.5292,2.462,2.4232,2.3842,2.336,2.2846,2.2224,2.1592,2.0981,2.0361,1.9903,1.9473,1.9138,1.9027,1.8857,1.8425,1.8451,1.8326,1.8002,1.7689,1.7467,1.7467,1.7467,1.7467,1.7467,1.7244,1.7081,1.7085,1.6852,1.6664,1.6646,1.6646,1.6646,1.6646,1.6024,1.559,1.5555,1.5158,1.4957,1.4931,1.4931,1.4931,1.4931,1.4931,1.5054,1.5243,1.5087,1.5245,1.545,1.5663,1.5737,1.5728,2.1464,2.134,2.1455,2.1897,2.1828,2.1847,2.2186,2.2462,2.2674,2.2735,2.2953,2.3101,2.3101,2.3392,2.4199,2.5543,2.6725,2.7849,2.856,2.9362,3.0138,3.0976,3.1092,3.1536,3.2457,3.2685,3.2746,3.2727,3.2727,3.2738,3.2683,3.2598,3.2383,3.1955,3.1806,3.1763,3.1955,3.2146,3.2728,3.3595,3.4207,3.4494,3.4646,3.4869,3.4423,3.3749,3.406,3.3806,3.3299,3.2954,3.2724,3.2472,3.2472,3.2484,3.2353,3.1562,3.1466,3.1307,3.0154,2.9686,2.912,2.7848,2.7523,2.7111,2.5473,2.504,2.4661,2.3747,2.3505,2.3294,2.2663,2.2076,2.1541,2.0906,2.0583,2.0132,1.968,1.9453,1.9219,1.8933,1.8738,1.8682,1.8654,1.8301,1.8155,1.8155,1.8191,1.8143,1.795,1.7946,1.7754,1.7428,1.7256,1.7074,1.7001,1.7001,1.7001,1.6872,1.6208,1.5713,1.5593,1.5323,1.5081,1.4988,1.4988,1.4988,1.4988,1.4988,1.5101,1.5433,1.5624,1.5843,1.6211,1.6253,1.6178,1.616,2.0889,2.1216,2.1638,2.1775,2.192,2.2215,2.2901,2.2986,2.3169,2.3457,2.3731,2.3713,2.3467,2.3893,2.4879,2.6611,2.7097,2.79,2.9319,3.0236,3.084,3.1208,3.1787,3.2477,3.3388,3.3501,3.348,3.3417,3.3776,3.3957,3.4205,3.3791,3.3769,3.4074,3.3031,3.2879,3.3486,3.3486,3.377,3.4163,3.4912,3.5135,3.498,3.498,3.4646,3.4129,3.4539,3.4349,3.3886,3.3649,3.3292,3.3054,3.3054,3.2974,3.2815,3.1781,3.1465,3.1188,2.9917,2.9331,2.8838,2.8068,2.7692,2.721,2.6185,2.5377,2.4812,2.4122,2.3705,2.3349,2.272,2.2281,2.193,2.1303,2.0673,2.0329,2.0214,1.9754,1.9412,1.9233,1.8796,1.8464,1.8419,1.797,1.7587,1.7587,1.7805,1.8022,1.8227,1.8232,1.8092,1.7931,1.7591,1.7238,1.7001,1.7001,1.6882,1.6634,1.6671,1.6661,1.6374,1.5974,1.5813,1.5737,1.5737,1.5461,1.5196,1.5196,1.5453,1.605,1.6079,1.6471,1.7127,1.6725,1.6452,1.6178,2.1394,2.1558,2.2025,2.2436,2.2539,2.2782,2.3308,2.3592,2.3732,2.3771,2.3969,2.3926,2.3731,2.4298,2.523,2.6814,2.7294,2.801,2.931,3.0121,3.0859,3.1556,3.2018,3.2706,3.3636,3.3636,3.3749,3.4065,3.4199,3.4423,3.4513,3.4032,3.3901,3.4076,3.3269,3.3333,3.401,3.401,3.4537,3.5402,3.5848,3.5983,3.5776,3.6025,3.5549,3.4906,3.4752,3.4593,3.4526,3.3834,3.3335,3.3115,3.2855,3.2913,3.2789,3.2133,3.1634,3.1175,3.0395,2.9636,2.8856,2.814,2.79,2.7434,2.6338,2.5811,2.532,2.4529,2.4061,2.3771,2.3262,2.3012,2.267,2.1888,2.1351,2.0931,2.0413,2.0075,1.972,1.94,1.9098,1.8989,1.8594,1.8483,1.8372,1.8372,1.8481,1.8541,1.8517,1.8506,1.8244,1.7828,1.7591,1.74,1.7001,1.7141,1.7085,1.6954,1.7188,1.7044,1.6439,1.643,1.6338,1.6042,1.6042,1.5972,1.559,1.559,1.5919,1.636,1.636,1.6629,1.6875,1.6734,1.6593,1.6452]}]]